<?xml version="1.0" encoding="UTF-8" standalone="no" ?>
<gpx xmlns="http://www.topografix.com/GPX/1/1" xmlns:xsi="http://www.w3.org/2001/XMLSchema-instance" xsi:schemaLocation="http://www.topografix.com/GPX/1/1 http://www.topografix.com/GPX/1/1/gpx.xsd" version="1.1" creator="VisuGPX - https://www.visugpx.com">
  <metadata>
    <name>T. Warzée Villers au tour Esneux Limont Tavier T.</name>
    <desc><![CDATA[Avec un petit tour aux alentours d\'Esneux.]]></desc>
  </metadata>
  <trk>
    <name><![CDATA[T. Warzée Villers au tour Esneux Limont Tavier T.]]></name>
    <trkseg>
      <trkpt lat="50.44664" lon="5.34789">
        <ele>253</ele>
        <time>2013-02-17T10:29:46Z</time>
      </trkpt>
      <trkpt lat="50.44664" lon="5.34789">
        <ele>283.3</ele>
        <time>2013-02-17T10:29:48Z</time>
      </trkpt>
      <trkpt lat="50.44633" lon="5.34789">
        <ele>313.4</ele>
        <time>2013-02-17T10:31:53Z</time>
      </trkpt>
      <trkpt lat="50.44604" lon="5.34793">
        <ele>297.7</ele>
        <time>2013-02-17T10:32:00Z</time>
      </trkpt>
      <trkpt lat="50.44571" lon="5.34821">
        <ele>292.7</ele>
        <time>2013-02-17T10:32:06Z</time>
      </trkpt>
      <trkpt lat="50.44527" lon="5.3481">
        <ele>320.9</ele>
        <time>2013-02-17T10:32:16Z</time>
      </trkpt>
      <trkpt lat="50.44485" lon="5.34822">
        <ele>282.6</ele>
        <time>2013-02-17T10:32:22Z</time>
      </trkpt>
      <trkpt lat="50.44454" lon="5.34818">
        <ele>288.4</ele>
        <time>2013-02-17T10:32:27Z</time>
      </trkpt>
      <trkpt lat="50.44423" lon="5.3484">
        <ele>290.1</ele>
        <time>2013-02-17T10:32:34Z</time>
      </trkpt>
      <trkpt lat="50.44446" lon="5.34878">
        <ele>279.1</ele>
        <time>2013-02-17T10:32:40Z</time>
      </trkpt>
      <trkpt lat="50.44468" lon="5.34928">
        <ele>272.5</ele>
        <time>2013-02-17T10:32:48Z</time>
      </trkpt>
      <trkpt lat="50.44495" lon="5.34953">
        <ele>276.5</ele>
        <time>2013-02-17T10:32:55Z</time>
      </trkpt>
      <trkpt lat="50.44509" lon="5.34992">
        <ele>276.4</ele>
        <time>2013-02-17T10:33:00Z</time>
      </trkpt>
      <trkpt lat="50.44526" lon="5.3504">
        <ele>276.9</ele>
        <time>2013-02-17T10:33:07Z</time>
      </trkpt>
      <trkpt lat="50.44537" lon="5.3509">
        <ele>281.2</ele>
        <time>2013-02-17T10:33:13Z</time>
      </trkpt>
      <trkpt lat="50.44551" lon="5.35132">
        <ele>276.4</ele>
        <time>2013-02-17T10:33:19Z</time>
      </trkpt>
      <trkpt lat="50.44565" lon="5.35178">
        <ele>277.4</ele>
        <time>2013-02-17T10:33:24Z</time>
      </trkpt>
      <trkpt lat="50.44585" lon="5.35247">
        <ele>278</ele>
        <time>2013-02-17T10:33:30Z</time>
      </trkpt>
      <trkpt lat="50.44601" lon="5.35301">
        <ele>277.8</ele>
        <time>2013-02-17T10:33:35Z</time>
      </trkpt>
      <trkpt lat="50.4462" lon="5.35362">
        <ele>277.3</ele>
        <time>2013-02-17T10:33:40Z</time>
      </trkpt>
      <trkpt lat="50.44637" lon="5.35435">
        <ele>278.7</ele>
        <time>2013-02-17T10:33:46Z</time>
      </trkpt>
      <trkpt lat="50.44628" lon="5.35485">
        <ele>280.2</ele>
        <time>2013-02-17T10:33:52Z</time>
      </trkpt>
      <trkpt lat="50.44594" lon="5.35506">
        <ele>279.1</ele>
        <time>2013-02-17T10:33:58Z</time>
      </trkpt>
      <trkpt lat="50.44544" lon="5.35535">
        <ele>278.2</ele>
        <time>2013-02-17T10:34:05Z</time>
      </trkpt>
      <trkpt lat="50.44531" lon="5.35593">
        <ele>280.5</ele>
        <time>2013-02-17T10:34:11Z</time>
      </trkpt>
      <trkpt lat="50.44531" lon="5.35631">
        <ele>280.4</ele>
        <time>2013-02-17T10:34:14Z</time>
      </trkpt>
      <trkpt lat="50.44541" lon="5.357">
        <ele>279.9</ele>
        <time>2013-02-17T10:34:20Z</time>
      </trkpt>
      <trkpt lat="50.44571" lon="5.35736">
        <ele>278.2</ele>
        <time>2013-02-17T10:34:28Z</time>
      </trkpt>
      <trkpt lat="50.44585" lon="5.3577">
        <ele>277.7</ele>
        <time>2013-02-17T10:34:34Z</time>
      </trkpt>
      <trkpt lat="50.44602" lon="5.35831">
        <ele>275.9</ele>
        <time>2013-02-17T10:34:42Z</time>
      </trkpt>
      <trkpt lat="50.44607" lon="5.35872">
        <ele>275.5</ele>
        <time>2013-02-17T10:34:47Z</time>
      </trkpt>
      <trkpt lat="50.44609" lon="5.35899">
        <ele>275.1</ele>
        <time>2013-02-17T10:34:50Z</time>
      </trkpt>
      <trkpt lat="50.44611" lon="5.35941">
        <ele>276.2</ele>
        <time>2013-02-17T10:34:55Z</time>
      </trkpt>
      <trkpt lat="50.44614" lon="5.35975">
        <ele>275.4</ele>
        <time>2013-02-17T10:35:00Z</time>
      </trkpt>
      <trkpt lat="50.44622" lon="5.36007">
        <ele>276</ele>
        <time>2013-02-17T10:35:06Z</time>
      </trkpt>
      <trkpt lat="50.44637" lon="5.36066">
        <ele>276.9</ele>
        <time>2013-02-17T10:35:13Z</time>
      </trkpt>
      <trkpt lat="50.44642" lon="5.36105">
        <ele>278.7</ele>
        <time>2013-02-17T10:35:18Z</time>
      </trkpt>
      <trkpt lat="50.44654" lon="5.36139">
        <ele>275.3</ele>
        <time>2013-02-17T10:35:25Z</time>
      </trkpt>
      <trkpt lat="50.44672" lon="5.36178">
        <ele>274.8</ele>
        <time>2013-02-17T10:35:32Z</time>
      </trkpt>
      <trkpt lat="50.44678" lon="5.36198">
        <ele>274.6</ele>
        <time>2013-02-17T10:35:35Z</time>
      </trkpt>
      <trkpt lat="50.44684" lon="5.36217">
        <ele>274.6</ele>
        <time>2013-02-17T10:35:38Z</time>
      </trkpt>
      <trkpt lat="50.4469" lon="5.36252">
        <ele>275.5</ele>
        <time>2013-02-17T10:35:45Z</time>
      </trkpt>
      <trkpt lat="50.44685" lon="5.36266">
        <ele>276.6</ele>
        <time>2013-02-17T10:35:51Z</time>
      </trkpt>
      <trkpt lat="50.4467" lon="5.36275">
        <ele>279.5</ele>
        <time>2013-02-17T10:36:03Z</time>
      </trkpt>
      <trkpt lat="50.44645" lon="5.36313">
        <ele>280.1</ele>
        <time>2013-02-17T10:36:18Z</time>
      </trkpt>
      <trkpt lat="50.44634" lon="5.36327">
        <ele>274.8</ele>
        <time>2013-02-17T10:36:26Z</time>
      </trkpt>
      <trkpt lat="50.44621" lon="5.36349">
        <ele>276.1</ele>
        <time>2013-02-17T10:36:35Z</time>
      </trkpt>
      <trkpt lat="50.44613" lon="5.36373">
        <ele>277.4</ele>
        <time>2013-02-17T10:36:41Z</time>
      </trkpt>
      <trkpt lat="50.44607" lon="5.3642">
        <ele>276.5</ele>
        <time>2013-02-17T10:36:49Z</time>
      </trkpt>
      <trkpt lat="50.44608" lon="5.36457">
        <ele>277.5</ele>
        <time>2013-02-17T10:36:57Z</time>
      </trkpt>
      <trkpt lat="50.44619" lon="5.36483">
        <ele>279.1</ele>
        <time>2013-02-17T10:37:06Z</time>
      </trkpt>
      <trkpt lat="50.44625" lon="5.36511">
        <ele>282.8</ele>
        <time>2013-02-17T10:37:13Z</time>
      </trkpt>
      <trkpt lat="50.44628" lon="5.36556">
        <ele>285.2</ele>
        <time>2013-02-17T10:37:22Z</time>
      </trkpt>
      <trkpt lat="50.44629" lon="5.36592">
        <ele>282.1</ele>
        <time>2013-02-17T10:37:27Z</time>
      </trkpt>
      <trkpt lat="50.44628" lon="5.36617">
        <ele>281.2</ele>
        <time>2013-02-17T10:37:30Z</time>
      </trkpt>
      <trkpt lat="50.44625" lon="5.36659">
        <ele>278.6</ele>
        <time>2013-02-17T10:37:36Z</time>
      </trkpt>
      <trkpt lat="50.44618" lon="5.36701">
        <ele>280.7</ele>
        <time>2013-02-17T10:37:42Z</time>
      </trkpt>
      <trkpt lat="50.4461" lon="5.36739">
        <ele>282.8</ele>
        <time>2013-02-17T10:37:48Z</time>
      </trkpt>
      <trkpt lat="50.44604" lon="5.36767">
        <ele>283.3</ele>
        <time>2013-02-17T10:37:53Z</time>
      </trkpt>
      <trkpt lat="50.44593" lon="5.36813">
        <ele>285.1</ele>
        <time>2013-02-17T10:38:01Z</time>
      </trkpt>
      <trkpt lat="50.44586" lon="5.36845">
        <ele>286.2</ele>
        <time>2013-02-17T10:38:06Z</time>
      </trkpt>
      <trkpt lat="50.44581" lon="5.36868">
        <ele>286.9</ele>
        <time>2013-02-17T10:38:10Z</time>
      </trkpt>
      <trkpt lat="50.44577" lon="5.36885">
        <ele>288.2</ele>
        <time>2013-02-17T10:38:13Z</time>
      </trkpt>
      <trkpt lat="50.44568" lon="5.36926">
        <ele>290.6</ele>
        <time>2013-02-17T10:38:20Z</time>
      </trkpt>
      <trkpt lat="50.44561" lon="5.36953">
        <ele>290.2</ele>
        <time>2013-02-17T10:38:25Z</time>
      </trkpt>
      <trkpt lat="50.44557" lon="5.36971">
        <ele>290.8</ele>
        <time>2013-02-17T10:38:28Z</time>
      </trkpt>
      <trkpt lat="50.44551" lon="5.36995">
        <ele>291</ele>
        <time>2013-02-17T10:38:32Z</time>
      </trkpt>
      <trkpt lat="50.44543" lon="5.37025">
        <ele>292.1</ele>
        <time>2013-02-17T10:38:37Z</time>
      </trkpt>
      <trkpt lat="50.44538" lon="5.37043">
        <ele>292.3</ele>
        <time>2013-02-17T10:38:40Z</time>
      </trkpt>
      <trkpt lat="50.44533" lon="5.3706">
        <ele>294</ele>
        <time>2013-02-17T10:38:43Z</time>
      </trkpt>
      <trkpt lat="50.44527" lon="5.37091">
        <ele>293.3</ele>
        <time>2013-02-17T10:38:48Z</time>
      </trkpt>
      <trkpt lat="50.4452" lon="5.37121">
        <ele>293.1</ele>
        <time>2013-02-17T10:38:53Z</time>
      </trkpt>
      <trkpt lat="50.44513" lon="5.37148">
        <ele>293.7</ele>
        <time>2013-02-17T10:38:58Z</time>
      </trkpt>
      <trkpt lat="50.44509" lon="5.37171">
        <ele>295.6</ele>
        <time>2013-02-17T10:39:02Z</time>
      </trkpt>
      <trkpt lat="50.44501" lon="5.37201">
        <ele>295.4</ele>
        <time>2013-02-17T10:39:07Z</time>
      </trkpt>
      <trkpt lat="50.44495" lon="5.37233">
        <ele>295.2</ele>
        <time>2013-02-17T10:39:13Z</time>
      </trkpt>
      <trkpt lat="50.44487" lon="5.37279">
        <ele>294.2</ele>
        <time>2013-02-17T10:39:21Z</time>
      </trkpt>
      <trkpt lat="50.4448" lon="5.37318">
        <ele>294.3</ele>
        <time>2013-02-17T10:39:27Z</time>
      </trkpt>
      <trkpt lat="50.44467" lon="5.37374">
        <ele>296.1</ele>
        <time>2013-02-17T10:39:34Z</time>
      </trkpt>
      <trkpt lat="50.4446" lon="5.37416">
        <ele>298.3</ele>
        <time>2013-02-17T10:39:40Z</time>
      </trkpt>
      <trkpt lat="50.44451" lon="5.37468">
        <ele>298.9</ele>
        <time>2013-02-17T10:39:47Z</time>
      </trkpt>
      <trkpt lat="50.44442" lon="5.37523">
        <ele>297.3</ele>
        <time>2013-02-17T10:39:54Z</time>
      </trkpt>
      <trkpt lat="50.44431" lon="5.37571">
        <ele>299.3</ele>
        <time>2013-02-17T10:40:00Z</time>
      </trkpt>
      <trkpt lat="50.44421" lon="5.37617">
        <ele>299.8</ele>
        <time>2013-02-17T10:40:07Z</time>
      </trkpt>
      <trkpt lat="50.44409" lon="5.37673">
        <ele>300.3</ele>
        <time>2013-02-17T10:40:14Z</time>
      </trkpt>
      <trkpt lat="50.44404" lon="5.37719">
        <ele>299.7</ele>
        <time>2013-02-17T10:40:20Z</time>
      </trkpt>
      <trkpt lat="50.44396" lon="5.37761">
        <ele>298</ele>
        <time>2013-02-17T10:40:26Z</time>
      </trkpt>
      <trkpt lat="50.44375" lon="5.37795">
        <ele>300.2</ele>
        <time>2013-02-17T10:40:32Z</time>
      </trkpt>
      <trkpt lat="50.44357" lon="5.37812">
        <ele>300.6</ele>
        <time>2013-02-17T10:40:37Z</time>
      </trkpt>
      <trkpt lat="50.44339" lon="5.37826">
        <ele>299.8</ele>
        <time>2013-02-17T10:40:42Z</time>
      </trkpt>
      <trkpt lat="50.44322" lon="5.37838">
        <ele>297.4</ele>
        <time>2013-02-17T10:40:47Z</time>
      </trkpt>
      <trkpt lat="50.44303" lon="5.37854">
        <ele>296.7</ele>
        <time>2013-02-17T10:40:53Z</time>
      </trkpt>
      <trkpt lat="50.44286" lon="5.37869">
        <ele>298.5</ele>
        <time>2013-02-17T10:40:58Z</time>
      </trkpt>
      <trkpt lat="50.4426" lon="5.3789">
        <ele>302.5</ele>
        <time>2013-02-17T10:41:04Z</time>
      </trkpt>
      <trkpt lat="50.44239" lon="5.37902">
        <ele>303.5</ele>
        <time>2013-02-17T10:41:10Z</time>
      </trkpt>
      <trkpt lat="50.44218" lon="5.37915">
        <ele>304.7</ele>
        <time>2013-02-17T10:41:16Z</time>
      </trkpt>
      <trkpt lat="50.44187" lon="5.37937">
        <ele>306</ele>
        <time>2013-02-17T10:41:25Z</time>
      </trkpt>
      <trkpt lat="50.44158" lon="5.37958">
        <ele>308.2</ele>
        <time>2013-02-17T10:41:34Z</time>
      </trkpt>
      <trkpt lat="50.44136" lon="5.37973">
        <ele>307.4</ele>
        <time>2013-02-17T10:41:41Z</time>
      </trkpt>
      <trkpt lat="50.44116" lon="5.37991">
        <ele>308.8</ele>
        <time>2013-02-17T10:41:48Z</time>
      </trkpt>
      <trkpt lat="50.44096" lon="5.38008">
        <ele>310.1</ele>
        <time>2013-02-17T10:41:55Z</time>
      </trkpt>
      <trkpt lat="50.44075" lon="5.38022">
        <ele>309.6</ele>
        <time>2013-02-17T10:42:03Z</time>
      </trkpt>
      <trkpt lat="50.44067" lon="5.38029">
        <ele>311.6</ele>
        <time>2013-02-17T10:42:06Z</time>
      </trkpt>
      <trkpt lat="50.44043" lon="5.38046">
        <ele>312.1</ele>
        <time>2013-02-17T10:42:14Z</time>
      </trkpt>
      <trkpt lat="50.44026" lon="5.38061">
        <ele>312.1</ele>
        <time>2013-02-17T10:42:20Z</time>
      </trkpt>
      <trkpt lat="50.44011" lon="5.38077">
        <ele>313.3</ele>
        <time>2013-02-17T10:42:30Z</time>
      </trkpt>
      <trkpt lat="50.44027" lon="5.38127">
        <ele>309.7</ele>
        <time>2013-02-17T10:42:42Z</time>
      </trkpt>
      <trkpt lat="50.4404" lon="5.38155">
        <ele>308.3</ele>
        <time>2013-02-17T10:42:48Z</time>
      </trkpt>
      <trkpt lat="50.44054" lon="5.38192">
        <ele>307.6</ele>
        <time>2013-02-17T10:42:55Z</time>
      </trkpt>
      <trkpt lat="50.44062" lon="5.38213">
        <ele>306.6</ele>
        <time>2013-02-17T10:43:00Z</time>
      </trkpt>
      <trkpt lat="50.44075" lon="5.38235">
        <ele>306.5</ele>
        <time>2013-02-17T10:43:05Z</time>
      </trkpt>
      <trkpt lat="50.44098" lon="5.38276">
        <ele>306.8</ele>
        <time>2013-02-17T10:43:14Z</time>
      </trkpt>
      <trkpt lat="50.44112" lon="5.38306">
        <ele>306</ele>
        <time>2013-02-17T10:43:19Z</time>
      </trkpt>
      <trkpt lat="50.44125" lon="5.38349">
        <ele>305.2</ele>
        <time>2013-02-17T10:43:25Z</time>
      </trkpt>
      <trkpt lat="50.44137" lon="5.38387">
        <ele>302.2</ele>
        <time>2013-02-17T10:43:30Z</time>
      </trkpt>
      <trkpt lat="50.4417" lon="5.38439">
        <ele>303.3</ele>
        <time>2013-02-17T10:43:35Z</time>
      </trkpt>
      <trkpt lat="50.44187" lon="5.38477">
        <ele>304.5</ele>
        <time>2013-02-17T10:43:40Z</time>
      </trkpt>
      <trkpt lat="50.44207" lon="5.38518">
        <ele>305.7</ele>
        <time>2013-02-17T10:43:46Z</time>
      </trkpt>
      <trkpt lat="50.44224" lon="5.38551">
        <ele>306</ele>
        <time>2013-02-17T10:43:51Z</time>
      </trkpt>
      <trkpt lat="50.44237" lon="5.38583">
        <ele>304.8</ele>
        <time>2013-02-17T10:43:57Z</time>
      </trkpt>
      <trkpt lat="50.44257" lon="5.38636">
        <ele>304</ele>
        <time>2013-02-17T10:44:04Z</time>
      </trkpt>
      <trkpt lat="50.44269" lon="5.38672">
        <ele>303.3</ele>
        <time>2013-02-17T10:44:09Z</time>
      </trkpt>
      <trkpt lat="50.44282" lon="5.38711">
        <ele>303.6</ele>
        <time>2013-02-17T10:44:15Z</time>
      </trkpt>
      <trkpt lat="50.44297" lon="5.38738">
        <ele>303.2</ele>
        <time>2013-02-17T10:44:20Z</time>
      </trkpt>
      <trkpt lat="50.44313" lon="5.38785">
        <ele>304.1</ele>
        <time>2013-02-17T10:44:26Z</time>
      </trkpt>
      <trkpt lat="50.44323" lon="5.38861">
        <ele>305.1</ele>
        <time>2013-02-17T10:44:32Z</time>
      </trkpt>
      <trkpt lat="50.4433" lon="5.38909">
        <ele>307</ele>
        <time>2013-02-17T10:44:38Z</time>
      </trkpt>
      <trkpt lat="50.4434" lon="5.38946">
        <ele>311</ele>
        <time>2013-02-17T10:44:45Z</time>
      </trkpt>
      <trkpt lat="50.44341" lon="5.3899">
        <ele>309.2</ele>
        <time>2013-02-17T10:44:51Z</time>
      </trkpt>
      <trkpt lat="50.44341" lon="5.39033">
        <ele>310.7</ele>
        <time>2013-02-17T10:44:57Z</time>
      </trkpt>
      <trkpt lat="50.4434" lon="5.39059">
        <ele>309.7</ele>
        <time>2013-02-17T10:45:01Z</time>
      </trkpt>
      <trkpt lat="50.44338" lon="5.3909">
        <ele>309.7</ele>
        <time>2013-02-17T10:45:06Z</time>
      </trkpt>
      <trkpt lat="50.44339" lon="5.3912">
        <ele>309.8</ele>
        <time>2013-02-17T10:45:11Z</time>
      </trkpt>
      <trkpt lat="50.44339" lon="5.39154">
        <ele>309.8</ele>
        <time>2013-02-17T10:45:17Z</time>
      </trkpt>
      <trkpt lat="50.4434" lon="5.39185">
        <ele>309.7</ele>
        <time>2013-02-17T10:45:23Z</time>
      </trkpt>
      <trkpt lat="50.44343" lon="5.39226">
        <ele>308.2</ele>
        <time>2013-02-17T10:45:31Z</time>
      </trkpt>
      <trkpt lat="50.44343" lon="5.39252">
        <ele>309.1</ele>
        <time>2013-02-17T10:45:36Z</time>
      </trkpt>
      <trkpt lat="50.44342" lon="5.39292">
        <ele>310.3</ele>
        <time>2013-02-17T10:45:42Z</time>
      </trkpt>
      <trkpt lat="50.44342" lon="5.3933">
        <ele>311.2</ele>
        <time>2013-02-17T10:45:49Z</time>
      </trkpt>
      <trkpt lat="50.44342" lon="5.39368">
        <ele>311.5</ele>
        <time>2013-02-17T10:45:56Z</time>
      </trkpt>
      <trkpt lat="50.44342" lon="5.39407">
        <ele>313.2</ele>
        <time>2013-02-17T10:46:03Z</time>
      </trkpt>
      <trkpt lat="50.44341" lon="5.3944">
        <ele>315.7</ele>
        <time>2013-02-17T10:46:09Z</time>
      </trkpt>
      <trkpt lat="50.44342" lon="5.3947">
        <ele>315.5</ele>
        <time>2013-02-17T10:46:15Z</time>
      </trkpt>
      <trkpt lat="50.44343" lon="5.39502">
        <ele>315.8</ele>
        <time>2013-02-17T10:46:22Z</time>
      </trkpt>
      <trkpt lat="50.44344" lon="5.3953">
        <ele>315.9</ele>
        <time>2013-02-17T10:46:28Z</time>
      </trkpt>
      <trkpt lat="50.44346" lon="5.39554">
        <ele>317.3</ele>
        <time>2013-02-17T10:46:33Z</time>
      </trkpt>
      <trkpt lat="50.44339" lon="5.39599">
        <ele>320.4</ele>
        <time>2013-02-17T10:46:41Z</time>
      </trkpt>
      <trkpt lat="50.44331" lon="5.39627">
        <ele>323.5</ele>
        <time>2013-02-17T10:46:48Z</time>
      </trkpt>
      <trkpt lat="50.44327" lon="5.39662">
        <ele>327.5</ele>
        <time>2013-02-17T10:46:58Z</time>
      </trkpt>
      <trkpt lat="50.4432" lon="5.39683">
        <ele>326.1</ele>
        <time>2013-02-17T10:47:04Z</time>
      </trkpt>
      <trkpt lat="50.44316" lon="5.3971">
        <ele>324.4</ele>
        <time>2013-02-17T10:47:12Z</time>
      </trkpt>
      <trkpt lat="50.44312" lon="5.39749">
        <ele>327.5</ele>
        <time>2013-02-17T10:47:21Z</time>
      </trkpt>
      <trkpt lat="50.44307" lon="5.39767">
        <ele>325.6</ele>
        <time>2013-02-17T10:47:26Z</time>
      </trkpt>
      <trkpt lat="50.44301" lon="5.39795">
        <ele>322.8</ele>
        <time>2013-02-17T10:47:34Z</time>
      </trkpt>
      <trkpt lat="50.44297" lon="5.39815">
        <ele>320.2</ele>
        <time>2013-02-17T10:47:40Z</time>
      </trkpt>
      <trkpt lat="50.44293" lon="5.39844">
        <ele>320.2</ele>
        <time>2013-02-17T10:47:49Z</time>
      </trkpt>
      <trkpt lat="50.44288" lon="5.39875">
        <ele>322.8</ele>
        <time>2013-02-17T10:47:58Z</time>
      </trkpt>
      <trkpt lat="50.44283" lon="5.39904">
        <ele>325.1</ele>
        <time>2013-02-17T10:48:09Z</time>
      </trkpt>
      <trkpt lat="50.44279" lon="5.39926">
        <ele>325.5</ele>
        <time>2013-02-17T10:48:18Z</time>
      </trkpt>
      <trkpt lat="50.44266" lon="5.3995">
        <ele>324.3</ele>
        <time>2013-02-17T10:48:28Z</time>
      </trkpt>
      <trkpt lat="50.4426" lon="5.39957">
        <ele>327.1</ele>
        <time>2013-02-17T10:48:31Z</time>
      </trkpt>
      <trkpt lat="50.4426" lon="5.39957">
        <ele>290.1</ele>
        <time>2013-02-17T10:48:36Z</time>
      </trkpt>
      <trkpt lat="50.4426" lon="5.39957">
        <ele>290.1</ele>
        <time>2013-02-17T10:48:42Z</time>
      </trkpt>
      <trkpt lat="50.44254" lon="5.39967">
        <ele>330.3</ele>
        <time>2013-02-17T10:48:42Z</time>
      </trkpt>
      <trkpt lat="50.44225" lon="5.40003">
        <ele>336.2</ele>
        <time>2013-02-17T10:48:56Z</time>
      </trkpt>
      <trkpt lat="50.44206" lon="5.40018">
        <ele>339.6</ele>
        <time>2013-02-17T10:49:06Z</time>
      </trkpt>
      <trkpt lat="50.44194" lon="5.40031">
        <ele>341.1</ele>
        <time>2013-02-17T10:49:15Z</time>
      </trkpt>
      <trkpt lat="50.44191" lon="5.40062">
        <ele>341.7</ele>
        <time>2013-02-17T10:49:25Z</time>
      </trkpt>
      <trkpt lat="50.44195" lon="5.401">
        <ele>343.6</ele>
        <time>2013-02-17T10:49:35Z</time>
      </trkpt>
      <trkpt lat="50.44201" lon="5.40131">
        <ele>345.8</ele>
        <time>2013-02-17T10:49:43Z</time>
      </trkpt>
      <trkpt lat="50.44207" lon="5.4015">
        <ele>344.9</ele>
        <time>2013-02-17T10:49:54Z</time>
      </trkpt>
      <trkpt lat="50.44212" lon="5.40172">
        <ele>347.4</ele>
        <time>2013-02-17T10:50:03Z</time>
      </trkpt>
      <trkpt lat="50.44219" lon="5.40208">
        <ele>345.7</ele>
        <time>2013-02-17T10:50:09Z</time>
      </trkpt>
      <trkpt lat="50.44226" lon="5.40235">
        <ele>345.3</ele>
        <time>2013-02-17T10:50:15Z</time>
      </trkpt>
      <trkpt lat="50.44235" lon="5.40257">
        <ele>348.3</ele>
        <time>2013-02-17T10:50:21Z</time>
      </trkpt>
      <trkpt lat="50.44245" lon="5.40296">
        <ele>350.5</ele>
        <time>2013-02-17T10:50:29Z</time>
      </trkpt>
      <trkpt lat="50.44258" lon="5.40337">
        <ele>354.4</ele>
        <time>2013-02-17T10:50:37Z</time>
      </trkpt>
      <trkpt lat="50.44264" lon="5.40369">
        <ele>355.3</ele>
        <time>2013-02-17T10:50:43Z</time>
      </trkpt>
      <trkpt lat="50.44273" lon="5.40402">
        <ele>355.6</ele>
        <time>2013-02-17T10:50:50Z</time>
      </trkpt>
      <trkpt lat="50.44284" lon="5.40432">
        <ele>355.3</ele>
        <time>2013-02-17T10:50:57Z</time>
      </trkpt>
      <trkpt lat="50.44294" lon="5.40469">
        <ele>354</ele>
        <time>2013-02-17T10:51:03Z</time>
      </trkpt>
      <trkpt lat="50.44302" lon="5.40501">
        <ele>353.6</ele>
        <time>2013-02-17T10:51:08Z</time>
      </trkpt>
      <trkpt lat="50.44313" lon="5.40532">
        <ele>353.9</ele>
        <time>2013-02-17T10:51:14Z</time>
      </trkpt>
      <trkpt lat="50.44326" lon="5.40566">
        <ele>354.1</ele>
        <time>2013-02-17T10:51:20Z</time>
      </trkpt>
      <trkpt lat="50.44336" lon="5.40599">
        <ele>350.9</ele>
        <time>2013-02-17T10:51:26Z</time>
      </trkpt>
      <trkpt lat="50.44344" lon="5.40624">
        <ele>349.5</ele>
        <time>2013-02-17T10:51:31Z</time>
      </trkpt>
      <trkpt lat="50.44349" lon="5.40638">
        <ele>349.5</ele>
        <time>2013-02-17T10:51:34Z</time>
      </trkpt>
      <trkpt lat="50.44354" lon="5.40655">
        <ele>349.3</ele>
        <time>2013-02-17T10:51:37Z</time>
      </trkpt>
      <trkpt lat="50.44373" lon="5.40697">
        <ele>348</ele>
        <time>2013-02-17T10:51:45Z</time>
      </trkpt>
      <trkpt lat="50.44387" lon="5.40732">
        <ele>348.5</ele>
        <time>2013-02-17T10:51:52Z</time>
      </trkpt>
      <trkpt lat="50.44393" lon="5.40761">
        <ele>348</ele>
        <time>2013-02-17T10:51:57Z</time>
      </trkpt>
      <trkpt lat="50.44407" lon="5.40788">
        <ele>348.3</ele>
        <time>2013-02-17T10:52:04Z</time>
      </trkpt>
      <trkpt lat="50.44426" lon="5.40818">
        <ele>347.7</ele>
        <time>2013-02-17T10:52:11Z</time>
      </trkpt>
      <trkpt lat="50.44442" lon="5.40876">
        <ele>349.8</ele>
        <time>2013-02-17T10:52:18Z</time>
      </trkpt>
      <trkpt lat="50.44456" lon="5.40919">
        <ele>350.8</ele>
        <time>2013-02-17T10:52:25Z</time>
      </trkpt>
      <trkpt lat="50.44467" lon="5.40961">
        <ele>350.7</ele>
        <time>2013-02-17T10:52:31Z</time>
      </trkpt>
      <trkpt lat="50.44478" lon="5.40998">
        <ele>349.6</ele>
        <time>2013-02-17T10:52:37Z</time>
      </trkpt>
      <trkpt lat="50.44493" lon="5.41051">
        <ele>352.5</ele>
        <time>2013-02-17T10:52:44Z</time>
      </trkpt>
      <trkpt lat="50.44505" lon="5.4108">
        <ele>351.5</ele>
        <time>2013-02-17T10:52:49Z</time>
      </trkpt>
      <trkpt lat="50.44522" lon="5.41127">
        <ele>354</ele>
        <time>2013-02-17T10:52:56Z</time>
      </trkpt>
      <trkpt lat="50.44536" lon="5.41169">
        <ele>354</ele>
        <time>2013-02-17T10:53:01Z</time>
      </trkpt>
      <trkpt lat="50.4455" lon="5.41214">
        <ele>352.6</ele>
        <time>2013-02-17T10:53:07Z</time>
      </trkpt>
      <trkpt lat="50.44557" lon="5.41245">
        <ele>352.2</ele>
        <time>2013-02-17T10:53:12Z</time>
      </trkpt>
      <trkpt lat="50.44572" lon="5.41269">
        <ele>350.2</ele>
        <time>2013-02-17T10:53:15Z</time>
      </trkpt>
      <trkpt lat="50.44594" lon="5.41273">
        <ele>351.5</ele>
        <time>2013-02-17T10:53:21Z</time>
      </trkpt>
      <trkpt lat="50.44633" lon="5.41258">
        <ele>351.2</ele>
        <time>2013-02-17T10:53:27Z</time>
      </trkpt>
      <trkpt lat="50.4466" lon="5.41278">
        <ele>350.7</ele>
        <time>2013-02-17T10:53:32Z</time>
      </trkpt>
      <trkpt lat="50.44683" lon="5.41314">
        <ele>348.6</ele>
        <time>2013-02-17T10:53:38Z</time>
      </trkpt>
      <trkpt lat="50.447" lon="5.41351">
        <ele>349.1</ele>
        <time>2013-02-17T10:53:43Z</time>
      </trkpt>
      <trkpt lat="50.44712" lon="5.41379">
        <ele>349.7</ele>
        <time>2013-02-17T10:53:48Z</time>
      </trkpt>
      <trkpt lat="50.44726" lon="5.41412">
        <ele>348.7</ele>
        <time>2013-02-17T10:53:53Z</time>
      </trkpt>
      <trkpt lat="50.44737" lon="5.41456">
        <ele>350.2</ele>
        <time>2013-02-17T10:53:59Z</time>
      </trkpt>
      <trkpt lat="50.44743" lon="5.41476">
        <ele>350.1</ele>
        <time>2013-02-17T10:54:02Z</time>
      </trkpt>
      <trkpt lat="50.44749" lon="5.41499">
        <ele>348.1</ele>
        <time>2013-02-17T10:54:05Z</time>
      </trkpt>
      <trkpt lat="50.44764" lon="5.41544">
        <ele>348.4</ele>
        <time>2013-02-17T10:54:11Z</time>
      </trkpt>
      <trkpt lat="50.44778" lon="5.41597">
        <ele>349</ele>
        <time>2013-02-17T10:54:17Z</time>
      </trkpt>
      <trkpt lat="50.44792" lon="5.4163">
        <ele>347.5</ele>
        <time>2013-02-17T10:54:22Z</time>
      </trkpt>
      <trkpt lat="50.44807" lon="5.41668">
        <ele>348</ele>
        <time>2013-02-17T10:54:27Z</time>
      </trkpt>
      <trkpt lat="50.44827" lon="5.41706">
        <ele>347.6</ele>
        <time>2013-02-17T10:54:33Z</time>
      </trkpt>
      <trkpt lat="50.44865" lon="5.41738">
        <ele>348.9</ele>
        <time>2013-02-17T10:54:39Z</time>
      </trkpt>
      <trkpt lat="50.44903" lon="5.41755">
        <ele>348.3</ele>
        <time>2013-02-17T10:54:45Z</time>
      </trkpt>
      <trkpt lat="50.44918" lon="5.41814">
        <ele>345.8</ele>
        <time>2013-02-17T10:54:52Z</time>
      </trkpt>
      <trkpt lat="50.44919" lon="5.41865">
        <ele>345.2</ele>
        <time>2013-02-17T10:54:57Z</time>
      </trkpt>
      <trkpt lat="50.44938" lon="5.41908">
        <ele>344.1</ele>
        <time>2013-02-17T10:55:03Z</time>
      </trkpt>
      <trkpt lat="50.44958" lon="5.41949">
        <ele>343.9</ele>
        <time>2013-02-17T10:55:10Z</time>
      </trkpt>
      <trkpt lat="50.44976" lon="5.41963">
        <ele>343.7</ele>
        <time>2013-02-17T10:55:16Z</time>
      </trkpt>
      <trkpt lat="50.44996" lon="5.41982">
        <ele>343.6</ele>
        <time>2013-02-17T10:55:22Z</time>
      </trkpt>
      <trkpt lat="50.45008" lon="5.41996">
        <ele>343.2</ele>
        <time>2013-02-17T10:55:25Z</time>
      </trkpt>
      <trkpt lat="50.45031" lon="5.42022">
        <ele>343</ele>
        <time>2013-02-17T10:55:31Z</time>
      </trkpt>
      <trkpt lat="50.45056" lon="5.42052">
        <ele>343.1</ele>
        <time>2013-02-17T10:55:38Z</time>
      </trkpt>
      <trkpt lat="50.45074" lon="5.42071">
        <ele>342.6</ele>
        <time>2013-02-17T10:55:44Z</time>
      </trkpt>
      <trkpt lat="50.45099" lon="5.42094">
        <ele>341.6</ele>
        <time>2013-02-17T10:55:52Z</time>
      </trkpt>
      <trkpt lat="50.45121" lon="5.42106">
        <ele>341.3</ele>
        <time>2013-02-17T10:55:58Z</time>
      </trkpt>
      <trkpt lat="50.45136" lon="5.42127">
        <ele>341.7</ele>
        <time>2013-02-17T10:56:03Z</time>
      </trkpt>
      <trkpt lat="50.45157" lon="5.42155">
        <ele>343.7</ele>
        <time>2013-02-17T10:56:10Z</time>
      </trkpt>
      <trkpt lat="50.45179" lon="5.42185">
        <ele>346.1</ele>
        <time>2013-02-17T10:56:17Z</time>
      </trkpt>
      <trkpt lat="50.45195" lon="5.42206">
        <ele>345.6</ele>
        <time>2013-02-17T10:56:23Z</time>
      </trkpt>
      <trkpt lat="50.45205" lon="5.42227">
        <ele>345.8</ele>
        <time>2013-02-17T10:56:29Z</time>
      </trkpt>
      <trkpt lat="50.45226" lon="5.4225">
        <ele>345.7</ele>
        <time>2013-02-17T10:56:37Z</time>
      </trkpt>
      <trkpt lat="50.45248" lon="5.42274">
        <ele>346.1</ele>
        <time>2013-02-17T10:56:43Z</time>
      </trkpt>
      <trkpt lat="50.45264" lon="5.42297">
        <ele>346.7</ele>
        <time>2013-02-17T10:56:49Z</time>
      </trkpt>
      <trkpt lat="50.45281" lon="5.42317">
        <ele>346.2</ele>
        <time>2013-02-17T10:56:55Z</time>
      </trkpt>
      <trkpt lat="50.45302" lon="5.42349">
        <ele>344.2</ele>
        <time>2013-02-17T10:57:02Z</time>
      </trkpt>
      <trkpt lat="50.45319" lon="5.42402">
        <ele>343</ele>
        <time>2013-02-17T10:57:09Z</time>
      </trkpt>
      <trkpt lat="50.4533" lon="5.42443">
        <ele>342</ele>
        <time>2013-02-17T10:57:15Z</time>
      </trkpt>
      <trkpt lat="50.45344" lon="5.42484">
        <ele>341.8</ele>
        <time>2013-02-17T10:57:20Z</time>
      </trkpt>
      <trkpt lat="50.45348" lon="5.42518">
        <ele>342.6</ele>
        <time>2013-02-17T10:57:25Z</time>
      </trkpt>
      <trkpt lat="50.45365" lon="5.42537">
        <ele>340.6</ele>
        <time>2013-02-17T10:57:30Z</time>
      </trkpt>
      <trkpt lat="50.45389" lon="5.42566">
        <ele>340.4</ele>
        <time>2013-02-17T10:57:37Z</time>
      </trkpt>
      <trkpt lat="50.45395" lon="5.42591">
        <ele>341.8</ele>
        <time>2013-02-17T10:57:40Z</time>
      </trkpt>
      <trkpt lat="50.45395" lon="5.42632">
        <ele>342.7</ele>
        <time>2013-02-17T10:57:43Z</time>
      </trkpt>
      <trkpt lat="50.45401" lon="5.42664">
        <ele>343.4</ele>
        <time>2013-02-17T10:57:47Z</time>
      </trkpt>
      <trkpt lat="50.45416" lon="5.42714">
        <ele>344.2</ele>
        <time>2013-02-17T10:57:54Z</time>
      </trkpt>
      <trkpt lat="50.45442" lon="5.42767">
        <ele>344.2</ele>
        <time>2013-02-17T10:58:02Z</time>
      </trkpt>
      <trkpt lat="50.45458" lon="5.42797">
        <ele>345.5</ele>
        <time>2013-02-17T10:58:08Z</time>
      </trkpt>
      <trkpt lat="50.45473" lon="5.42825">
        <ele>346.6</ele>
        <time>2013-02-17T10:58:13Z</time>
      </trkpt>
      <trkpt lat="50.45496" lon="5.42861">
        <ele>351.8</ele>
        <time>2013-02-17T10:58:20Z</time>
      </trkpt>
      <trkpt lat="50.4552" lon="5.42899">
        <ele>353.2</ele>
        <time>2013-02-17T10:58:26Z</time>
      </trkpt>
      <trkpt lat="50.45542" lon="5.42934">
        <ele>354.4</ele>
        <time>2013-02-17T10:58:32Z</time>
      </trkpt>
      <trkpt lat="50.45564" lon="5.42968">
        <ele>356</ele>
        <time>2013-02-17T10:58:38Z</time>
      </trkpt>
      <trkpt lat="50.45586" lon="5.43004">
        <ele>354.1</ele>
        <time>2013-02-17T10:58:44Z</time>
      </trkpt>
      <trkpt lat="50.45606" lon="5.43033">
        <ele>355.1</ele>
        <time>2013-02-17T10:58:50Z</time>
      </trkpt>
      <trkpt lat="50.45629" lon="5.43072">
        <ele>352</ele>
        <time>2013-02-17T10:58:55Z</time>
      </trkpt>
      <trkpt lat="50.45651" lon="5.43112">
        <ele>348.3</ele>
        <time>2013-02-17T10:59:01Z</time>
      </trkpt>
      <trkpt lat="50.45675" lon="5.43146">
        <ele>347.4</ele>
        <time>2013-02-17T10:59:07Z</time>
      </trkpt>
      <trkpt lat="50.45697" lon="5.4318">
        <ele>347.9</ele>
        <time>2013-02-17T10:59:13Z</time>
      </trkpt>
      <trkpt lat="50.45716" lon="5.4322">
        <ele>346.9</ele>
        <time>2013-02-17T10:59:20Z</time>
      </trkpt>
      <trkpt lat="50.45731" lon="5.43258">
        <ele>344.5</ele>
        <time>2013-02-17T10:59:26Z</time>
      </trkpt>
      <trkpt lat="50.45747" lon="5.43297">
        <ele>349.8</ele>
        <time>2013-02-17T10:59:33Z</time>
      </trkpt>
      <trkpt lat="50.45763" lon="5.43327">
        <ele>348.9</ele>
        <time>2013-02-17T10:59:38Z</time>
      </trkpt>
      <trkpt lat="50.45782" lon="5.43352">
        <ele>350.9</ele>
        <time>2013-02-17T10:59:43Z</time>
      </trkpt>
      <trkpt lat="50.45792" lon="5.43368">
        <ele>352.2</ele>
        <time>2013-02-17T10:59:47Z</time>
      </trkpt>
      <trkpt lat="50.45813" lon="5.43395">
        <ele>349.8</ele>
        <time>2013-02-17T10:59:52Z</time>
      </trkpt>
      <trkpt lat="50.45835" lon="5.43424">
        <ele>349.3</ele>
        <time>2013-02-17T10:59:58Z</time>
      </trkpt>
      <trkpt lat="50.45851" lon="5.43447">
        <ele>349.1</ele>
        <time>2013-02-17T11:00:04Z</time>
      </trkpt>
      <trkpt lat="50.4586" lon="5.4346">
        <ele>349.5</ele>
        <time>2013-02-17T11:00:06Z</time>
      </trkpt>
      <trkpt lat="50.45872" lon="5.43474">
        <ele>350.5</ele>
        <time>2013-02-17T11:00:10Z</time>
      </trkpt>
      <trkpt lat="50.45887" lon="5.43496">
        <ele>347.4</ele>
        <time>2013-02-17T11:00:15Z</time>
      </trkpt>
      <trkpt lat="50.4592" lon="5.43544">
        <ele>347.3</ele>
        <time>2013-02-17T11:00:26Z</time>
      </trkpt>
      <trkpt lat="50.45937" lon="5.43574">
        <ele>348</ele>
        <time>2013-02-17T11:00:31Z</time>
      </trkpt>
      <trkpt lat="50.45955" lon="5.43612">
        <ele>350.1</ele>
        <time>2013-02-17T11:00:36Z</time>
      </trkpt>
      <trkpt lat="50.45972" lon="5.43656">
        <ele>349.6</ele>
        <time>2013-02-17T11:00:42Z</time>
      </trkpt>
      <trkpt lat="50.45986" lon="5.437">
        <ele>348.8</ele>
        <time>2013-02-17T11:00:48Z</time>
      </trkpt>
      <trkpt lat="50.46008" lon="5.43754">
        <ele>349.3</ele>
        <time>2013-02-17T11:00:53Z</time>
      </trkpt>
      <trkpt lat="50.46025" lon="5.43801">
        <ele>348.6</ele>
        <time>2013-02-17T11:00:58Z</time>
      </trkpt>
      <trkpt lat="50.46047" lon="5.43863">
        <ele>346.6</ele>
        <time>2013-02-17T11:01:04Z</time>
      </trkpt>
      <trkpt lat="50.46068" lon="5.4392">
        <ele>346.5</ele>
        <time>2013-02-17T11:01:11Z</time>
      </trkpt>
      <trkpt lat="50.46092" lon="5.43977">
        <ele>346.4</ele>
        <time>2013-02-17T11:01:16Z</time>
      </trkpt>
      <trkpt lat="50.4611" lon="5.44016">
        <ele>346.3</ele>
        <time>2013-02-17T11:01:21Z</time>
      </trkpt>
      <trkpt lat="50.46132" lon="5.44067">
        <ele>345.6</ele>
        <time>2013-02-17T11:01:27Z</time>
      </trkpt>
      <trkpt lat="50.46154" lon="5.44117">
        <ele>346.1</ele>
        <time>2013-02-17T11:01:33Z</time>
      </trkpt>
      <trkpt lat="50.46181" lon="5.44166">
        <ele>347.7</ele>
        <time>2013-02-17T11:01:39Z</time>
      </trkpt>
      <trkpt lat="50.46198" lon="5.44207">
        <ele>349</ele>
        <time>2013-02-17T11:01:44Z</time>
      </trkpt>
      <trkpt lat="50.46221" lon="5.44254">
        <ele>350</ele>
        <time>2013-02-17T11:01:50Z</time>
      </trkpt>
      <trkpt lat="50.46237" lon="5.44301">
        <ele>348</ele>
        <time>2013-02-17T11:01:56Z</time>
      </trkpt>
      <trkpt lat="50.46253" lon="5.44337">
        <ele>346</ele>
        <time>2013-02-17T11:02:01Z</time>
      </trkpt>
      <trkpt lat="50.46267" lon="5.44377">
        <ele>344.8</ele>
        <time>2013-02-17T11:02:07Z</time>
      </trkpt>
      <trkpt lat="50.4629" lon="5.44433">
        <ele>345.4</ele>
        <time>2013-02-17T11:02:14Z</time>
      </trkpt>
      <trkpt lat="50.46316" lon="5.44485">
        <ele>343.3</ele>
        <time>2013-02-17T11:02:22Z</time>
      </trkpt>
      <trkpt lat="50.46339" lon="5.44528">
        <ele>340.5</ele>
        <time>2013-02-17T11:02:27Z</time>
      </trkpt>
      <trkpt lat="50.46353" lon="5.44562">
        <ele>339.8</ele>
        <time>2013-02-17T11:02:33Z</time>
      </trkpt>
      <trkpt lat="50.46366" lon="5.44608">
        <ele>340.3</ele>
        <time>2013-02-17T11:02:39Z</time>
      </trkpt>
      <trkpt lat="50.46383" lon="5.44653">
        <ele>339.6</ele>
        <time>2013-02-17T11:02:45Z</time>
      </trkpt>
      <trkpt lat="50.46391" lon="5.44685">
        <ele>339.6</ele>
        <time>2013-02-17T11:02:49Z</time>
      </trkpt>
      <trkpt lat="50.4642" lon="5.44732">
        <ele>340.1</ele>
        <time>2013-02-17T11:02:55Z</time>
      </trkpt>
      <trkpt lat="50.46435" lon="5.44776">
        <ele>340.8</ele>
        <time>2013-02-17T11:03:02Z</time>
      </trkpt>
      <trkpt lat="50.46448" lon="5.44808">
        <ele>343.1</ele>
        <time>2013-02-17T11:03:08Z</time>
      </trkpt>
      <trkpt lat="50.46459" lon="5.44842">
        <ele>342.9</ele>
        <time>2013-02-17T11:03:14Z</time>
      </trkpt>
      <trkpt lat="50.46467" lon="5.44878">
        <ele>342.2</ele>
        <time>2013-02-17T11:03:19Z</time>
      </trkpt>
      <trkpt lat="50.4647" lon="5.44906">
        <ele>341</ele>
        <time>2013-02-17T11:03:24Z</time>
      </trkpt>
      <trkpt lat="50.46474" lon="5.44927">
        <ele>340.9</ele>
        <time>2013-02-17T11:03:28Z</time>
      </trkpt>
      <trkpt lat="50.46485" lon="5.44977">
        <ele>342.8</ele>
        <time>2013-02-17T11:03:35Z</time>
      </trkpt>
      <trkpt lat="50.46511" lon="5.45045">
        <ele>341.5</ele>
        <time>2013-02-17T11:03:41Z</time>
      </trkpt>
      <trkpt lat="50.46521" lon="5.45087">
        <ele>344</ele>
        <time>2013-02-17T11:03:47Z</time>
      </trkpt>
      <trkpt lat="50.46533" lon="5.4513">
        <ele>343.4</ele>
        <time>2013-02-17T11:03:53Z</time>
      </trkpt>
      <trkpt lat="50.46546" lon="5.45168">
        <ele>345</ele>
        <time>2013-02-17T11:03:58Z</time>
      </trkpt>
      <trkpt lat="50.46563" lon="5.45223">
        <ele>345.2</ele>
        <time>2013-02-17T11:04:05Z</time>
      </trkpt>
      <trkpt lat="50.46572" lon="5.45259">
        <ele>344</ele>
        <time>2013-02-17T11:04:10Z</time>
      </trkpt>
      <trkpt lat="50.46585" lon="5.45301">
        <ele>342.4</ele>
        <time>2013-02-17T11:04:15Z</time>
      </trkpt>
      <trkpt lat="50.46599" lon="5.45345">
        <ele>341.2</ele>
        <time>2013-02-17T11:04:21Z</time>
      </trkpt>
      <trkpt lat="50.46607" lon="5.45381">
        <ele>341.5</ele>
        <time>2013-02-17T11:04:26Z</time>
      </trkpt>
      <trkpt lat="50.46613" lon="5.45405">
        <ele>341.2</ele>
        <time>2013-02-17T11:04:29Z</time>
      </trkpt>
      <trkpt lat="50.46623" lon="5.4545">
        <ele>340.2</ele>
        <time>2013-02-17T11:04:35Z</time>
      </trkpt>
      <trkpt lat="50.46633" lon="5.45496">
        <ele>341.9</ele>
        <time>2013-02-17T11:04:41Z</time>
      </trkpt>
      <trkpt lat="50.46642" lon="5.45532">
        <ele>342.3</ele>
        <time>2013-02-17T11:04:46Z</time>
      </trkpt>
      <trkpt lat="50.46649" lon="5.45556">
        <ele>342.3</ele>
        <time>2013-02-17T11:04:49Z</time>
      </trkpt>
      <trkpt lat="50.46663" lon="5.45605">
        <ele>340.9</ele>
        <time>2013-02-17T11:04:55Z</time>
      </trkpt>
      <trkpt lat="50.46676" lon="5.45655">
        <ele>340.3</ele>
        <time>2013-02-17T11:05:01Z</time>
      </trkpt>
      <trkpt lat="50.46682" lon="5.45679">
        <ele>339.9</ele>
        <time>2013-02-17T11:05:04Z</time>
      </trkpt>
      <trkpt lat="50.46693" lon="5.45718">
        <ele>339.5</ele>
        <time>2013-02-17T11:05:09Z</time>
      </trkpt>
      <trkpt lat="50.46706" lon="5.45765">
        <ele>339</ele>
        <time>2013-02-17T11:05:15Z</time>
      </trkpt>
      <trkpt lat="50.4672" lon="5.45809">
        <ele>339.6</ele>
        <time>2013-02-17T11:05:21Z</time>
      </trkpt>
      <trkpt lat="50.4673" lon="5.45847">
        <ele>341.1</ele>
        <time>2013-02-17T11:05:26Z</time>
      </trkpt>
      <trkpt lat="50.46743" lon="5.45893">
        <ele>341.2</ele>
        <time>2013-02-17T11:05:32Z</time>
      </trkpt>
      <trkpt lat="50.46754" lon="5.45931">
        <ele>340.8</ele>
        <time>2013-02-17T11:05:38Z</time>
      </trkpt>
      <trkpt lat="50.46765" lon="5.45975">
        <ele>340.4</ele>
        <time>2013-02-17T11:05:44Z</time>
      </trkpt>
      <trkpt lat="50.46777" lon="5.46032">
        <ele>341.7</ele>
        <time>2013-02-17T11:05:51Z</time>
      </trkpt>
      <trkpt lat="50.46787" lon="5.4607">
        <ele>341.8</ele>
        <time>2013-02-17T11:05:57Z</time>
      </trkpt>
      <trkpt lat="50.46796" lon="5.46105">
        <ele>341</ele>
        <time>2013-02-17T11:06:02Z</time>
      </trkpt>
      <trkpt lat="50.46802" lon="5.46152">
        <ele>341.3</ele>
        <time>2013-02-17T11:06:07Z</time>
      </trkpt>
      <trkpt lat="50.46807" lon="5.46181">
        <ele>341.5</ele>
        <time>2013-02-17T11:06:10Z</time>
      </trkpt>
      <trkpt lat="50.46816" lon="5.46233">
        <ele>340.8</ele>
        <time>2013-02-17T11:06:16Z</time>
      </trkpt>
      <trkpt lat="50.46816" lon="5.46272">
        <ele>340.2</ele>
        <time>2013-02-17T11:06:21Z</time>
      </trkpt>
      <trkpt lat="50.46825" lon="5.46307">
        <ele>340.2</ele>
        <time>2013-02-17T11:06:27Z</time>
      </trkpt>
      <trkpt lat="50.46829" lon="5.46338">
        <ele>339.5</ele>
        <time>2013-02-17T11:06:33Z</time>
      </trkpt>
      <trkpt lat="50.46836" lon="5.4638">
        <ele>339.7</ele>
        <time>2013-02-17T11:06:39Z</time>
      </trkpt>
      <trkpt lat="50.46841" lon="5.46425">
        <ele>338.5</ele>
        <time>2013-02-17T11:06:45Z</time>
      </trkpt>
      <trkpt lat="50.46847" lon="5.46486">
        <ele>338.4</ele>
        <time>2013-02-17T11:06:50Z</time>
      </trkpt>
      <trkpt lat="50.46851" lon="5.46548">
        <ele>337.2</ele>
        <time>2013-02-17T11:06:56Z</time>
      </trkpt>
      <trkpt lat="50.4686" lon="5.46571">
        <ele>336.2</ele>
        <time>2013-02-17T11:06:59Z</time>
      </trkpt>
      <trkpt lat="50.46863" lon="5.466">
        <ele>337.4</ele>
        <time>2013-02-17T11:07:02Z</time>
      </trkpt>
      <trkpt lat="50.46872" lon="5.46656">
        <ele>338.6</ele>
        <time>2013-02-17T11:07:08Z</time>
      </trkpt>
      <trkpt lat="50.46876" lon="5.46679">
        <ele>339.6</ele>
        <time>2013-02-17T11:07:11Z</time>
      </trkpt>
      <trkpt lat="50.46883" lon="5.46721">
        <ele>342.4</ele>
        <time>2013-02-17T11:07:16Z</time>
      </trkpt>
      <trkpt lat="50.46891" lon="5.46751">
        <ele>341.3</ele>
        <time>2013-02-17T11:07:22Z</time>
      </trkpt>
      <trkpt lat="50.469" lon="5.46781">
        <ele>335.5</ele>
        <time>2013-02-17T11:07:27Z</time>
      </trkpt>
      <trkpt lat="50.4691" lon="5.46824">
        <ele>334.1</ele>
        <time>2013-02-17T11:07:32Z</time>
      </trkpt>
      <trkpt lat="50.46916" lon="5.46846">
        <ele>332.8</ele>
        <time>2013-02-17T11:07:35Z</time>
      </trkpt>
      <trkpt lat="50.46927" lon="5.46886">
        <ele>331.7</ele>
        <time>2013-02-17T11:07:41Z</time>
      </trkpt>
      <trkpt lat="50.46942" lon="5.46923">
        <ele>335</ele>
        <time>2013-02-17T11:07:46Z</time>
      </trkpt>
      <trkpt lat="50.46963" lon="5.46967">
        <ele>334.2</ele>
        <time>2013-02-17T11:07:52Z</time>
      </trkpt>
      <trkpt lat="50.46979" lon="5.47001">
        <ele>332.6</ele>
        <time>2013-02-17T11:07:55Z</time>
      </trkpt>
      <trkpt lat="50.46989" lon="5.47025">
        <ele>331.6</ele>
        <time>2013-02-17T11:07:58Z</time>
      </trkpt>
      <trkpt lat="50.4701" lon="5.47076">
        <ele>331.4</ele>
        <time>2013-02-17T11:08:04Z</time>
      </trkpt>
      <trkpt lat="50.47024" lon="5.47117">
        <ele>331.5</ele>
        <time>2013-02-17T11:08:09Z</time>
      </trkpt>
      <trkpt lat="50.47036" lon="5.47148">
        <ele>332.2</ele>
        <time>2013-02-17T11:08:13Z</time>
      </trkpt>
      <trkpt lat="50.47053" lon="5.4719">
        <ele>331.7</ele>
        <time>2013-02-17T11:08:18Z</time>
      </trkpt>
      <trkpt lat="50.47069" lon="5.47236">
        <ele>332.6</ele>
        <time>2013-02-17T11:08:24Z</time>
      </trkpt>
      <trkpt lat="50.47084" lon="5.4728">
        <ele>333.2</ele>
        <time>2013-02-17T11:08:30Z</time>
      </trkpt>
      <trkpt lat="50.47106" lon="5.47333">
        <ele>334.4</ele>
        <time>2013-02-17T11:08:37Z</time>
      </trkpt>
      <trkpt lat="50.47123" lon="5.47375">
        <ele>334.3</ele>
        <time>2013-02-17T11:08:42Z</time>
      </trkpt>
      <trkpt lat="50.47135" lon="5.47419">
        <ele>334.4</ele>
        <time>2013-02-17T11:08:48Z</time>
      </trkpt>
      <trkpt lat="50.47141" lon="5.4745">
        <ele>334.2</ele>
        <time>2013-02-17T11:08:52Z</time>
      </trkpt>
      <trkpt lat="50.4715" lon="5.47493">
        <ele>332.9</ele>
        <time>2013-02-17T11:08:58Z</time>
      </trkpt>
      <trkpt lat="50.47174" lon="5.47543">
        <ele>332.7</ele>
        <time>2013-02-17T11:09:04Z</time>
      </trkpt>
      <trkpt lat="50.47183" lon="5.47575">
        <ele>332.6</ele>
        <time>2013-02-17T11:09:09Z</time>
      </trkpt>
      <trkpt lat="50.47199" lon="5.47616">
        <ele>332.7</ele>
        <time>2013-02-17T11:09:16Z</time>
      </trkpt>
      <trkpt lat="50.47215" lon="5.47642">
        <ele>331.3</ele>
        <time>2013-02-17T11:09:21Z</time>
      </trkpt>
      <trkpt lat="50.47228" lon="5.47667">
        <ele>329.9</ele>
        <time>2013-02-17T11:09:26Z</time>
      </trkpt>
      <trkpt lat="50.47241" lon="5.47693">
        <ele>328.7</ele>
        <time>2013-02-17T11:09:32Z</time>
      </trkpt>
      <trkpt lat="50.47258" lon="5.47724">
        <ele>322.9</ele>
        <time>2013-02-17T11:09:38Z</time>
      </trkpt>
      <trkpt lat="50.47275" lon="5.47762">
        <ele>318.4</ele>
        <time>2013-02-17T11:09:43Z</time>
      </trkpt>
      <trkpt lat="50.47296" lon="5.47828">
        <ele>318.1</ele>
        <time>2013-02-17T11:09:48Z</time>
      </trkpt>
      <trkpt lat="50.47313" lon="5.47877">
        <ele>320</ele>
        <time>2013-02-17T11:09:54Z</time>
      </trkpt>
      <trkpt lat="50.47322" lon="5.479">
        <ele>322</ele>
        <time>2013-02-17T11:09:57Z</time>
      </trkpt>
      <trkpt lat="50.47333" lon="5.47924">
        <ele>323.8</ele>
        <time>2013-02-17T11:10:01Z</time>
      </trkpt>
      <trkpt lat="50.4735" lon="5.47942">
        <ele>323.4</ele>
        <time>2013-02-17T11:10:05Z</time>
      </trkpt>
      <trkpt lat="50.47366" lon="5.47967">
        <ele>322.2</ele>
        <time>2013-02-17T11:10:11Z</time>
      </trkpt>
      <trkpt lat="50.47378" lon="5.47994">
        <ele>322.6</ele>
        <time>2013-02-17T11:10:16Z</time>
      </trkpt>
      <trkpt lat="50.47398" lon="5.48027">
        <ele>324.4</ele>
        <time>2013-02-17T11:10:22Z</time>
      </trkpt>
      <trkpt lat="50.47406" lon="5.48046">
        <ele>325.3</ele>
        <time>2013-02-17T11:10:25Z</time>
      </trkpt>
      <trkpt lat="50.47416" lon="5.48078">
        <ele>327.7</ele>
        <time>2013-02-17T11:10:30Z</time>
      </trkpt>
      <trkpt lat="50.47424" lon="5.48096">
        <ele>327.9</ele>
        <time>2013-02-17T11:10:33Z</time>
      </trkpt>
      <trkpt lat="50.47431" lon="5.48114">
        <ele>329.2</ele>
        <time>2013-02-17T11:10:36Z</time>
      </trkpt>
      <trkpt lat="50.47436" lon="5.48131">
        <ele>329.9</ele>
        <time>2013-02-17T11:10:39Z</time>
      </trkpt>
      <trkpt lat="50.47447" lon="5.4816">
        <ele>330.6</ele>
        <time>2013-02-17T11:10:44Z</time>
      </trkpt>
      <trkpt lat="50.47467" lon="5.48191">
        <ele>330.6</ele>
        <time>2013-02-17T11:10:50Z</time>
      </trkpt>
      <trkpt lat="50.47481" lon="5.48222">
        <ele>328.7</ele>
        <time>2013-02-17T11:10:56Z</time>
      </trkpt>
      <trkpt lat="50.4749" lon="5.48252">
        <ele>329.6</ele>
        <time>2013-02-17T11:11:01Z</time>
      </trkpt>
      <trkpt lat="50.47505" lon="5.48286">
        <ele>330.3</ele>
        <time>2013-02-17T11:11:07Z</time>
      </trkpt>
      <trkpt lat="50.47517" lon="5.48315">
        <ele>332.6</ele>
        <time>2013-02-17T11:11:12Z</time>
      </trkpt>
      <trkpt lat="50.47532" lon="5.48353">
        <ele>333.3</ele>
        <time>2013-02-17T11:11:18Z</time>
      </trkpt>
      <trkpt lat="50.4754" lon="5.48372">
        <ele>334.9</ele>
        <time>2013-02-17T11:11:21Z</time>
      </trkpt>
      <trkpt lat="50.47553" lon="5.48403">
        <ele>334.9</ele>
        <time>2013-02-17T11:11:26Z</time>
      </trkpt>
      <trkpt lat="50.47568" lon="5.48438">
        <ele>335.2</ele>
        <time>2013-02-17T11:11:32Z</time>
      </trkpt>
      <trkpt lat="50.47578" lon="5.4847">
        <ele>334.3</ele>
        <time>2013-02-17T11:11:37Z</time>
      </trkpt>
      <trkpt lat="50.47593" lon="5.48504">
        <ele>335.2</ele>
        <time>2013-02-17T11:11:43Z</time>
      </trkpt>
      <trkpt lat="50.47601" lon="5.48526">
        <ele>334.5</ele>
        <time>2013-02-17T11:11:46Z</time>
      </trkpt>
      <trkpt lat="50.47608" lon="5.48546">
        <ele>335.1</ele>
        <time>2013-02-17T11:11:49Z</time>
      </trkpt>
      <trkpt lat="50.47618" lon="5.48566">
        <ele>334.7</ele>
        <time>2013-02-17T11:11:52Z</time>
      </trkpt>
      <trkpt lat="50.4763" lon="5.48597">
        <ele>333.8</ele>
        <time>2013-02-17T11:11:57Z</time>
      </trkpt>
      <trkpt lat="50.47643" lon="5.4863">
        <ele>334.3</ele>
        <time>2013-02-17T11:12:02Z</time>
      </trkpt>
      <trkpt lat="50.47655" lon="5.4866">
        <ele>335.7</ele>
        <time>2013-02-17T11:12:07Z</time>
      </trkpt>
      <trkpt lat="50.47673" lon="5.48709">
        <ele>335.8</ele>
        <time>2013-02-17T11:12:14Z</time>
      </trkpt>
      <trkpt lat="50.47688" lon="5.48751">
        <ele>335.6</ele>
        <time>2013-02-17T11:12:20Z</time>
      </trkpt>
      <trkpt lat="50.47701" lon="5.48786">
        <ele>335.2</ele>
        <time>2013-02-17T11:12:26Z</time>
      </trkpt>
      <trkpt lat="50.47713" lon="5.48821">
        <ele>335</ele>
        <time>2013-02-17T11:12:31Z</time>
      </trkpt>
      <trkpt lat="50.47728" lon="5.48855">
        <ele>335.1</ele>
        <time>2013-02-17T11:12:36Z</time>
      </trkpt>
      <trkpt lat="50.47747" lon="5.48897">
        <ele>334</ele>
        <time>2013-02-17T11:12:43Z</time>
      </trkpt>
      <trkpt lat="50.47762" lon="5.48935">
        <ele>335.8</ele>
        <time>2013-02-17T11:12:49Z</time>
      </trkpt>
      <trkpt lat="50.47787" lon="5.48971">
        <ele>339.2</ele>
        <time>2013-02-17T11:12:54Z</time>
      </trkpt>
      <trkpt lat="50.4781" lon="5.49009">
        <ele>337.7</ele>
        <time>2013-02-17T11:13:02Z</time>
      </trkpt>
      <trkpt lat="50.4782" lon="5.49023">
        <ele>338.4</ele>
        <time>2013-02-17T11:13:05Z</time>
      </trkpt>
      <trkpt lat="50.47836" lon="5.49046">
        <ele>338.5</ele>
        <time>2013-02-17T11:13:09Z</time>
      </trkpt>
      <trkpt lat="50.47848" lon="5.49069">
        <ele>339.4</ele>
        <time>2013-02-17T11:13:13Z</time>
      </trkpt>
      <trkpt lat="50.47867" lon="5.49099">
        <ele>339.3</ele>
        <time>2013-02-17T11:13:19Z</time>
      </trkpt>
      <trkpt lat="50.47881" lon="5.49136">
        <ele>339.4</ele>
        <time>2013-02-17T11:13:26Z</time>
      </trkpt>
      <trkpt lat="50.47906" lon="5.4918">
        <ele>338.4</ele>
        <time>2013-02-17T11:13:33Z</time>
      </trkpt>
      <trkpt lat="50.47926" lon="5.49218">
        <ele>340.3</ele>
        <time>2013-02-17T11:13:39Z</time>
      </trkpt>
      <trkpt lat="50.47937" lon="5.49246">
        <ele>338.5</ele>
        <time>2013-02-17T11:13:44Z</time>
      </trkpt>
      <trkpt lat="50.47948" lon="5.49277">
        <ele>338</ele>
        <time>2013-02-17T11:13:49Z</time>
      </trkpt>
      <trkpt lat="50.47966" lon="5.49312">
        <ele>336.4</ele>
        <time>2013-02-17T11:13:55Z</time>
      </trkpt>
      <trkpt lat="50.4798" lon="5.49342">
        <ele>334.8</ele>
        <time>2013-02-17T11:14:00Z</time>
      </trkpt>
      <trkpt lat="50.47997" lon="5.49376">
        <ele>335.1</ele>
        <time>2013-02-17T11:14:06Z</time>
      </trkpt>
      <trkpt lat="50.48023" lon="5.49421">
        <ele>336.7</ele>
        <time>2013-02-17T11:14:12Z</time>
      </trkpt>
      <trkpt lat="50.48041" lon="5.49454">
        <ele>336.9</ele>
        <time>2013-02-17T11:14:17Z</time>
      </trkpt>
      <trkpt lat="50.48056" lon="5.49494">
        <ele>335.6</ele>
        <time>2013-02-17T11:14:23Z</time>
      </trkpt>
      <trkpt lat="50.48071" lon="5.49526">
        <ele>335.4</ele>
        <time>2013-02-17T11:14:28Z</time>
      </trkpt>
      <trkpt lat="50.48107" lon="5.49575">
        <ele>336</ele>
        <time>2013-02-17T11:14:35Z</time>
      </trkpt>
      <trkpt lat="50.48139" lon="5.49625">
        <ele>335.7</ele>
        <time>2013-02-17T11:14:41Z</time>
      </trkpt>
      <trkpt lat="50.4818" lon="5.4967">
        <ele>337.4</ele>
        <time>2013-02-17T11:14:47Z</time>
      </trkpt>
      <trkpt lat="50.48195" lon="5.49699">
        <ele>337.1</ele>
        <time>2013-02-17T11:14:50Z</time>
      </trkpt>
      <trkpt lat="50.48221" lon="5.49736">
        <ele>334.2</ele>
        <time>2013-02-17T11:14:54Z</time>
      </trkpt>
      <trkpt lat="50.48253" lon="5.49786">
        <ele>333.7</ele>
        <time>2013-02-17T11:14:59Z</time>
      </trkpt>
      <trkpt lat="50.483" lon="5.49853">
        <ele>333.9</ele>
        <time>2013-02-17T11:15:06Z</time>
      </trkpt>
      <trkpt lat="50.4834" lon="5.49913">
        <ele>333.2</ele>
        <time>2013-02-17T11:15:12Z</time>
      </trkpt>
      <trkpt lat="50.48368" lon="5.49962">
        <ele>332.1</ele>
        <time>2013-02-17T11:15:17Z</time>
      </trkpt>
      <trkpt lat="50.48401" lon="5.50022">
        <ele>331.5</ele>
        <time>2013-02-17T11:15:23Z</time>
      </trkpt>
      <trkpt lat="50.48416" lon="5.50077">
        <ele>329.9</ele>
        <time>2013-02-17T11:15:29Z</time>
      </trkpt>
      <trkpt lat="50.48436" lon="5.5012">
        <ele>327.3</ele>
        <time>2013-02-17T11:15:35Z</time>
      </trkpt>
      <trkpt lat="50.48448" lon="5.50143">
        <ele>327.1</ele>
        <time>2013-02-17T11:15:39Z</time>
      </trkpt>
      <trkpt lat="50.48461" lon="5.50158">
        <ele>326.3</ele>
        <time>2013-02-17T11:15:43Z</time>
      </trkpt>
      <trkpt lat="50.48484" lon="5.50185">
        <ele>325</ele>
        <time>2013-02-17T11:15:50Z</time>
      </trkpt>
      <trkpt lat="50.48505" lon="5.50205">
        <ele>324</ele>
        <time>2013-02-17T11:15:56Z</time>
      </trkpt>
      <trkpt lat="50.48523" lon="5.50225">
        <ele>324.3</ele>
        <time>2013-02-17T11:16:02Z</time>
      </trkpt>
      <trkpt lat="50.48537" lon="5.50248">
        <ele>324.4</ele>
        <time>2013-02-17T11:16:07Z</time>
      </trkpt>
      <trkpt lat="50.48557" lon="5.50271">
        <ele>324</ele>
        <time>2013-02-17T11:16:12Z</time>
      </trkpt>
      <trkpt lat="50.48587" lon="5.50303">
        <ele>326.2</ele>
        <time>2013-02-17T11:16:18Z</time>
      </trkpt>
      <trkpt lat="50.48597" lon="5.50333">
        <ele>325.5</ele>
        <time>2013-02-17T11:16:23Z</time>
      </trkpt>
      <trkpt lat="50.4861" lon="5.50363">
        <ele>325.7</ele>
        <time>2013-02-17T11:16:29Z</time>
      </trkpt>
      <trkpt lat="50.48638" lon="5.50385">
        <ele>323.6</ele>
        <time>2013-02-17T11:16:36Z</time>
      </trkpt>
      <trkpt lat="50.48658" lon="5.50386">
        <ele>324.3</ele>
        <time>2013-02-17T11:16:41Z</time>
      </trkpt>
      <trkpt lat="50.48675" lon="5.50374">
        <ele>323.7</ele>
        <time>2013-02-17T11:16:48Z</time>
      </trkpt>
      <trkpt lat="50.48676" lon="5.50372">
        <ele>324.1</ele>
        <time>2013-02-17T11:16:49Z</time>
      </trkpt>
      <trkpt lat="50.48676" lon="5.50372">
        <ele>280.6</ele>
        <time>2013-02-17T11:16:57Z</time>
      </trkpt>
      <trkpt lat="50.48676" lon="5.50372">
        <ele>280.6</ele>
        <time>2013-02-17T11:17:10Z</time>
      </trkpt>
      <trkpt lat="50.4867" lon="5.50408">
        <ele>323.4</ele>
        <time>2013-02-17T11:17:10Z</time>
      </trkpt>
      <trkpt lat="50.4868" lon="5.50445">
        <ele>322.1</ele>
        <time>2013-02-17T11:17:16Z</time>
      </trkpt>
      <trkpt lat="50.48692" lon="5.50468">
        <ele>322.9</ele>
        <time>2013-02-17T11:17:21Z</time>
      </trkpt>
      <trkpt lat="50.487" lon="5.50485">
        <ele>322.7</ele>
        <time>2013-02-17T11:17:25Z</time>
      </trkpt>
      <trkpt lat="50.48704" lon="5.50497">
        <ele>322.7</ele>
        <time>2013-02-17T11:17:28Z</time>
      </trkpt>
      <trkpt lat="50.48719" lon="5.50531">
        <ele>323.8</ele>
        <time>2013-02-17T11:17:36Z</time>
      </trkpt>
      <trkpt lat="50.48733" lon="5.5056">
        <ele>324.5</ele>
        <time>2013-02-17T11:17:43Z</time>
      </trkpt>
      <trkpt lat="50.48741" lon="5.50574">
        <ele>324.3</ele>
        <time>2013-02-17T11:17:47Z</time>
      </trkpt>
      <trkpt lat="50.48749" lon="5.5059">
        <ele>323.2</ele>
        <time>2013-02-17T11:17:53Z</time>
      </trkpt>
      <trkpt lat="50.48763" lon="5.50627">
        <ele>322.2</ele>
        <time>2013-02-17T11:18:04Z</time>
      </trkpt>
      <trkpt lat="50.48772" lon="5.50659">
        <ele>326.6</ele>
        <time>2013-02-17T11:18:12Z</time>
      </trkpt>
      <trkpt lat="50.48777" lon="5.50677">
        <ele>323.3</ele>
        <time>2013-02-17T11:18:19Z</time>
      </trkpt>
      <trkpt lat="50.48777" lon="5.50686">
        <ele>322.4</ele>
        <time>2013-02-17T11:18:24Z</time>
      </trkpt>
      <trkpt lat="50.48777" lon="5.50686">
        <ele>284.6</ele>
        <time>2013-02-17T11:18:30Z</time>
      </trkpt>
      <trkpt lat="50.48777" lon="5.50686">
        <ele>284.6</ele>
        <time>2013-02-17T11:18:42Z</time>
      </trkpt>
      <trkpt lat="50.48772" lon="5.50664">
        <ele>322</ele>
        <time>2013-02-17T11:18:42Z</time>
      </trkpt>
      <trkpt lat="50.4876" lon="5.50627">
        <ele>322.6</ele>
        <time>2013-02-17T11:18:48Z</time>
      </trkpt>
      <trkpt lat="50.48745" lon="5.50569">
        <ele>327.1</ele>
        <time>2013-02-17T11:18:53Z</time>
      </trkpt>
      <trkpt lat="50.48724" lon="5.50528">
        <ele>327.9</ele>
        <time>2013-02-17T11:18:59Z</time>
      </trkpt>
      <trkpt lat="50.48705" lon="5.50493">
        <ele>328.7</ele>
        <time>2013-02-17T11:19:04Z</time>
      </trkpt>
      <trkpt lat="50.48684" lon="5.5046">
        <ele>329</ele>
        <time>2013-02-17T11:19:09Z</time>
      </trkpt>
      <trkpt lat="50.48668" lon="5.50434">
        <ele>328.1</ele>
        <time>2013-02-17T11:19:13Z</time>
      </trkpt>
      <trkpt lat="50.48664" lon="5.50412">
        <ele>328.3</ele>
        <time>2013-02-17T11:19:16Z</time>
      </trkpt>
      <trkpt lat="50.48672" lon="5.50372">
        <ele>326.6</ele>
        <time>2013-02-17T11:19:22Z</time>
      </trkpt>
      <trkpt lat="50.48687" lon="5.50343">
        <ele>326</ele>
        <time>2013-02-17T11:19:28Z</time>
      </trkpt>
      <trkpt lat="50.48699" lon="5.50304">
        <ele>325.6</ele>
        <time>2013-02-17T11:19:35Z</time>
      </trkpt>
      <trkpt lat="50.48705" lon="5.50262">
        <ele>324.1</ele>
        <time>2013-02-17T11:19:40Z</time>
      </trkpt>
      <trkpt lat="50.48712" lon="5.50201">
        <ele>322</ele>
        <time>2013-02-17T11:19:47Z</time>
      </trkpt>
      <trkpt lat="50.48747" lon="5.50143">
        <ele>319.1</ele>
        <time>2013-02-17T11:19:54Z</time>
      </trkpt>
      <trkpt lat="50.48784" lon="5.50138">
        <ele>321.5</ele>
        <time>2013-02-17T11:20:00Z</time>
      </trkpt>
      <trkpt lat="50.48811" lon="5.50111">
        <ele>321.3</ele>
        <time>2013-02-17T11:20:06Z</time>
      </trkpt>
      <trkpt lat="50.48834" lon="5.50069">
        <ele>321.9</ele>
        <time>2013-02-17T11:20:11Z</time>
      </trkpt>
      <trkpt lat="50.48855" lon="5.50045">
        <ele>322</ele>
        <time>2013-02-17T11:20:16Z</time>
      </trkpt>
      <trkpt lat="50.48898" lon="5.50061">
        <ele>319.6</ele>
        <time>2013-02-17T11:20:21Z</time>
      </trkpt>
      <trkpt lat="50.48938" lon="5.50105">
        <ele>320.1</ele>
        <time>2013-02-17T11:20:27Z</time>
      </trkpt>
      <trkpt lat="50.4896" lon="5.50132">
        <ele>320.2</ele>
        <time>2013-02-17T11:20:30Z</time>
      </trkpt>
      <trkpt lat="50.48978" lon="5.50151">
        <ele>320.7</ele>
        <time>2013-02-17T11:20:33Z</time>
      </trkpt>
      <trkpt lat="50.49004" lon="5.50187">
        <ele>319.9</ele>
        <time>2013-02-17T11:20:39Z</time>
      </trkpt>
      <trkpt lat="50.49027" lon="5.50216">
        <ele>320.4</ele>
        <time>2013-02-17T11:20:44Z</time>
      </trkpt>
      <trkpt lat="50.4906" lon="5.50241">
        <ele>318.8</ele>
        <time>2013-02-17T11:20:50Z</time>
      </trkpt>
      <trkpt lat="50.4909" lon="5.50267">
        <ele>319.5</ele>
        <time>2013-02-17T11:20:55Z</time>
      </trkpt>
      <trkpt lat="50.49121" lon="5.50292">
        <ele>317.2</ele>
        <time>2013-02-17T11:21:00Z</time>
      </trkpt>
      <trkpt lat="50.49155" lon="5.50324">
        <ele>316.4</ele>
        <time>2013-02-17T11:21:06Z</time>
      </trkpt>
      <trkpt lat="50.49186" lon="5.50359">
        <ele>313.3</ele>
        <time>2013-02-17T11:21:11Z</time>
      </trkpt>
      <trkpt lat="50.49218" lon="5.504">
        <ele>311.6</ele>
        <time>2013-02-17T11:21:17Z</time>
      </trkpt>
      <trkpt lat="50.49263" lon="5.50444">
        <ele>309.2</ele>
        <time>2013-02-17T11:21:24Z</time>
      </trkpt>
      <trkpt lat="50.4929" lon="5.50474">
        <ele>308.6</ele>
        <time>2013-02-17T11:21:29Z</time>
      </trkpt>
      <trkpt lat="50.49325" lon="5.50513">
        <ele>308.1</ele>
        <time>2013-02-17T11:21:35Z</time>
      </trkpt>
      <trkpt lat="50.49351" lon="5.50543">
        <ele>307.5</ele>
        <time>2013-02-17T11:21:40Z</time>
      </trkpt>
      <trkpt lat="50.49376" lon="5.50578">
        <ele>309.4</ele>
        <time>2013-02-17T11:21:46Z</time>
      </trkpt>
      <trkpt lat="50.49389" lon="5.50596">
        <ele>309.4</ele>
        <time>2013-02-17T11:21:49Z</time>
      </trkpt>
      <trkpt lat="50.49401" lon="5.50615">
        <ele>310.3</ele>
        <time>2013-02-17T11:21:52Z</time>
      </trkpt>
      <trkpt lat="50.49419" lon="5.50643">
        <ele>309.1</ele>
        <time>2013-02-17T11:21:57Z</time>
      </trkpt>
      <trkpt lat="50.49447" lon="5.5068">
        <ele>308.4</ele>
        <time>2013-02-17T11:22:04Z</time>
      </trkpt>
      <trkpt lat="50.49464" lon="5.5071">
        <ele>307.3</ele>
        <time>2013-02-17T11:22:09Z</time>
      </trkpt>
      <trkpt lat="50.49486" lon="5.50741">
        <ele>306.7</ele>
        <time>2013-02-17T11:22:15Z</time>
      </trkpt>
      <trkpt lat="50.49506" lon="5.50769">
        <ele>305.9</ele>
        <time>2013-02-17T11:22:20Z</time>
      </trkpt>
      <trkpt lat="50.49533" lon="5.5081">
        <ele>304.7</ele>
        <time>2013-02-17T11:22:27Z</time>
      </trkpt>
      <trkpt lat="50.49551" lon="5.50835">
        <ele>305.5</ele>
        <time>2013-02-17T11:22:32Z</time>
      </trkpt>
      <trkpt lat="50.49566" lon="5.50855">
        <ele>304.5</ele>
        <time>2013-02-17T11:22:37Z</time>
      </trkpt>
      <trkpt lat="50.49582" lon="5.5088">
        <ele>305.6</ele>
        <time>2013-02-17T11:22:43Z</time>
      </trkpt>
      <trkpt lat="50.49596" lon="5.50905">
        <ele>305.8</ele>
        <time>2013-02-17T11:22:50Z</time>
      </trkpt>
      <trkpt lat="50.49613" lon="5.50936">
        <ele>306.9</ele>
        <time>2013-02-17T11:22:56Z</time>
      </trkpt>
      <trkpt lat="50.49625" lon="5.50963">
        <ele>305.6</ele>
        <time>2013-02-17T11:23:02Z</time>
      </trkpt>
      <trkpt lat="50.49633" lon="5.50983">
        <ele>307.2</ele>
        <time>2013-02-17T11:23:06Z</time>
      </trkpt>
      <trkpt lat="50.49652" lon="5.51027">
        <ele>306.8</ele>
        <time>2013-02-17T11:23:12Z</time>
      </trkpt>
      <trkpt lat="50.49669" lon="5.51076">
        <ele>306</ele>
        <time>2013-02-17T11:23:19Z</time>
      </trkpt>
      <trkpt lat="50.49677" lon="5.51104">
        <ele>305.3</ele>
        <time>2013-02-17T11:23:24Z</time>
      </trkpt>
      <trkpt lat="50.49688" lon="5.51142">
        <ele>305.6</ele>
        <time>2013-02-17T11:23:30Z</time>
      </trkpt>
      <trkpt lat="50.49702" lon="5.51177">
        <ele>305.4</ele>
        <time>2013-02-17T11:23:35Z</time>
      </trkpt>
      <trkpt lat="50.49724" lon="5.51226">
        <ele>304.3</ele>
        <time>2013-02-17T11:23:40Z</time>
      </trkpt>
      <trkpt lat="50.49764" lon="5.513">
        <ele>305.9</ele>
        <time>2013-02-17T11:23:47Z</time>
      </trkpt>
      <trkpt lat="50.49801" lon="5.51358">
        <ele>306.8</ele>
        <time>2013-02-17T11:23:53Z</time>
      </trkpt>
      <trkpt lat="50.49805" lon="5.5143">
        <ele>304.4</ele>
        <time>2013-02-17T11:23:59Z</time>
      </trkpt>
      <trkpt lat="50.49786" lon="5.51484">
        <ele>302</ele>
        <time>2013-02-17T11:24:04Z</time>
      </trkpt>
      <trkpt lat="50.49777" lon="5.51524">
        <ele>301.7</ele>
        <time>2013-02-17T11:24:08Z</time>
      </trkpt>
      <trkpt lat="50.49778" lon="5.51582">
        <ele>303</ele>
        <time>2013-02-17T11:24:14Z</time>
      </trkpt>
      <trkpt lat="50.498" lon="5.51627">
        <ele>302.7</ele>
        <time>2013-02-17T11:24:20Z</time>
      </trkpt>
      <trkpt lat="50.49834" lon="5.51656">
        <ele>302.2</ele>
        <time>2013-02-17T11:24:25Z</time>
      </trkpt>
      <trkpt lat="50.49866" lon="5.51696">
        <ele>302.8</ele>
        <time>2013-02-17T11:24:30Z</time>
      </trkpt>
      <trkpt lat="50.49892" lon="5.51746">
        <ele>302.5</ele>
        <time>2013-02-17T11:24:35Z</time>
      </trkpt>
      <trkpt lat="50.49909" lon="5.51782">
        <ele>297.5</ele>
        <time>2013-02-17T11:24:40Z</time>
      </trkpt>
      <trkpt lat="50.49923" lon="5.51826">
        <ele>295</ele>
        <time>2013-02-17T11:24:46Z</time>
      </trkpt>
      <trkpt lat="50.49941" lon="5.51877">
        <ele>296.5</ele>
        <time>2013-02-17T11:24:51Z</time>
      </trkpt>
      <trkpt lat="50.49964" lon="5.51926">
        <ele>296.5</ele>
        <time>2013-02-17T11:24:57Z</time>
      </trkpt>
      <trkpt lat="50.49982" lon="5.51969">
        <ele>295</ele>
        <time>2013-02-17T11:25:03Z</time>
      </trkpt>
      <trkpt lat="50.5" lon="5.52009">
        <ele>293.3</ele>
        <time>2013-02-17T11:25:09Z</time>
      </trkpt>
      <trkpt lat="50.50015" lon="5.52049">
        <ele>294.4</ele>
        <time>2013-02-17T11:25:15Z</time>
      </trkpt>
      <trkpt lat="50.50031" lon="5.52076">
        <ele>293.9</ele>
        <time>2013-02-17T11:25:20Z</time>
      </trkpt>
      <trkpt lat="50.5004" lon="5.5213">
        <ele>292.2</ele>
        <time>2013-02-17T11:25:26Z</time>
      </trkpt>
      <trkpt lat="50.50039" lon="5.5216">
        <ele>290.7</ele>
        <time>2013-02-17T11:25:29Z</time>
      </trkpt>
      <trkpt lat="50.50032" lon="5.52248">
        <ele>290.3</ele>
        <time>2013-02-17T11:25:36Z</time>
      </trkpt>
      <trkpt lat="50.50043" lon="5.52324">
        <ele>286.6</ele>
        <time>2013-02-17T11:25:42Z</time>
      </trkpt>
      <trkpt lat="50.50055" lon="5.5235">
        <ele>286.1</ele>
        <time>2013-02-17T11:25:45Z</time>
      </trkpt>
      <trkpt lat="50.50097" lon="5.52414">
        <ele>285.7</ele>
        <time>2013-02-17T11:25:51Z</time>
      </trkpt>
      <trkpt lat="50.5013" lon="5.52461">
        <ele>284.7</ele>
        <time>2013-02-17T11:25:56Z</time>
      </trkpt>
      <trkpt lat="50.50171" lon="5.5251">
        <ele>285.6</ele>
        <time>2013-02-17T11:26:02Z</time>
      </trkpt>
      <trkpt lat="50.50211" lon="5.52562">
        <ele>284.9</ele>
        <time>2013-02-17T11:26:08Z</time>
      </trkpt>
      <trkpt lat="50.50257" lon="5.52625">
        <ele>284.7</ele>
        <time>2013-02-17T11:26:14Z</time>
      </trkpt>
      <trkpt lat="50.50281" lon="5.52679">
        <ele>284.3</ele>
        <time>2013-02-17T11:26:19Z</time>
      </trkpt>
      <trkpt lat="50.50298" lon="5.52754">
        <ele>283.7</ele>
        <time>2013-02-17T11:26:24Z</time>
      </trkpt>
      <trkpt lat="50.50317" lon="5.5285">
        <ele>280.3</ele>
        <time>2013-02-17T11:26:31Z</time>
      </trkpt>
      <trkpt lat="50.5033" lon="5.52934">
        <ele>276.4</ele>
        <time>2013-02-17T11:26:36Z</time>
      </trkpt>
      <trkpt lat="50.50344" lon="5.53005">
        <ele>274.8</ele>
        <time>2013-02-17T11:26:41Z</time>
      </trkpt>
      <trkpt lat="50.50362" lon="5.53124">
        <ele>274.2</ele>
        <time>2013-02-17T11:26:49Z</time>
      </trkpt>
      <trkpt lat="50.50365" lon="5.53185">
        <ele>273.8</ele>
        <time>2013-02-17T11:26:54Z</time>
      </trkpt>
      <trkpt lat="50.50375" lon="5.53232">
        <ele>273.7</ele>
        <time>2013-02-17T11:26:59Z</time>
      </trkpt>
      <trkpt lat="50.5039" lon="5.53297">
        <ele>273.8</ele>
        <time>2013-02-17T11:27:04Z</time>
      </trkpt>
      <trkpt lat="50.50404" lon="5.53373">
        <ele>273.5</ele>
        <time>2013-02-17T11:27:09Z</time>
      </trkpt>
      <trkpt lat="50.50426" lon="5.53472">
        <ele>273.7</ele>
        <time>2013-02-17T11:27:16Z</time>
      </trkpt>
      <trkpt lat="50.50442" lon="5.5354">
        <ele>272.9</ele>
        <time>2013-02-17T11:27:21Z</time>
      </trkpt>
      <trkpt lat="50.50465" lon="5.53616">
        <ele>272.7</ele>
        <time>2013-02-17T11:27:27Z</time>
      </trkpt>
      <trkpt lat="50.50485" lon="5.53696">
        <ele>272.7</ele>
        <time>2013-02-17T11:27:33Z</time>
      </trkpt>
      <trkpt lat="50.50495" lon="5.53781">
        <ele>270.3</ele>
        <time>2013-02-17T11:27:39Z</time>
      </trkpt>
      <trkpt lat="50.50498" lon="5.53873">
        <ele>267.7</ele>
        <time>2013-02-17T11:27:45Z</time>
      </trkpt>
      <trkpt lat="50.50503" lon="5.53987">
        <ele>261.4</ele>
        <time>2013-02-17T11:27:52Z</time>
      </trkpt>
      <trkpt lat="50.5052" lon="5.54075">
        <ele>260</ele>
        <time>2013-02-17T11:27:58Z</time>
      </trkpt>
      <trkpt lat="50.5052" lon="5.54155">
        <ele>259.8</ele>
        <time>2013-02-17T11:28:04Z</time>
      </trkpt>
      <trkpt lat="50.50488" lon="5.54243">
        <ele>258.6</ele>
        <time>2013-02-17T11:28:09Z</time>
      </trkpt>
      <trkpt lat="50.50492" lon="5.54347">
        <ele>257.8</ele>
        <time>2013-02-17T11:28:17Z</time>
      </trkpt>
      <trkpt lat="50.50525" lon="5.54431">
        <ele>257.4</ele>
        <time>2013-02-17T11:28:22Z</time>
      </trkpt>
      <trkpt lat="50.50553" lon="5.54521">
        <ele>257.5</ele>
        <time>2013-02-17T11:28:28Z</time>
      </trkpt>
      <trkpt lat="50.50613" lon="5.5465">
        <ele>242.5</ele>
        <time>2013-02-17T11:28:36Z</time>
      </trkpt>
      <trkpt lat="50.50633" lon="5.54739">
        <ele>238.5</ele>
        <time>2013-02-17T11:28:42Z</time>
      </trkpt>
      <trkpt lat="50.50651" lon="5.54811">
        <ele>236.2</ele>
        <time>2013-02-17T11:28:47Z</time>
      </trkpt>
      <trkpt lat="50.5067" lon="5.54868">
        <ele>234.6</ele>
        <time>2013-02-17T11:28:51Z</time>
      </trkpt>
      <trkpt lat="50.50675" lon="5.54939">
        <ele>232.9</ele>
        <time>2013-02-17T11:28:56Z</time>
      </trkpt>
      <trkpt lat="50.50693" lon="5.55">
        <ele>231.9</ele>
        <time>2013-02-17T11:29:01Z</time>
      </trkpt>
      <trkpt lat="50.50707" lon="5.55101">
        <ele>231.6</ele>
        <time>2013-02-17T11:29:08Z</time>
      </trkpt>
      <trkpt lat="50.50728" lon="5.55167">
        <ele>231.1</ele>
        <time>2013-02-17T11:29:13Z</time>
      </trkpt>
      <trkpt lat="50.50755" lon="5.55254">
        <ele>230.2</ele>
        <time>2013-02-17T11:29:19Z</time>
      </trkpt>
      <trkpt lat="50.50779" lon="5.55345">
        <ele>229</ele>
        <time>2013-02-17T11:29:25Z</time>
      </trkpt>
      <trkpt lat="50.50809" lon="5.5541">
        <ele>226.9</ele>
        <time>2013-02-17T11:29:30Z</time>
      </trkpt>
      <trkpt lat="50.5085" lon="5.55487">
        <ele>224.3</ele>
        <time>2013-02-17T11:29:36Z</time>
      </trkpt>
      <trkpt lat="50.50869" lon="5.55561">
        <ele>224</ele>
        <time>2013-02-17T11:29:41Z</time>
      </trkpt>
      <trkpt lat="50.50912" lon="5.55656">
        <ele>222.2</ele>
        <time>2013-02-17T11:29:48Z</time>
      </trkpt>
      <trkpt lat="50.50961" lon="5.55737">
        <ele>221.1</ele>
        <time>2013-02-17T11:29:54Z</time>
      </trkpt>
      <trkpt lat="50.50989" lon="5.558">
        <ele>219.9</ele>
        <time>2013-02-17T11:29:59Z</time>
      </trkpt>
      <trkpt lat="50.51036" lon="5.55877">
        <ele>215.3</ele>
        <time>2013-02-17T11:30:05Z</time>
      </trkpt>
      <trkpt lat="50.51073" lon="5.55929">
        <ele>202.6</ele>
        <time>2013-02-17T11:30:12Z</time>
      </trkpt>
      <trkpt lat="50.51081" lon="5.55927">
        <ele>192.7</ele>
        <time>2013-02-17T11:30:15Z</time>
      </trkpt>
      <trkpt lat="50.51081" lon="5.55927">
        <ele>100</ele>
        <time>2013-02-17T11:30:20Z</time>
      </trkpt>
      <trkpt lat="50.51081" lon="5.55927">
        <ele>100</ele>
        <time>2013-02-17T11:31:10Z</time>
      </trkpt>
      <trkpt lat="50.51108" lon="5.55948">
        <ele>160.7</ele>
        <time>2013-02-17T11:31:10Z</time>
      </trkpt>
      <trkpt lat="50.51136" lon="5.55942">
        <ele>155.7</ele>
        <time>2013-02-17T11:31:16Z</time>
      </trkpt>
      <trkpt lat="50.51181" lon="5.55934">
        <ele>155.7</ele>
        <time>2013-02-17T11:31:22Z</time>
      </trkpt>
      <trkpt lat="50.51201" lon="5.55934">
        <ele>157</ele>
        <time>2013-02-17T11:31:25Z</time>
      </trkpt>
      <trkpt lat="50.51232" lon="5.55934">
        <ele>156.6</ele>
        <time>2013-02-17T11:31:30Z</time>
      </trkpt>
      <trkpt lat="50.51268" lon="5.55933">
        <ele>150.7</ele>
        <time>2013-02-17T11:31:37Z</time>
      </trkpt>
      <trkpt lat="50.51297" lon="5.55929">
        <ele>148.8</ele>
        <time>2013-02-17T11:31:43Z</time>
      </trkpt>
      <trkpt lat="50.51322" lon="5.55933">
        <ele>146.4</ele>
        <time>2013-02-17T11:31:48Z</time>
      </trkpt>
      <trkpt lat="50.51356" lon="5.55935">
        <ele>146.4</ele>
        <time>2013-02-17T11:31:54Z</time>
      </trkpt>
      <trkpt lat="50.51387" lon="5.55947">
        <ele>145.7</ele>
        <time>2013-02-17T11:32:00Z</time>
      </trkpt>
      <trkpt lat="50.5142" lon="5.55959">
        <ele>142.9</ele>
        <time>2013-02-17T11:32:07Z</time>
      </trkpt>
      <trkpt lat="50.51448" lon="5.55983">
        <ele>140.8</ele>
        <time>2013-02-17T11:32:13Z</time>
      </trkpt>
      <trkpt lat="50.51477" lon="5.56017">
        <ele>141.8</ele>
        <time>2013-02-17T11:32:18Z</time>
      </trkpt>
      <trkpt lat="50.51508" lon="5.56041">
        <ele>141.9</ele>
        <time>2013-02-17T11:32:24Z</time>
      </trkpt>
      <trkpt lat="50.51537" lon="5.56085">
        <ele>144.3</ele>
        <time>2013-02-17T11:32:30Z</time>
      </trkpt>
      <trkpt lat="50.51557" lon="5.561">
        <ele>142.6</ele>
        <time>2013-02-17T11:32:34Z</time>
      </trkpt>
      <trkpt lat="50.51595" lon="5.56139">
        <ele>142.5</ele>
        <time>2013-02-17T11:32:40Z</time>
      </trkpt>
      <trkpt lat="50.5163" lon="5.56176">
        <ele>142.3</ele>
        <time>2013-02-17T11:32:47Z</time>
      </trkpt>
      <trkpt lat="50.51665" lon="5.56203">
        <ele>141.2</ele>
        <time>2013-02-17T11:32:53Z</time>
      </trkpt>
      <trkpt lat="50.51681" lon="5.56214">
        <ele>141.9</ele>
        <time>2013-02-17T11:32:56Z</time>
      </trkpt>
      <trkpt lat="50.51715" lon="5.56234">
        <ele>140</ele>
        <time>2013-02-17T11:33:02Z</time>
      </trkpt>
      <trkpt lat="50.5173" lon="5.56247">
        <ele>139.6</ele>
        <time>2013-02-17T11:33:05Z</time>
      </trkpt>
      <trkpt lat="50.51768" lon="5.56256">
        <ele>136.9</ele>
        <time>2013-02-17T11:33:12Z</time>
      </trkpt>
      <trkpt lat="50.51796" lon="5.56264">
        <ele>136.5</ele>
        <time>2013-02-17T11:33:18Z</time>
      </trkpt>
      <trkpt lat="50.51821" lon="5.56271">
        <ele>136.3</ele>
        <time>2013-02-17T11:33:23Z</time>
      </trkpt>
      <trkpt lat="50.51856" lon="5.56278">
        <ele>135.3</ele>
        <time>2013-02-17T11:33:29Z</time>
      </trkpt>
      <trkpt lat="50.5189" lon="5.56295">
        <ele>134.1</ele>
        <time>2013-02-17T11:33:35Z</time>
      </trkpt>
      <trkpt lat="50.51923" lon="5.5631">
        <ele>135.8</ele>
        <time>2013-02-17T11:33:41Z</time>
      </trkpt>
      <trkpt lat="50.5195" lon="5.56325">
        <ele>135.2</ele>
        <time>2013-02-17T11:33:47Z</time>
      </trkpt>
      <trkpt lat="50.51977" lon="5.56337">
        <ele>135.5</ele>
        <time>2013-02-17T11:33:53Z</time>
      </trkpt>
      <trkpt lat="50.52009" lon="5.56352">
        <ele>134</ele>
        <time>2013-02-17T11:34:01Z</time>
      </trkpt>
      <trkpt lat="50.52029" lon="5.56366">
        <ele>133.1</ele>
        <time>2013-02-17T11:34:06Z</time>
      </trkpt>
      <trkpt lat="50.52044" lon="5.5638">
        <ele>133.9</ele>
        <time>2013-02-17T11:34:10Z</time>
      </trkpt>
      <trkpt lat="50.52068" lon="5.56406">
        <ele>137.3</ele>
        <time>2013-02-17T11:34:16Z</time>
      </trkpt>
      <trkpt lat="50.52088" lon="5.56431">
        <ele>134.9</ele>
        <time>2013-02-17T11:34:22Z</time>
      </trkpt>
      <trkpt lat="50.52108" lon="5.56461">
        <ele>136.1</ele>
        <time>2013-02-17T11:34:28Z</time>
      </trkpt>
      <trkpt lat="50.52134" lon="5.565">
        <ele>136.8</ele>
        <time>2013-02-17T11:34:34Z</time>
      </trkpt>
      <trkpt lat="50.52149" lon="5.56515">
        <ele>137.1</ele>
        <time>2013-02-17T11:34:37Z</time>
      </trkpt>
      <trkpt lat="50.52161" lon="5.56537">
        <ele>136.2</ele>
        <time>2013-02-17T11:34:40Z</time>
      </trkpt>
      <trkpt lat="50.52186" lon="5.56568">
        <ele>135.2</ele>
        <time>2013-02-17T11:34:45Z</time>
      </trkpt>
      <trkpt lat="50.52224" lon="5.56602">
        <ele>135.3</ele>
        <time>2013-02-17T11:34:51Z</time>
      </trkpt>
      <trkpt lat="50.52257" lon="5.56638">
        <ele>133.5</ele>
        <time>2013-02-17T11:34:57Z</time>
      </trkpt>
      <trkpt lat="50.52274" lon="5.56658">
        <ele>133.7</ele>
        <time>2013-02-17T11:35:00Z</time>
      </trkpt>
      <trkpt lat="50.52314" lon="5.56691">
        <ele>137</ele>
        <time>2013-02-17T11:35:06Z</time>
      </trkpt>
      <trkpt lat="50.52346" lon="5.56711">
        <ele>139.3</ele>
        <time>2013-02-17T11:35:11Z</time>
      </trkpt>
      <trkpt lat="50.52378" lon="5.56743">
        <ele>139.2</ele>
        <time>2013-02-17T11:35:17Z</time>
      </trkpt>
      <trkpt lat="50.52403" lon="5.56759">
        <ele>137.7</ele>
        <time>2013-02-17T11:35:23Z</time>
      </trkpt>
      <trkpt lat="50.5244" lon="5.56788">
        <ele>137.3</ele>
        <time>2013-02-17T11:35:30Z</time>
      </trkpt>
      <trkpt lat="50.52474" lon="5.56805">
        <ele>137</ele>
        <time>2013-02-17T11:35:35Z</time>
      </trkpt>
      <trkpt lat="50.5251" lon="5.56824">
        <ele>135.3</ele>
        <time>2013-02-17T11:35:41Z</time>
      </trkpt>
      <trkpt lat="50.52545" lon="5.56839">
        <ele>133.7</ele>
        <time>2013-02-17T11:35:47Z</time>
      </trkpt>
      <trkpt lat="50.52572" lon="5.56857">
        <ele>134</ele>
        <time>2013-02-17T11:35:52Z</time>
      </trkpt>
      <trkpt lat="50.52601" lon="5.56878">
        <ele>130.4</ele>
        <time>2013-02-17T11:35:59Z</time>
      </trkpt>
      <trkpt lat="50.52622" lon="5.56892">
        <ele>130</ele>
        <time>2013-02-17T11:36:04Z</time>
      </trkpt>
      <trkpt lat="50.52658" lon="5.5692">
        <ele>130.3</ele>
        <time>2013-02-17T11:36:11Z</time>
      </trkpt>
      <trkpt lat="50.52677" lon="5.56934">
        <ele>130.2</ele>
        <time>2013-02-17T11:36:16Z</time>
      </trkpt>
      <trkpt lat="50.52707" lon="5.56958">
        <ele>128.6</ele>
        <time>2013-02-17T11:36:22Z</time>
      </trkpt>
      <trkpt lat="50.52738" lon="5.56975">
        <ele>128.4</ele>
        <time>2013-02-17T11:36:28Z</time>
      </trkpt>
      <trkpt lat="50.52762" lon="5.56992">
        <ele>129.4</ele>
        <time>2013-02-17T11:36:33Z</time>
      </trkpt>
      <trkpt lat="50.52794" lon="5.57021">
        <ele>126</ele>
        <time>2013-02-17T11:36:40Z</time>
      </trkpt>
      <trkpt lat="50.52823" lon="5.57043">
        <ele>125.3</ele>
        <time>2013-02-17T11:36:46Z</time>
      </trkpt>
      <trkpt lat="50.52837" lon="5.57051">
        <ele>123.8</ele>
        <time>2013-02-17T11:36:51Z</time>
      </trkpt>
      <trkpt lat="50.52859" lon="5.57056">
        <ele>125.3</ele>
        <time>2013-02-17T11:37:01Z</time>
      </trkpt>
      <trkpt lat="50.52878" lon="5.5706">
        <ele>124</ele>
        <time>2013-02-17T11:37:13Z</time>
      </trkpt>
      <trkpt lat="50.52904" lon="5.57061">
        <ele>124.6</ele>
        <time>2013-02-17T11:37:22Z</time>
      </trkpt>
      <trkpt lat="50.52914" lon="5.57057">
        <ele>126.6</ele>
        <time>2013-02-17T11:37:27Z</time>
      </trkpt>
      <trkpt lat="50.52914" lon="5.57057">
        <ele>86</ele>
        <time>2013-02-17T11:37:32Z</time>
      </trkpt>
      <trkpt lat="50.52914" lon="5.57057">
        <ele>86</ele>
        <time>2013-02-17T11:40:55Z</time>
      </trkpt>
      <trkpt lat="50.52933" lon="5.5705">
        <ele>128.6</ele>
        <time>2013-02-17T11:40:55Z</time>
      </trkpt>
      <trkpt lat="50.5295" lon="5.57046">
        <ele>126.7</ele>
        <time>2013-02-17T11:40:59Z</time>
      </trkpt>
      <trkpt lat="50.52966" lon="5.57042">
        <ele>127.4</ele>
        <time>2013-02-17T11:41:04Z</time>
      </trkpt>
      <trkpt lat="50.52977" lon="5.57038">
        <ele>128.3</ele>
        <time>2013-02-17T11:41:07Z</time>
      </trkpt>
      <trkpt lat="50.52989" lon="5.57034">
        <ele>128.5</ele>
        <time>2013-02-17T11:41:10Z</time>
      </trkpt>
      <trkpt lat="50.53001" lon="5.57033">
        <ele>128.2</ele>
        <time>2013-02-17T11:41:13Z</time>
      </trkpt>
      <trkpt lat="50.53016" lon="5.57029">
        <ele>128.8</ele>
        <time>2013-02-17T11:41:17Z</time>
      </trkpt>
      <trkpt lat="50.53038" lon="5.57014">
        <ele>133</ele>
        <time>2013-02-17T11:41:22Z</time>
      </trkpt>
      <trkpt lat="50.53071" lon="5.5699">
        <ele>130.2</ele>
        <time>2013-02-17T11:41:28Z</time>
      </trkpt>
      <trkpt lat="50.53106" lon="5.56959">
        <ele>128.8</ele>
        <time>2013-02-17T11:41:34Z</time>
      </trkpt>
      <trkpt lat="50.53127" lon="5.56922">
        <ele>127.1</ele>
        <time>2013-02-17T11:41:40Z</time>
      </trkpt>
      <trkpt lat="50.53142" lon="5.56886">
        <ele>127.2</ele>
        <time>2013-02-17T11:41:46Z</time>
      </trkpt>
      <trkpt lat="50.53157" lon="5.56851">
        <ele>126</ele>
        <time>2013-02-17T11:41:52Z</time>
      </trkpt>
      <trkpt lat="50.53171" lon="5.56806">
        <ele>126.1</ele>
        <time>2013-02-17T11:42:00Z</time>
      </trkpt>
      <trkpt lat="50.53181" lon="5.56774">
        <ele>127.6</ele>
        <time>2013-02-17T11:42:05Z</time>
      </trkpt>
      <trkpt lat="50.53184" lon="5.5675">
        <ele>128.2</ele>
        <time>2013-02-17T11:42:12Z</time>
      </trkpt>
      <trkpt lat="50.53187" lon="5.56712">
        <ele>127.7</ele>
        <time>2013-02-17T11:42:24Z</time>
      </trkpt>
      <trkpt lat="50.53198" lon="5.56703">
        <ele>129.9</ele>
        <time>2013-02-17T11:42:31Z</time>
      </trkpt>
      <trkpt lat="50.53224" lon="5.56704">
        <ele>135.1</ele>
        <time>2013-02-17T11:42:39Z</time>
      </trkpt>
      <trkpt lat="50.53238" lon="5.56706">
        <ele>136.6</ele>
        <time>2013-02-17T11:42:43Z</time>
      </trkpt>
      <trkpt lat="50.53252" lon="5.56708">
        <ele>138.7</ele>
        <time>2013-02-17T11:42:50Z</time>
      </trkpt>
      <trkpt lat="50.53252" lon="5.56708">
        <ele>138.7</ele>
        <time>2013-02-17T11:42:57Z</time>
      </trkpt>
      <trkpt lat="50.53252" lon="5.56708">
        <ele>90.1</ele>
        <time>2013-02-17T11:42:57Z</time>
      </trkpt>
      <trkpt lat="50.53252" lon="5.56708">
        <ele>90.1</ele>
        <time>2013-02-17T11:43:17Z</time>
      </trkpt>
      <trkpt lat="50.53241" lon="5.56746">
        <ele>141.2</ele>
        <time>2013-02-17T11:43:17Z</time>
      </trkpt>
      <trkpt lat="50.53238" lon="5.56786">
        <ele>137.3</ele>
        <time>2013-02-17T11:43:23Z</time>
      </trkpt>
      <trkpt lat="50.53223" lon="5.5683">
        <ele>135.8</ele>
        <time>2013-02-17T11:43:30Z</time>
      </trkpt>
      <trkpt lat="50.5321" lon="5.56873">
        <ele>133.6</ele>
        <time>2013-02-17T11:43:36Z</time>
      </trkpt>
      <trkpt lat="50.53194" lon="5.56909">
        <ele>136</ele>
        <time>2013-02-17T11:43:41Z</time>
      </trkpt>
      <trkpt lat="50.53181" lon="5.56964">
        <ele>138</ele>
        <time>2013-02-17T11:43:48Z</time>
      </trkpt>
      <trkpt lat="50.53176" lon="5.57003">
        <ele>137.8</ele>
        <time>2013-02-17T11:43:54Z</time>
      </trkpt>
      <trkpt lat="50.53168" lon="5.57048">
        <ele>138.8</ele>
        <time>2013-02-17T11:44:00Z</time>
      </trkpt>
      <trkpt lat="50.53168" lon="5.5708">
        <ele>138.4</ele>
        <time>2013-02-17T11:44:06Z</time>
      </trkpt>
      <trkpt lat="50.5316" lon="5.57124">
        <ele>139</ele>
        <time>2013-02-17T11:44:12Z</time>
      </trkpt>
      <trkpt lat="50.53147" lon="5.57165">
        <ele>143</ele>
        <time>2013-02-17T11:44:18Z</time>
      </trkpt>
      <trkpt lat="50.5313" lon="5.57187">
        <ele>143.6</ele>
        <time>2013-02-17T11:44:26Z</time>
      </trkpt>
      <trkpt lat="50.5311" lon="5.57195">
        <ele>140.7</ele>
        <time>2013-02-17T11:44:35Z</time>
      </trkpt>
      <trkpt lat="50.5312" lon="5.57219">
        <ele>138.6</ele>
        <time>2013-02-17T11:44:43Z</time>
      </trkpt>
      <trkpt lat="50.53128" lon="5.57239">
        <ele>139</ele>
        <time>2013-02-17T11:44:49Z</time>
      </trkpt>
      <trkpt lat="50.53128" lon="5.57239">
        <ele>90</ele>
        <time>2013-02-17T11:44:54Z</time>
      </trkpt>
      <trkpt lat="50.53128" lon="5.57239">
        <ele>90</ele>
        <time>2013-02-17T11:47:39Z</time>
      </trkpt>
      <trkpt lat="50.53142" lon="5.57213">
        <ele>141.1</ele>
        <time>2013-02-17T11:47:39Z</time>
      </trkpt>
      <trkpt lat="50.53146" lon="5.57173">
        <ele>142.6</ele>
        <time>2013-02-17T11:47:47Z</time>
      </trkpt>
      <trkpt lat="50.53137" lon="5.57147">
        <ele>137.5</ele>
        <time>2013-02-17T11:47:55Z</time>
      </trkpt>
      <trkpt lat="50.53129" lon="5.57101">
        <ele>137</ele>
        <time>2013-02-17T11:48:03Z</time>
      </trkpt>
      <trkpt lat="50.53122" lon="5.57063">
        <ele>133.8</ele>
        <time>2013-02-17T11:48:10Z</time>
      </trkpt>
      <trkpt lat="50.53118" lon="5.57051">
        <ele>134.7</ele>
        <time>2013-02-17T11:48:15Z</time>
      </trkpt>
      <trkpt lat="50.53118" lon="5.57051">
        <ele>87.7</ele>
        <time>2013-02-17T11:48:21Z</time>
      </trkpt>
      <trkpt lat="50.53118" lon="5.57051">
        <ele>87.7</ele>
        <time>2013-02-17T11:57:17Z</time>
      </trkpt>
      <trkpt lat="50.53141" lon="5.57011">
        <ele>127.1</ele>
        <time>2013-02-17T11:57:17Z</time>
      </trkpt>
      <trkpt lat="50.53164" lon="5.5698">
        <ele>123.6</ele>
        <time>2013-02-17T11:57:26Z</time>
      </trkpt>
      <trkpt lat="50.53178" lon="5.56958">
        <ele>123</ele>
        <time>2013-02-17T11:57:33Z</time>
      </trkpt>
      <trkpt lat="50.5319" lon="5.56932">
        <ele>123.4</ele>
        <time>2013-02-17T11:57:41Z</time>
      </trkpt>
      <trkpt lat="50.53202" lon="5.56901">
        <ele>125.4</ele>
        <time>2013-02-17T11:57:48Z</time>
      </trkpt>
      <trkpt lat="50.5322" lon="5.56866">
        <ele>127.4</ele>
        <time>2013-02-17T11:57:56Z</time>
      </trkpt>
      <trkpt lat="50.53234" lon="5.56832">
        <ele>128.6</ele>
        <time>2013-02-17T11:58:03Z</time>
      </trkpt>
      <trkpt lat="50.53246" lon="5.56799">
        <ele>125.4</ele>
        <time>2013-02-17T11:58:09Z</time>
      </trkpt>
      <trkpt lat="50.53259" lon="5.56762">
        <ele>123</ele>
        <time>2013-02-17T11:58:16Z</time>
      </trkpt>
      <trkpt lat="50.5327" lon="5.56739">
        <ele>122.6</ele>
        <time>2013-02-17T11:58:23Z</time>
      </trkpt>
      <trkpt lat="50.53279" lon="5.56716">
        <ele>124.4</ele>
        <time>2013-02-17T11:58:32Z</time>
      </trkpt>
      <trkpt lat="50.5328" lon="5.56699">
        <ele>126.3</ele>
        <time>2013-02-17T11:58:42Z</time>
      </trkpt>
      <trkpt lat="50.53302" lon="5.56571">
        <ele>123</ele>
        <time>2013-02-17T11:58:58Z</time>
      </trkpt>
      <trkpt lat="50.53316" lon="5.56524">
        <ele>121.9</ele>
        <time>2013-02-17T11:59:04Z</time>
      </trkpt>
      <trkpt lat="50.53336" lon="5.56488">
        <ele>123.6</ele>
        <time>2013-02-17T11:59:11Z</time>
      </trkpt>
      <trkpt lat="50.5335" lon="5.56455">
        <ele>124.8</ele>
        <time>2013-02-17T11:59:17Z</time>
      </trkpt>
      <trkpt lat="50.5337" lon="5.56431">
        <ele>122.7</ele>
        <time>2013-02-17T11:59:24Z</time>
      </trkpt>
      <trkpt lat="50.53373" lon="5.56392">
        <ele>121.7</ele>
        <time>2013-02-17T11:59:29Z</time>
      </trkpt>
      <trkpt lat="50.53378" lon="5.56327">
        <ele>121.7</ele>
        <time>2013-02-17T11:59:34Z</time>
      </trkpt>
      <trkpt lat="50.53392" lon="5.56293">
        <ele>123.1</ele>
        <time>2013-02-17T11:59:39Z</time>
      </trkpt>
      <trkpt lat="50.53405" lon="5.56247">
        <ele>121.2</ele>
        <time>2013-02-17T11:59:44Z</time>
      </trkpt>
      <trkpt lat="50.53417" lon="5.562">
        <ele>124.2</ele>
        <time>2013-02-17T11:59:50Z</time>
      </trkpt>
      <trkpt lat="50.5343" lon="5.56145">
        <ele>126.4</ele>
        <time>2013-02-17T11:59:56Z</time>
      </trkpt>
      <trkpt lat="50.53437" lon="5.56102">
        <ele>125.3</ele>
        <time>2013-02-17T12:00:01Z</time>
      </trkpt>
      <trkpt lat="50.53453" lon="5.56048">
        <ele>126.5</ele>
        <time>2013-02-17T12:00:07Z</time>
      </trkpt>
      <trkpt lat="50.53463" lon="5.56021">
        <ele>125.3</ele>
        <time>2013-02-17T12:00:11Z</time>
      </trkpt>
      <trkpt lat="50.5348" lon="5.55979">
        <ele>124.6</ele>
        <time>2013-02-17T12:00:17Z</time>
      </trkpt>
      <trkpt lat="50.53498" lon="5.55949">
        <ele>123.8</ele>
        <time>2013-02-17T12:00:22Z</time>
      </trkpt>
      <trkpt lat="50.53516" lon="5.55905">
        <ele>122.9</ele>
        <time>2013-02-17T12:00:28Z</time>
      </trkpt>
      <trkpt lat="50.53529" lon="5.55866">
        <ele>122.5</ele>
        <time>2013-02-17T12:00:33Z</time>
      </trkpt>
      <trkpt lat="50.53537" lon="5.55847">
        <ele>121.5</ele>
        <time>2013-02-17T12:00:36Z</time>
      </trkpt>
      <trkpt lat="50.53551" lon="5.55805">
        <ele>119.9</ele>
        <time>2013-02-17T12:00:42Z</time>
      </trkpt>
      <trkpt lat="50.53573" lon="5.55758">
        <ele>122</ele>
        <time>2013-02-17T12:00:50Z</time>
      </trkpt>
      <trkpt lat="50.53581" lon="5.55742">
        <ele>121.7</ele>
        <time>2013-02-17T12:00:55Z</time>
      </trkpt>
      <trkpt lat="50.53583" lon="5.55724">
        <ele>122.4</ele>
        <time>2013-02-17T12:01:04Z</time>
      </trkpt>
      <trkpt lat="50.53593" lon="5.55666">
        <ele>123.9</ele>
        <time>2013-02-17T12:01:23Z</time>
      </trkpt>
      <trkpt lat="50.53611" lon="5.55626">
        <ele>119.4</ele>
        <time>2013-02-17T12:02:59Z</time>
      </trkpt>
      <trkpt lat="50.5364" lon="5.55575">
        <ele>119.2</ele>
        <time>2013-02-17T12:03:06Z</time>
      </trkpt>
      <trkpt lat="50.53674" lon="5.55535">
        <ele>117.8</ele>
        <time>2013-02-17T12:03:13Z</time>
      </trkpt>
      <trkpt lat="50.53706" lon="5.55499">
        <ele>117.7</ele>
        <time>2013-02-17T12:03:19Z</time>
      </trkpt>
      <trkpt lat="50.5374" lon="5.55476">
        <ele>117.7</ele>
        <time>2013-02-17T12:03:25Z</time>
      </trkpt>
      <trkpt lat="50.53855" lon="5.55372">
        <ele>118.2</ele>
        <time>2013-02-17T12:03:48Z</time>
      </trkpt>
      <trkpt lat="50.53883" lon="5.55339">
        <ele>118.1</ele>
        <time>2013-02-17T12:03:54Z</time>
      </trkpt>
      <trkpt lat="50.53913" lon="5.55305">
        <ele>118.2</ele>
        <time>2013-02-17T12:04:01Z</time>
      </trkpt>
      <trkpt lat="50.53938" lon="5.55282">
        <ele>118.4</ele>
        <time>2013-02-17T12:04:06Z</time>
      </trkpt>
      <trkpt lat="50.53965" lon="5.55266">
        <ele>117.9</ele>
        <time>2013-02-17T12:04:11Z</time>
      </trkpt>
      <trkpt lat="50.53998" lon="5.5525">
        <ele>118.3</ele>
        <time>2013-02-17T12:04:17Z</time>
      </trkpt>
      <trkpt lat="50.54041" lon="5.55217">
        <ele>118.2</ele>
        <time>2013-02-17T12:04:24Z</time>
      </trkpt>
      <trkpt lat="50.54082" lon="5.55203">
        <ele>118.4</ele>
        <time>2013-02-17T12:04:31Z</time>
      </trkpt>
      <trkpt lat="50.54107" lon="5.55187">
        <ele>119.1</ele>
        <time>2013-02-17T12:04:36Z</time>
      </trkpt>
      <trkpt lat="50.54135" lon="5.5518">
        <ele>119</ele>
        <time>2013-02-17T12:04:41Z</time>
      </trkpt>
      <trkpt lat="50.54163" lon="5.55175">
        <ele>119</ele>
        <time>2013-02-17T12:04:46Z</time>
      </trkpt>
      <trkpt lat="50.54198" lon="5.55178">
        <ele>119.8</ele>
        <time>2013-02-17T12:04:52Z</time>
      </trkpt>
      <trkpt lat="50.5423" lon="5.55163">
        <ele>119.6</ele>
        <time>2013-02-17T12:04:58Z</time>
      </trkpt>
      <trkpt lat="50.54256" lon="5.55149">
        <ele>119.4</ele>
        <time>2013-02-17T12:05:03Z</time>
      </trkpt>
      <trkpt lat="50.54293" lon="5.5514">
        <ele>119.9</ele>
        <time>2013-02-17T12:05:09Z</time>
      </trkpt>
      <trkpt lat="50.54329" lon="5.55122">
        <ele>120.1</ele>
        <time>2013-02-17T12:05:16Z</time>
      </trkpt>
      <trkpt lat="50.54354" lon="5.55108">
        <ele>120.5</ele>
        <time>2013-02-17T12:05:21Z</time>
      </trkpt>
      <trkpt lat="50.54387" lon="5.55092">
        <ele>120.4</ele>
        <time>2013-02-17T12:05:26Z</time>
      </trkpt>
      <trkpt lat="50.54422" lon="5.55068">
        <ele>120.6</ele>
        <time>2013-02-17T12:05:33Z</time>
      </trkpt>
      <trkpt lat="50.54563" lon="5.54962">
        <ele>121.4</ele>
        <time>2013-02-17T12:06:01Z</time>
      </trkpt>
      <trkpt lat="50.54578" lon="5.54949">
        <ele>122.4</ele>
        <time>2013-02-17T12:06:04Z</time>
      </trkpt>
      <trkpt lat="50.54603" lon="5.54924">
        <ele>122</ele>
        <time>2013-02-17T12:06:09Z</time>
      </trkpt>
      <trkpt lat="50.54634" lon="5.54895">
        <ele>122.2</ele>
        <time>2013-02-17T12:06:15Z</time>
      </trkpt>
      <trkpt lat="50.54733" lon="5.5482">
        <ele>120.7</ele>
        <time>2013-02-17T12:06:35Z</time>
      </trkpt>
      <trkpt lat="50.54754" lon="5.5482">
        <ele>120</ele>
        <time>2013-02-17T12:06:40Z</time>
      </trkpt>
      <trkpt lat="50.5479" lon="5.54822">
        <ele>119.3</ele>
        <time>2013-02-17T12:06:46Z</time>
      </trkpt>
      <trkpt lat="50.54826" lon="5.54837">
        <ele>121.4</ele>
        <time>2013-02-17T12:06:51Z</time>
      </trkpt>
      <trkpt lat="50.54856" lon="5.54853">
        <ele>132.1</ele>
        <time>2013-02-17T12:06:57Z</time>
      </trkpt>
      <trkpt lat="50.5489" lon="5.54873">
        <ele>136.2</ele>
        <time>2013-02-17T12:07:03Z</time>
      </trkpt>
      <trkpt lat="50.54909" lon="5.549">
        <ele>137</ele>
        <time>2013-02-17T12:07:09Z</time>
      </trkpt>
      <trkpt lat="50.54933" lon="5.54924">
        <ele>136.3</ele>
        <time>2013-02-17T12:07:14Z</time>
      </trkpt>
      <trkpt lat="50.54955" lon="5.54967">
        <ele>136.5</ele>
        <time>2013-02-17T12:07:21Z</time>
      </trkpt>
      <trkpt lat="50.54977" lon="5.55016">
        <ele>136</ele>
        <time>2013-02-17T12:07:27Z</time>
      </trkpt>
      <trkpt lat="50.54987" lon="5.55053">
        <ele>133.7</ele>
        <time>2013-02-17T12:07:32Z</time>
      </trkpt>
      <trkpt lat="50.54997" lon="5.55101">
        <ele>134.5</ele>
        <time>2013-02-17T12:07:38Z</time>
      </trkpt>
      <trkpt lat="50.55004" lon="5.5517">
        <ele>134.6</ele>
        <time>2013-02-17T12:07:46Z</time>
      </trkpt>
      <trkpt lat="50.55007" lon="5.55216">
        <ele>133.9</ele>
        <time>2013-02-17T12:07:51Z</time>
      </trkpt>
      <trkpt lat="50.55009" lon="5.55259">
        <ele>133.9</ele>
        <time>2013-02-17T12:07:57Z</time>
      </trkpt>
      <trkpt lat="50.55002" lon="5.55314">
        <ele>134.3</ele>
        <time>2013-02-17T12:08:02Z</time>
      </trkpt>
      <trkpt lat="50.54994" lon="5.55367">
        <ele>132.6</ele>
        <time>2013-02-17T12:08:08Z</time>
      </trkpt>
      <trkpt lat="50.54985" lon="5.55412">
        <ele>131.6</ele>
        <time>2013-02-17T12:08:15Z</time>
      </trkpt>
      <trkpt lat="50.54979" lon="5.55449">
        <ele>129.2</ele>
        <time>2013-02-17T12:08:25Z</time>
      </trkpt>
      <trkpt lat="50.54973" lon="5.55489">
        <ele>127.6</ele>
        <time>2013-02-17T12:08:33Z</time>
      </trkpt>
      <trkpt lat="50.54966" lon="5.55522">
        <ele>128.8</ele>
        <time>2013-02-17T12:08:38Z</time>
      </trkpt>
      <trkpt lat="50.54956" lon="5.55571">
        <ele>130.2</ele>
        <time>2013-02-17T12:08:45Z</time>
      </trkpt>
      <trkpt lat="50.54943" lon="5.55612">
        <ele>131.8</ele>
        <time>2013-02-17T12:08:51Z</time>
      </trkpt>
      <trkpt lat="50.54933" lon="5.55652">
        <ele>131.3</ele>
        <time>2013-02-17T12:08:56Z</time>
      </trkpt>
      <trkpt lat="50.54929" lon="5.55701">
        <ele>131.4</ele>
        <time>2013-02-17T12:09:02Z</time>
      </trkpt>
      <trkpt lat="50.54923" lon="5.55729">
        <ele>133.5</ele>
        <time>2013-02-17T12:09:06Z</time>
      </trkpt>
      <trkpt lat="50.54915" lon="5.5577">
        <ele>135.8</ele>
        <time>2013-02-17T12:09:13Z</time>
      </trkpt>
      <trkpt lat="50.54917" lon="5.55804">
        <ele>136.5</ele>
        <time>2013-02-17T12:09:20Z</time>
      </trkpt>
      <trkpt lat="50.54919" lon="5.55831">
        <ele>139</ele>
        <time>2013-02-17T12:09:26Z</time>
      </trkpt>
      <trkpt lat="50.54919" lon="5.55831">
        <ele>139</ele>
        <time>2013-02-17T12:09:31Z</time>
      </trkpt>
      <trkpt lat="50.54919" lon="5.55831">
        <ele>81.1</ele>
        <time>2013-02-17T12:09:31Z</time>
      </trkpt>
      <trkpt lat="50.54919" lon="5.55831">
        <ele>81.1</ele>
        <time>2013-02-17T12:10:30Z</time>
      </trkpt>
      <trkpt lat="50.54922" lon="5.55882">
        <ele>139.4</ele>
        <time>2013-02-17T12:10:30Z</time>
      </trkpt>
      <trkpt lat="50.54918" lon="5.55918">
        <ele>137.4</ele>
        <time>2013-02-17T12:10:35Z</time>
      </trkpt>
      <trkpt lat="50.54909" lon="5.55958">
        <ele>131.7</ele>
        <time>2013-02-17T12:10:41Z</time>
      </trkpt>
      <trkpt lat="50.54894" lon="5.56018">
        <ele>129</ele>
        <time>2013-02-17T12:10:47Z</time>
      </trkpt>
      <trkpt lat="50.5489" lon="5.56063">
        <ele>130.7</ele>
        <time>2013-02-17T12:10:52Z</time>
      </trkpt>
      <trkpt lat="50.54884" lon="5.56107">
        <ele>130.6</ele>
        <time>2013-02-17T12:10:58Z</time>
      </trkpt>
      <trkpt lat="50.54881" lon="5.56149">
        <ele>133.3</ele>
        <time>2013-02-17T12:11:04Z</time>
      </trkpt>
      <trkpt lat="50.54877" lon="5.56194">
        <ele>134.1</ele>
        <time>2013-02-17T12:11:12Z</time>
      </trkpt>
      <trkpt lat="50.54878" lon="5.56224">
        <ele>131.8</ele>
        <time>2013-02-17T12:11:18Z</time>
      </trkpt>
      <trkpt lat="50.54875" lon="5.56256">
        <ele>129.6</ele>
        <time>2013-02-17T12:11:23Z</time>
      </trkpt>
      <trkpt lat="50.54847" lon="5.56342">
        <ele>118.4</ele>
        <time>2013-02-17T12:11:30Z</time>
      </trkpt>
      <trkpt lat="50.54843" lon="5.56397">
        <ele>112.4</ele>
        <time>2013-02-17T12:11:37Z</time>
      </trkpt>
      <trkpt lat="50.54847" lon="5.56444">
        <ele>105.6</ele>
        <time>2013-02-17T12:11:42Z</time>
      </trkpt>
      <trkpt lat="50.54842" lon="5.56493">
        <ele>105.7</ele>
        <time>2013-02-17T12:11:47Z</time>
      </trkpt>
      <trkpt lat="50.54834" lon="5.56544">
        <ele>103</ele>
        <time>2013-02-17T12:11:53Z</time>
      </trkpt>
      <trkpt lat="50.54827" lon="5.56594">
        <ele>101.8</ele>
        <time>2013-02-17T12:11:59Z</time>
      </trkpt>
      <trkpt lat="50.54822" lon="5.56621">
        <ele>102.1</ele>
        <time>2013-02-17T12:12:02Z</time>
      </trkpt>
      <trkpt lat="50.54813" lon="5.5667">
        <ele>103.7</ele>
        <time>2013-02-17T12:12:08Z</time>
      </trkpt>
      <trkpt lat="50.54799" lon="5.56708">
        <ele>103</ele>
        <time>2013-02-17T12:12:14Z</time>
      </trkpt>
      <trkpt lat="50.54779" lon="5.56741">
        <ele>105</ele>
        <time>2013-02-17T12:12:20Z</time>
      </trkpt>
      <trkpt lat="50.54759" lon="5.56763">
        <ele>107</ele>
        <time>2013-02-17T12:12:25Z</time>
      </trkpt>
      <trkpt lat="50.54727" lon="5.56801">
        <ele>106.5</ele>
        <time>2013-02-17T12:12:33Z</time>
      </trkpt>
      <trkpt lat="50.54706" lon="5.56825">
        <ele>108.2</ele>
        <time>2013-02-17T12:12:38Z</time>
      </trkpt>
      <trkpt lat="50.54678" lon="5.56847">
        <ele>111.6</ele>
        <time>2013-02-17T12:12:44Z</time>
      </trkpt>
      <trkpt lat="50.54661" lon="5.56868">
        <ele>113.4</ele>
        <time>2013-02-17T12:12:50Z</time>
      </trkpt>
      <trkpt lat="50.54644" lon="5.56888">
        <ele>118.1</ele>
        <time>2013-02-17T12:12:58Z</time>
      </trkpt>
      <trkpt lat="50.54622" lon="5.56902">
        <ele>122.6</ele>
        <time>2013-02-17T12:13:03Z</time>
      </trkpt>
      <trkpt lat="50.54597" lon="5.56915">
        <ele>122.7</ele>
        <time>2013-02-17T12:13:09Z</time>
      </trkpt>
      <trkpt lat="50.5457" lon="5.56928">
        <ele>123.5</ele>
        <time>2013-02-17T12:13:15Z</time>
      </trkpt>
      <trkpt lat="50.54544" lon="5.5694">
        <ele>122.5</ele>
        <time>2013-02-17T12:13:21Z</time>
      </trkpt>
      <trkpt lat="50.54516" lon="5.56954">
        <ele>120.4</ele>
        <time>2013-02-17T12:13:27Z</time>
      </trkpt>
      <trkpt lat="50.54487" lon="5.56962">
        <ele>122</ele>
        <time>2013-02-17T12:13:33Z</time>
      </trkpt>
      <trkpt lat="50.54459" lon="5.56961">
        <ele>122.4</ele>
        <time>2013-02-17T12:13:39Z</time>
      </trkpt>
      <trkpt lat="50.5443" lon="5.5695">
        <ele>120.9</ele>
        <time>2013-02-17T12:13:45Z</time>
      </trkpt>
      <trkpt lat="50.54407" lon="5.56936">
        <ele>123.4</ele>
        <time>2013-02-17T12:13:51Z</time>
      </trkpt>
      <trkpt lat="50.54388" lon="5.56919">
        <ele>124.9</ele>
        <time>2013-02-17T12:13:57Z</time>
      </trkpt>
      <trkpt lat="50.54363" lon="5.56895">
        <ele>128.7</ele>
        <time>2013-02-17T12:14:04Z</time>
      </trkpt>
      <trkpt lat="50.54346" lon="5.56873">
        <ele>130.1</ele>
        <time>2013-02-17T12:14:09Z</time>
      </trkpt>
      <trkpt lat="50.54328" lon="5.56849">
        <ele>129.6</ele>
        <time>2013-02-17T12:14:15Z</time>
      </trkpt>
      <trkpt lat="50.54315" lon="5.56838">
        <ele>132.9</ele>
        <time>2013-02-17T12:14:23Z</time>
      </trkpt>
      <trkpt lat="50.54305" lon="5.56885">
        <ele>137.9</ele>
        <time>2013-02-17T12:14:38Z</time>
      </trkpt>
      <trkpt lat="50.54305" lon="5.56891">
        <ele>138.5</ele>
        <time>2013-02-17T12:14:41Z</time>
      </trkpt>
      <trkpt lat="50.54305" lon="5.56891">
        <ele>84.1</ele>
        <time>2013-02-17T12:14:50Z</time>
      </trkpt>
      <trkpt lat="50.54305" lon="5.56891">
        <ele>84.1</ele>
        <time>2013-02-17T12:14:54Z</time>
      </trkpt>
      <trkpt lat="50.54294" lon="5.56891">
        <ele>132.8</ele>
        <time>2013-02-17T12:14:54Z</time>
      </trkpt>
      <trkpt lat="50.54256" lon="5.56869">
        <ele>125.2</ele>
        <time>2013-02-17T12:15:07Z</time>
      </trkpt>
      <trkpt lat="50.54224" lon="5.56833">
        <ele>122.9</ele>
        <time>2013-02-17T12:15:13Z</time>
      </trkpt>
      <trkpt lat="50.54199" lon="5.56811">
        <ele>122.1</ele>
        <time>2013-02-17T12:15:18Z</time>
      </trkpt>
      <trkpt lat="50.54176" lon="5.56805">
        <ele>118.2</ele>
        <time>2013-02-17T12:15:24Z</time>
      </trkpt>
      <trkpt lat="50.54163" lon="5.56811">
        <ele>117.2</ele>
        <time>2013-02-17T12:15:29Z</time>
      </trkpt>
      <trkpt lat="50.54163" lon="5.56811">
        <ele>117.2</ele>
        <time>2013-02-17T12:18:48Z</time>
      </trkpt>
      <trkpt lat="50.54189" lon="5.56819">
        <ele>123.4</ele>
        <time>2013-02-17T12:18:52Z</time>
      </trkpt>
      <trkpt lat="50.54211" lon="5.56822">
        <ele>121.2</ele>
        <time>2013-02-17T12:18:57Z</time>
      </trkpt>
      <trkpt lat="50.54236" lon="5.56834">
        <ele>120.4</ele>
        <time>2013-02-17T12:19:03Z</time>
      </trkpt>
      <trkpt lat="50.54257" lon="5.56851">
        <ele>115.9</ele>
        <time>2013-02-17T12:19:08Z</time>
      </trkpt>
      <trkpt lat="50.54267" lon="5.56861">
        <ele>115.7</ele>
        <time>2013-02-17T12:19:11Z</time>
      </trkpt>
      <trkpt lat="50.54281" lon="5.56882">
        <ele>115.2</ele>
        <time>2013-02-17T12:19:17Z</time>
      </trkpt>
      <trkpt lat="50.54291" lon="5.56901">
        <ele>115.8</ele>
        <time>2013-02-17T12:19:22Z</time>
      </trkpt>
      <trkpt lat="50.54312" lon="5.56919">
        <ele>114.8</ele>
        <time>2013-02-17T12:19:29Z</time>
      </trkpt>
      <trkpt lat="50.54336" lon="5.56949">
        <ele>113.8</ele>
        <time>2013-02-17T12:19:36Z</time>
      </trkpt>
      <trkpt lat="50.54367" lon="5.5698">
        <ele>114.2</ele>
        <time>2013-02-17T12:19:43Z</time>
      </trkpt>
      <trkpt lat="50.54411" lon="5.57006">
        <ele>114.6</ele>
        <time>2013-02-17T12:19:49Z</time>
      </trkpt>
      <trkpt lat="50.5443" lon="5.57012">
        <ele>113.7</ele>
        <time>2013-02-17T12:19:53Z</time>
      </trkpt>
      <trkpt lat="50.54458" lon="5.57025">
        <ele>113.8</ele>
        <time>2013-02-17T12:19:58Z</time>
      </trkpt>
      <trkpt lat="50.54484" lon="5.57035">
        <ele>114.5</ele>
        <time>2013-02-17T12:20:02Z</time>
      </trkpt>
      <trkpt lat="50.54517" lon="5.57046">
        <ele>113.9</ele>
        <time>2013-02-17T12:20:07Z</time>
      </trkpt>
      <trkpt lat="50.54534" lon="5.57049">
        <ele>113.9</ele>
        <time>2013-02-17T12:20:10Z</time>
      </trkpt>
      <trkpt lat="50.54551" lon="5.57049">
        <ele>113.7</ele>
        <time>2013-02-17T12:20:13Z</time>
      </trkpt>
      <trkpt lat="50.5458" lon="5.57039">
        <ele>116.2</ele>
        <time>2013-02-17T12:20:19Z</time>
      </trkpt>
      <trkpt lat="50.54604" lon="5.57026">
        <ele>116</ele>
        <time>2013-02-17T12:20:26Z</time>
      </trkpt>
      <trkpt lat="50.54636" lon="5.57017">
        <ele>109.6</ele>
        <time>2013-02-17T12:20:33Z</time>
      </trkpt>
      <trkpt lat="50.54661" lon="5.57005">
        <ele>108.6</ele>
        <time>2013-02-17T12:20:39Z</time>
      </trkpt>
      <trkpt lat="50.5468" lon="5.56998">
        <ele>111.5</ele>
        <time>2013-02-17T12:20:44Z</time>
      </trkpt>
      <trkpt lat="50.54698" lon="5.56981">
        <ele>114.5</ele>
        <time>2013-02-17T12:20:51Z</time>
      </trkpt>
      <trkpt lat="50.5472" lon="5.56964">
        <ele>115.6</ele>
        <time>2013-02-17T12:20:58Z</time>
      </trkpt>
      <trkpt lat="50.54744" lon="5.56938">
        <ele>117</ele>
        <time>2013-02-17T12:21:05Z</time>
      </trkpt>
      <trkpt lat="50.54765" lon="5.56919">
        <ele>116.2</ele>
        <time>2013-02-17T12:21:10Z</time>
      </trkpt>
      <trkpt lat="50.54786" lon="5.56896">
        <ele>113.5</ele>
        <time>2013-02-17T12:21:15Z</time>
      </trkpt>
      <trkpt lat="50.5481" lon="5.56865">
        <ele>116.2</ele>
        <time>2013-02-17T12:21:22Z</time>
      </trkpt>
      <trkpt lat="50.54826" lon="5.56838">
        <ele>117.1</ele>
        <time>2013-02-17T12:21:27Z</time>
      </trkpt>
      <trkpt lat="50.54837" lon="5.5682">
        <ele>117.9</ele>
        <time>2013-02-17T12:21:30Z</time>
      </trkpt>
      <trkpt lat="50.54847" lon="5.56806">
        <ele>120.4</ele>
        <time>2013-02-17T12:21:33Z</time>
      </trkpt>
      <trkpt lat="50.54857" lon="5.56795">
        <ele>121</ele>
        <time>2013-02-17T12:21:36Z</time>
      </trkpt>
      <trkpt lat="50.54868" lon="5.56775">
        <ele>120.1</ele>
        <time>2013-02-17T12:21:41Z</time>
      </trkpt>
      <trkpt lat="50.5488" lon="5.56756">
        <ele>119</ele>
        <time>2013-02-17T12:21:46Z</time>
      </trkpt>
      <trkpt lat="50.549" lon="5.56725">
        <ele>120.5</ele>
        <time>2013-02-17T12:21:53Z</time>
      </trkpt>
      <trkpt lat="50.54916" lon="5.567">
        <ele>121.4</ele>
        <time>2013-02-17T12:21:59Z</time>
      </trkpt>
      <trkpt lat="50.54931" lon="5.56675">
        <ele>120.8</ele>
        <time>2013-02-17T12:22:05Z</time>
      </trkpt>
      <trkpt lat="50.54942" lon="5.56649">
        <ele>122</ele>
        <time>2013-02-17T12:22:11Z</time>
      </trkpt>
      <trkpt lat="50.5495" lon="5.56627">
        <ele>125.6</ele>
        <time>2013-02-17T12:22:16Z</time>
      </trkpt>
      <trkpt lat="50.54964" lon="5.56601">
        <ele>119.9</ele>
        <time>2013-02-17T12:22:23Z</time>
      </trkpt>
      <trkpt lat="50.54976" lon="5.56587">
        <ele>121.6</ele>
        <time>2013-02-17T12:22:27Z</time>
      </trkpt>
      <trkpt lat="50.54991" lon="5.56573">
        <ele>122</ele>
        <time>2013-02-17T12:22:33Z</time>
      </trkpt>
      <trkpt lat="50.55012" lon="5.56548">
        <ele>118.7</ele>
        <time>2013-02-17T12:22:42Z</time>
      </trkpt>
      <trkpt lat="50.55026" lon="5.56524">
        <ele>121.5</ele>
        <time>2013-02-17T12:22:49Z</time>
      </trkpt>
      <trkpt lat="50.55039" lon="5.56492">
        <ele>122.5</ele>
        <time>2013-02-17T12:22:56Z</time>
      </trkpt>
      <trkpt lat="50.55044" lon="5.56477">
        <ele>123.1</ele>
        <time>2013-02-17T12:22:59Z</time>
      </trkpt>
      <trkpt lat="50.55058" lon="5.56443">
        <ele>126.4</ele>
        <time>2013-02-17T12:23:06Z</time>
      </trkpt>
      <trkpt lat="50.55072" lon="5.56422">
        <ele>129.7</ele>
        <time>2013-02-17T12:23:12Z</time>
      </trkpt>
      <trkpt lat="50.55089" lon="5.56381">
        <ele>130.6</ele>
        <time>2013-02-17T12:23:21Z</time>
      </trkpt>
      <trkpt lat="50.55106" lon="5.56352">
        <ele>130.8</ele>
        <time>2013-02-17T12:23:28Z</time>
      </trkpt>
      <trkpt lat="50.55115" lon="5.56311">
        <ele>130.8</ele>
        <time>2013-02-17T12:23:35Z</time>
      </trkpt>
      <trkpt lat="50.5512" lon="5.56257">
        <ele>128.7</ele>
        <time>2013-02-17T12:23:40Z</time>
      </trkpt>
      <trkpt lat="50.55133" lon="5.56205">
        <ele>127.9</ele>
        <time>2013-02-17T12:23:47Z</time>
      </trkpt>
      <trkpt lat="50.55133" lon="5.56147">
        <ele>127.5</ele>
        <time>2013-02-17T12:23:53Z</time>
      </trkpt>
      <trkpt lat="50.55137" lon="5.56099">
        <ele>126.1</ele>
        <time>2013-02-17T12:23:59Z</time>
      </trkpt>
      <trkpt lat="50.55141" lon="5.56062">
        <ele>123.7</ele>
        <time>2013-02-17T12:24:04Z</time>
      </trkpt>
      <trkpt lat="50.55144" lon="5.56014">
        <ele>120.8</ele>
        <time>2013-02-17T12:24:10Z</time>
      </trkpt>
      <trkpt lat="50.55151" lon="5.55984">
        <ele>117.4</ele>
        <time>2013-02-17T12:24:15Z</time>
      </trkpt>
      <trkpt lat="50.55155" lon="5.55951">
        <ele>121</ele>
        <time>2013-02-17T12:24:22Z</time>
      </trkpt>
      <trkpt lat="50.55141" lon="5.55897">
        <ele>121.1</ele>
        <time>2013-02-17T12:24:29Z</time>
      </trkpt>
      <trkpt lat="50.55119" lon="5.55871">
        <ele>121.4</ele>
        <time>2013-02-17T12:24:34Z</time>
      </trkpt>
      <trkpt lat="50.55101" lon="5.55862">
        <ele>122.2</ele>
        <time>2013-02-17T12:24:38Z</time>
      </trkpt>
      <trkpt lat="50.55084" lon="5.55869">
        <ele>120.3</ele>
        <time>2013-02-17T12:24:43Z</time>
      </trkpt>
      <trkpt lat="50.5506" lon="5.55879">
        <ele>118.9</ele>
        <time>2013-02-17T12:24:52Z</time>
      </trkpt>
      <trkpt lat="50.55036" lon="5.55904">
        <ele>117.6</ele>
        <time>2013-02-17T12:25:00Z</time>
      </trkpt>
      <trkpt lat="50.5503" lon="5.55934">
        <ele>115.2</ele>
        <time>2013-02-17T12:25:07Z</time>
      </trkpt>
      <trkpt lat="50.55027" lon="5.55956">
        <ele>119.1</ele>
        <time>2013-02-17T12:25:14Z</time>
      </trkpt>
      <trkpt lat="50.55027" lon="5.55956">
        <ele>119.1</ele>
        <time>2013-02-17T12:25:22Z</time>
      </trkpt>
      <trkpt lat="50.55027" lon="5.55956">
        <ele>82</ele>
        <time>2013-02-17T12:25:22Z</time>
      </trkpt>
      <trkpt lat="50.55027" lon="5.55956">
        <ele>82</ele>
        <time>2013-02-17T12:25:29Z</time>
      </trkpt>
      <trkpt lat="50.55035" lon="5.55923">
        <ele>110.5</ele>
        <time>2013-02-17T12:25:29Z</time>
      </trkpt>
      <trkpt lat="50.55053" lon="5.55895">
        <ele>106.6</ele>
        <time>2013-02-17T12:25:37Z</time>
      </trkpt>
      <trkpt lat="50.55083" lon="5.55876">
        <ele>103.7</ele>
        <time>2013-02-17T12:25:45Z</time>
      </trkpt>
      <trkpt lat="50.55097" lon="5.55865">
        <ele>103.3</ele>
        <time>2013-02-17T12:25:51Z</time>
      </trkpt>
      <trkpt lat="50.55103" lon="5.55851">
        <ele>107.4</ele>
        <time>2013-02-17T12:25:58Z</time>
      </trkpt>
      <trkpt lat="50.55106" lon="5.55823">
        <ele>108.2</ele>
        <time>2013-02-17T12:26:06Z</time>
      </trkpt>
      <trkpt lat="50.55107" lon="5.55787">
        <ele>109.6</ele>
        <time>2013-02-17T12:26:14Z</time>
      </trkpt>
      <trkpt lat="50.55103" lon="5.55752">
        <ele>110.8</ele>
        <time>2013-02-17T12:26:22Z</time>
      </trkpt>
      <trkpt lat="50.55092" lon="5.55747">
        <ele>116.7</ele>
        <time>2013-02-17T12:26:36Z</time>
      </trkpt>
      <trkpt lat="50.55101" lon="5.55801">
        <ele>119.6</ele>
        <time>2013-02-17T12:26:48Z</time>
      </trkpt>
      <trkpt lat="50.55104" lon="5.55839">
        <ele>121.6</ele>
        <time>2013-02-17T12:26:56Z</time>
      </trkpt>
      <trkpt lat="50.55098" lon="5.5585">
        <ele>127.4</ele>
        <time>2013-02-17T12:27:05Z</time>
      </trkpt>
      <trkpt lat="50.55098" lon="5.5585">
        <ele>127.4</ele>
        <time>2013-02-17T12:27:13Z</time>
      </trkpt>
      <trkpt lat="50.55098" lon="5.5585">
        <ele>83.3</ele>
        <time>2013-02-17T12:27:13Z</time>
      </trkpt>
      <trkpt lat="50.55098" lon="5.5585">
        <ele>83.3</ele>
        <time>2013-02-17T12:27:24Z</time>
      </trkpt>
      <trkpt lat="50.55084" lon="5.55864">
        <ele>127.7</ele>
        <time>2013-02-17T12:27:24Z</time>
      </trkpt>
      <trkpt lat="50.5507" lon="5.55873">
        <ele>127.4</ele>
        <time>2013-02-17T12:27:29Z</time>
      </trkpt>
      <trkpt lat="50.55057" lon="5.5588">
        <ele>126.8</ele>
        <time>2013-02-17T12:27:33Z</time>
      </trkpt>
      <trkpt lat="50.55036" lon="5.55908">
        <ele>126</ele>
        <time>2013-02-17T12:27:39Z</time>
      </trkpt>
      <trkpt lat="50.55026" lon="5.55939">
        <ele>123.4</ele>
        <time>2013-02-17T12:27:44Z</time>
      </trkpt>
      <trkpt lat="50.55013" lon="5.55996">
        <ele>122</ele>
        <time>2013-02-17T12:27:51Z</time>
      </trkpt>
      <trkpt lat="50.55004" lon="5.56036">
        <ele>122.5</ele>
        <time>2013-02-17T12:27:56Z</time>
      </trkpt>
      <trkpt lat="50.54995" lon="5.56072">
        <ele>122.7</ele>
        <time>2013-02-17T12:28:01Z</time>
      </trkpt>
      <trkpt lat="50.54981" lon="5.56122">
        <ele>126.7</ele>
        <time>2013-02-17T12:28:07Z</time>
      </trkpt>
      <trkpt lat="50.54975" lon="5.56153">
        <ele>128.6</ele>
        <time>2013-02-17T12:28:12Z</time>
      </trkpt>
      <trkpt lat="50.54968" lon="5.56178">
        <ele>126.2</ele>
        <time>2013-02-17T12:28:17Z</time>
      </trkpt>
      <trkpt lat="50.54952" lon="5.56227">
        <ele>124.9</ele>
        <time>2013-02-17T12:28:24Z</time>
      </trkpt>
      <trkpt lat="50.5494" lon="5.56273">
        <ele>124.4</ele>
        <time>2013-02-17T12:28:30Z</time>
      </trkpt>
      <trkpt lat="50.54932" lon="5.56317">
        <ele>127.4</ele>
        <time>2013-02-17T12:28:36Z</time>
      </trkpt>
      <trkpt lat="50.54927" lon="5.56361">
        <ele>127.8</ele>
        <time>2013-02-17T12:28:42Z</time>
      </trkpt>
      <trkpt lat="50.54927" lon="5.56392">
        <ele>132.3</ele>
        <time>2013-02-17T12:28:47Z</time>
      </trkpt>
      <trkpt lat="50.54932" lon="5.56408">
        <ele>133.6</ele>
        <time>2013-02-17T12:28:56Z</time>
      </trkpt>
      <trkpt lat="50.54971" lon="5.56386">
        <ele>129.1</ele>
        <time>2013-02-17T12:29:12Z</time>
      </trkpt>
      <trkpt lat="50.54988" lon="5.56378">
        <ele>125.2</ele>
        <time>2013-02-17T12:29:21Z</time>
      </trkpt>
      <trkpt lat="50.54998" lon="5.56377">
        <ele>124.6</ele>
        <time>2013-02-17T12:29:30Z</time>
      </trkpt>
      <trkpt lat="50.5502" lon="5.56373">
        <ele>126.3</ele>
        <time>2013-02-17T12:29:46Z</time>
      </trkpt>
      <trkpt lat="50.55035" lon="5.56369">
        <ele>122.1</ele>
        <time>2013-02-17T12:29:57Z</time>
      </trkpt>
      <trkpt lat="50.55042" lon="5.56367">
        <ele>126.5</ele>
        <time>2013-02-17T12:30:09Z</time>
      </trkpt>
      <trkpt lat="50.5506" lon="5.56359">
        <ele>130.2</ele>
        <time>2013-02-17T12:30:26Z</time>
      </trkpt>
      <trkpt lat="50.55079" lon="5.5636">
        <ele>127.4</ele>
        <time>2013-02-17T12:30:36Z</time>
      </trkpt>
      <trkpt lat="50.5509" lon="5.56365">
        <ele>134.7</ele>
        <time>2013-02-17T12:30:49Z</time>
      </trkpt>
      <trkpt lat="50.55085" lon="5.56388">
        <ele>142.9</ele>
        <time>2013-02-17T12:31:04Z</time>
      </trkpt>
      <trkpt lat="50.55074" lon="5.56408">
        <ele>143.8</ele>
        <time>2013-02-17T12:31:13Z</time>
      </trkpt>
      <trkpt lat="50.5506" lon="5.56432">
        <ele>143.8</ele>
        <time>2013-02-17T12:31:18Z</time>
      </trkpt>
      <trkpt lat="50.55046" lon="5.56464">
        <ele>143.5</ele>
        <time>2013-02-17T12:31:24Z</time>
      </trkpt>
      <trkpt lat="50.55027" lon="5.56497">
        <ele>138.7</ele>
        <time>2013-02-17T12:31:31Z</time>
      </trkpt>
      <trkpt lat="50.55017" lon="5.56516">
        <ele>138.1</ele>
        <time>2013-02-17T12:31:35Z</time>
      </trkpt>
      <trkpt lat="50.54993" lon="5.56551">
        <ele>138.2</ele>
        <time>2013-02-17T12:31:41Z</time>
      </trkpt>
      <trkpt lat="50.54967" lon="5.56578">
        <ele>138</ele>
        <time>2013-02-17T12:31:46Z</time>
      </trkpt>
      <trkpt lat="50.54937" lon="5.56633">
        <ele>137.6</ele>
        <time>2013-02-17T12:31:51Z</time>
      </trkpt>
      <trkpt lat="50.54909" lon="5.56686">
        <ele>136.8</ele>
        <time>2013-02-17T12:31:56Z</time>
      </trkpt>
      <trkpt lat="50.54876" lon="5.56745">
        <ele>136.8</ele>
        <time>2013-02-17T12:32:02Z</time>
      </trkpt>
      <trkpt lat="50.54837" lon="5.56808">
        <ele>136.8</ele>
        <time>2013-02-17T12:32:08Z</time>
      </trkpt>
      <trkpt lat="50.54815" lon="5.56841">
        <ele>134.9</ele>
        <time>2013-02-17T12:32:13Z</time>
      </trkpt>
      <trkpt lat="50.54794" lon="5.56863">
        <ele>133.4</ele>
        <time>2013-02-17T12:32:18Z</time>
      </trkpt>
      <trkpt lat="50.54728" lon="5.56908">
        <ele>131.6</ele>
        <time>2013-02-17T12:32:27Z</time>
      </trkpt>
      <trkpt lat="50.5469" lon="5.56951">
        <ele>131</ele>
        <time>2013-02-17T12:32:32Z</time>
      </trkpt>
      <trkpt lat="50.54656" lon="5.56972">
        <ele>130.2</ele>
        <time>2013-02-17T12:32:36Z</time>
      </trkpt>
      <trkpt lat="50.5461" lon="5.57011">
        <ele>129.5</ele>
        <time>2013-02-17T12:32:42Z</time>
      </trkpt>
      <trkpt lat="50.54561" lon="5.57031">
        <ele>129.8</ele>
        <time>2013-02-17T12:32:48Z</time>
      </trkpt>
      <trkpt lat="50.54535" lon="5.57048">
        <ele>129.6</ele>
        <time>2013-02-17T12:32:53Z</time>
      </trkpt>
      <trkpt lat="50.54492" lon="5.57049">
        <ele>132.3</ele>
        <time>2013-02-17T12:32:59Z</time>
      </trkpt>
      <trkpt lat="50.54457" lon="5.57036">
        <ele>131.9</ele>
        <time>2013-02-17T12:33:05Z</time>
      </trkpt>
      <trkpt lat="50.54433" lon="5.57025">
        <ele>130</ele>
        <time>2013-02-17T12:33:11Z</time>
      </trkpt>
      <trkpt lat="50.54414" lon="5.57021">
        <ele>129.1</ele>
        <time>2013-02-17T12:33:16Z</time>
      </trkpt>
      <trkpt lat="50.54393" lon="5.57017">
        <ele>128.5</ele>
        <time>2013-02-17T12:33:21Z</time>
      </trkpt>
      <trkpt lat="50.54366" lon="5.56994">
        <ele>128.3</ele>
        <time>2013-02-17T12:33:27Z</time>
      </trkpt>
      <trkpt lat="50.54351" lon="5.56979">
        <ele>127.7</ele>
        <time>2013-02-17T12:33:31Z</time>
      </trkpt>
      <trkpt lat="50.54334" lon="5.56956">
        <ele>125.4</ele>
        <time>2013-02-17T12:33:36Z</time>
      </trkpt>
      <trkpt lat="50.54319" lon="5.56937">
        <ele>125.7</ele>
        <time>2013-02-17T12:33:42Z</time>
      </trkpt>
      <trkpt lat="50.54272" lon="5.5688">
        <ele>123.4</ele>
        <time>2013-02-17T12:33:50Z</time>
      </trkpt>
      <trkpt lat="50.54246" lon="5.56854">
        <ele>122.7</ele>
        <time>2013-02-17T12:33:55Z</time>
      </trkpt>
      <trkpt lat="50.54232" lon="5.5684">
        <ele>120.2</ele>
        <time>2013-02-17T12:33:58Z</time>
      </trkpt>
      <trkpt lat="50.54205" lon="5.56835">
        <ele>119.6</ele>
        <time>2013-02-17T12:34:03Z</time>
      </trkpt>
      <trkpt lat="50.54168" lon="5.56835">
        <ele>118.5</ele>
        <time>2013-02-17T12:34:10Z</time>
      </trkpt>
      <trkpt lat="50.54137" lon="5.56851">
        <ele>117.2</ele>
        <time>2013-02-17T12:34:16Z</time>
      </trkpt>
      <trkpt lat="50.5411" lon="5.56875">
        <ele>116.8</ele>
        <time>2013-02-17T12:34:22Z</time>
      </trkpt>
      <trkpt lat="50.54084" lon="5.56897">
        <ele>115.1</ele>
        <time>2013-02-17T12:34:28Z</time>
      </trkpt>
      <trkpt lat="50.54064" lon="5.56912">
        <ele>115.5</ele>
        <time>2013-02-17T12:34:33Z</time>
      </trkpt>
      <trkpt lat="50.54048" lon="5.56925">
        <ele>114.7</ele>
        <time>2013-02-17T12:34:37Z</time>
      </trkpt>
      <trkpt lat="50.54036" lon="5.5694">
        <ele>112.7</ele>
        <time>2013-02-17T12:34:41Z</time>
      </trkpt>
      <trkpt lat="50.54028" lon="5.56954">
        <ele>112.6</ele>
        <time>2013-02-17T12:34:44Z</time>
      </trkpt>
      <trkpt lat="50.54017" lon="5.56974">
        <ele>113.2</ele>
        <time>2013-02-17T12:34:47Z</time>
      </trkpt>
      <trkpt lat="50.53997" lon="5.57029">
        <ele>112.6</ele>
        <time>2013-02-17T12:34:53Z</time>
      </trkpt>
      <trkpt lat="50.53988" lon="5.57067">
        <ele>114.7</ele>
        <time>2013-02-17T12:34:58Z</time>
      </trkpt>
      <trkpt lat="50.53976" lon="5.57107">
        <ele>117.5</ele>
        <time>2013-02-17T12:35:04Z</time>
      </trkpt>
      <trkpt lat="50.53966" lon="5.57151">
        <ele>120.5</ele>
        <time>2013-02-17T12:35:10Z</time>
      </trkpt>
      <trkpt lat="50.53964" lon="5.57204">
        <ele>123.3</ele>
        <time>2013-02-17T12:35:16Z</time>
      </trkpt>
      <trkpt lat="50.53959" lon="5.57248">
        <ele>126.4</ele>
        <time>2013-02-17T12:35:22Z</time>
      </trkpt>
      <trkpt lat="50.53954" lon="5.57296">
        <ele>131.1</ele>
        <time>2013-02-17T12:35:28Z</time>
      </trkpt>
      <trkpt lat="50.53963" lon="5.57342">
        <ele>129.9</ele>
        <time>2013-02-17T12:35:33Z</time>
      </trkpt>
      <trkpt lat="50.53965" lon="5.57398">
        <ele>130.8</ele>
        <time>2013-02-17T12:35:39Z</time>
      </trkpt>
      <trkpt lat="50.53973" lon="5.57438">
        <ele>127.8</ele>
        <time>2013-02-17T12:35:44Z</time>
      </trkpt>
      <trkpt lat="50.53977" lon="5.57485">
        <ele>127.3</ele>
        <time>2013-02-17T12:35:50Z</time>
      </trkpt>
      <trkpt lat="50.53983" lon="5.57515">
        <ele>124.6</ele>
        <time>2013-02-17T12:35:54Z</time>
      </trkpt>
      <trkpt lat="50.53997" lon="5.57564">
        <ele>127.2</ele>
        <time>2013-02-17T12:36:00Z</time>
      </trkpt>
      <trkpt lat="50.54008" lon="5.5762">
        <ele>129.1</ele>
        <time>2013-02-17T12:36:06Z</time>
      </trkpt>
      <trkpt lat="50.54019" lon="5.57674">
        <ele>130.2</ele>
        <time>2013-02-17T12:36:12Z</time>
      </trkpt>
      <trkpt lat="50.54029" lon="5.57731">
        <ele>132.3</ele>
        <time>2013-02-17T12:36:18Z</time>
      </trkpt>
      <trkpt lat="50.54043" lon="5.57795">
        <ele>133.9</ele>
        <time>2013-02-17T12:36:26Z</time>
      </trkpt>
      <trkpt lat="50.54057" lon="5.5784">
        <ele>132.1</ele>
        <time>2013-02-17T12:36:33Z</time>
      </trkpt>
      <trkpt lat="50.54069" lon="5.57875">
        <ele>130.2</ele>
        <time>2013-02-17T12:36:39Z</time>
      </trkpt>
      <trkpt lat="50.5408" lon="5.57912">
        <ele>129.1</ele>
        <time>2013-02-17T12:36:45Z</time>
      </trkpt>
      <trkpt lat="50.54085" lon="5.57949">
        <ele>129.2</ele>
        <time>2013-02-17T12:36:51Z</time>
      </trkpt>
      <trkpt lat="50.54057" lon="5.57969">
        <ele>129.6</ele>
        <time>2013-02-17T12:36:57Z</time>
      </trkpt>
      <trkpt lat="50.54043" lon="5.57978">
        <ele>129.9</ele>
        <time>2013-02-17T12:37:00Z</time>
      </trkpt>
      <trkpt lat="50.54013" lon="5.57992">
        <ele>130.8</ele>
        <time>2013-02-17T12:37:06Z</time>
      </trkpt>
      <trkpt lat="50.53986" lon="5.58011">
        <ele>129.8</ele>
        <time>2013-02-17T12:37:12Z</time>
      </trkpt>
      <trkpt lat="50.5396" lon="5.58033">
        <ele>131.8</ele>
        <time>2013-02-17T12:37:19Z</time>
      </trkpt>
      <trkpt lat="50.53936" lon="5.58056">
        <ele>133.1</ele>
        <time>2013-02-17T12:37:26Z</time>
      </trkpt>
      <trkpt lat="50.53916" lon="5.58068">
        <ele>134</ele>
        <time>2013-02-17T12:37:35Z</time>
      </trkpt>
      <trkpt lat="50.53916" lon="5.58068">
        <ele>134</ele>
        <time>2013-02-17T12:37:42Z</time>
      </trkpt>
      <trkpt lat="50.53916" lon="5.58068">
        <ele>77</ele>
        <time>2013-02-17T12:37:42Z</time>
      </trkpt>
      <trkpt lat="50.53916" lon="5.58068">
        <ele>77</ele>
        <time>2013-02-17T12:37:45Z</time>
      </trkpt>
      <trkpt lat="50.53938" lon="5.58058">
        <ele>124.5</ele>
        <time>2013-02-17T12:37:45Z</time>
      </trkpt>
      <trkpt lat="50.53963" lon="5.58039">
        <ele>119.7</ele>
        <time>2013-02-17T12:37:52Z</time>
      </trkpt>
      <trkpt lat="50.5401" lon="5.58003">
        <ele>116.3</ele>
        <time>2013-02-17T12:37:59Z</time>
      </trkpt>
      <trkpt lat="50.54043" lon="5.57979">
        <ele>120.6</ele>
        <time>2013-02-17T12:38:05Z</time>
      </trkpt>
      <trkpt lat="50.54077" lon="5.5796">
        <ele>120.6</ele>
        <time>2013-02-17T12:38:10Z</time>
      </trkpt>
      <trkpt lat="50.54094" lon="5.57935">
        <ele>119.8</ele>
        <time>2013-02-17T12:38:16Z</time>
      </trkpt>
      <trkpt lat="50.5408" lon="5.57894">
        <ele>118.2</ele>
        <time>2013-02-17T12:38:23Z</time>
      </trkpt>
      <trkpt lat="50.54086" lon="5.57862">
        <ele>110.2</ele>
        <time>2013-02-17T12:38:30Z</time>
      </trkpt>
      <trkpt lat="50.54102" lon="5.57849">
        <ele>108.1</ele>
        <time>2013-02-17T12:38:36Z</time>
      </trkpt>
      <trkpt lat="50.54113" lon="5.57848">
        <ele>107.8</ele>
        <time>2013-02-17T12:38:41Z</time>
      </trkpt>
      <trkpt lat="50.54113" lon="5.57848">
        <ele>81.5</ele>
        <time>2013-02-17T12:38:48Z</time>
      </trkpt>
      <trkpt lat="50.54113" lon="5.57848">
        <ele>81.5</ele>
        <time>2013-02-17T12:38:53Z</time>
      </trkpt>
      <trkpt lat="50.54118" lon="5.57846">
        <ele>111.1</ele>
        <time>2013-02-17T12:38:53Z</time>
      </trkpt>
      <trkpt lat="50.5413" lon="5.57828">
        <ele>110.5</ele>
        <time>2013-02-17T12:39:02Z</time>
      </trkpt>
      <trkpt lat="50.54156" lon="5.57806">
        <ele>112.3</ele>
        <time>2013-02-17T12:39:14Z</time>
      </trkpt>
      <trkpt lat="50.54158" lon="5.57805">
        <ele>111.1</ele>
        <time>2013-02-17T12:39:18Z</time>
      </trkpt>
      <trkpt lat="50.54158" lon="5.57805">
        <ele>85</ele>
        <time>2013-02-17T12:39:23Z</time>
      </trkpt>
      <trkpt lat="50.54158" lon="5.57805">
        <ele>85</ele>
        <time>2013-02-17T12:39:29Z</time>
      </trkpt>
      <trkpt lat="50.54171" lon="5.57809">
        <ele>119.5</ele>
        <time>2013-02-17T12:39:29Z</time>
      </trkpt>
      <trkpt lat="50.54187" lon="5.5784">
        <ele>120.6</ele>
        <time>2013-02-17T12:39:40Z</time>
      </trkpt>
      <trkpt lat="50.54198" lon="5.57864">
        <ele>128.4</ele>
        <time>2013-02-17T12:39:48Z</time>
      </trkpt>
      <trkpt lat="50.54205" lon="5.5788">
        <ele>129.2</ele>
        <time>2013-02-17T12:39:54Z</time>
      </trkpt>
      <trkpt lat="50.54232" lon="5.57889">
        <ele>135.5</ele>
        <time>2013-02-17T12:40:03Z</time>
      </trkpt>
      <trkpt lat="50.54247" lon="5.57883">
        <ele>134.9</ele>
        <time>2013-02-17T12:40:10Z</time>
      </trkpt>
      <trkpt lat="50.54256" lon="5.57886">
        <ele>133.8</ele>
        <time>2013-02-17T12:40:17Z</time>
      </trkpt>
      <trkpt lat="50.54267" lon="5.57919">
        <ele>134.4</ele>
        <time>2013-02-17T12:40:31Z</time>
      </trkpt>
      <trkpt lat="50.5427" lon="5.57937">
        <ele>134.9</ele>
        <time>2013-02-17T12:40:39Z</time>
      </trkpt>
      <trkpt lat="50.54284" lon="5.57966">
        <ele>141.8</ele>
        <time>2013-02-17T12:40:54Z</time>
      </trkpt>
      <trkpt lat="50.54292" lon="5.57989">
        <ele>147.8</ele>
        <time>2013-02-17T12:41:05Z</time>
      </trkpt>
      <trkpt lat="50.54297" lon="5.58015">
        <ele>143.8</ele>
        <time>2013-02-17T12:41:16Z</time>
      </trkpt>
      <trkpt lat="50.54305" lon="5.58029">
        <ele>149</ele>
        <time>2013-02-17T12:41:23Z</time>
      </trkpt>
      <trkpt lat="50.54318" lon="5.58047">
        <ele>149</ele>
        <time>2013-02-17T12:41:33Z</time>
      </trkpt>
      <trkpt lat="50.54331" lon="5.58069">
        <ele>154.4</ele>
        <time>2013-02-17T12:41:47Z</time>
      </trkpt>
      <trkpt lat="50.54348" lon="5.58094">
        <ele>162.2</ele>
        <time>2013-02-17T12:42:02Z</time>
      </trkpt>
      <trkpt lat="50.54362" lon="5.58117">
        <ele>166.6</ele>
        <time>2013-02-17T12:42:15Z</time>
      </trkpt>
      <trkpt lat="50.5437" lon="5.58131">
        <ele>163.7</ele>
        <time>2013-02-17T12:42:24Z</time>
      </trkpt>
      <trkpt lat="50.54383" lon="5.58151">
        <ele>162.3</ele>
        <time>2013-02-17T12:42:36Z</time>
      </trkpt>
      <trkpt lat="50.54398" lon="5.58172">
        <ele>168.3</ele>
        <time>2013-02-17T12:42:50Z</time>
      </trkpt>
      <trkpt lat="50.54412" lon="5.58185">
        <ele>165.3</ele>
        <time>2013-02-17T12:43:01Z</time>
      </trkpt>
      <trkpt lat="50.54412" lon="5.58185">
        <ele>127.4</ele>
        <time>2013-02-17T12:43:09Z</time>
      </trkpt>
      <trkpt lat="50.54412" lon="5.58185">
        <ele>127.4</ele>
        <time>2013-02-17T12:43:13Z</time>
      </trkpt>
      <trkpt lat="50.54421" lon="5.58185">
        <ele>162.6</ele>
        <time>2013-02-17T12:43:13Z</time>
      </trkpt>
      <trkpt lat="50.54437" lon="5.58187">
        <ele>160.5</ele>
        <time>2013-02-17T12:43:18Z</time>
      </trkpt>
      <trkpt lat="50.54453" lon="5.58188">
        <ele>158.8</ele>
        <time>2013-02-17T12:43:24Z</time>
      </trkpt>
      <trkpt lat="50.54472" lon="5.58176">
        <ele>158.5</ele>
        <time>2013-02-17T12:43:35Z</time>
      </trkpt>
      <trkpt lat="50.54487" lon="5.58165">
        <ele>164.2</ele>
        <time>2013-02-17T12:43:44Z</time>
      </trkpt>
      <trkpt lat="50.54503" lon="5.58153">
        <ele>163.5</ele>
        <time>2013-02-17T12:43:55Z</time>
      </trkpt>
      <trkpt lat="50.54518" lon="5.58128">
        <ele>163.9</ele>
        <time>2013-02-17T12:44:11Z</time>
      </trkpt>
      <trkpt lat="50.54533" lon="5.58103">
        <ele>166.3</ele>
        <time>2013-02-17T12:44:25Z</time>
      </trkpt>
      <trkpt lat="50.54537" lon="5.58093">
        <ele>168.4</ele>
        <time>2013-02-17T12:44:30Z</time>
      </trkpt>
      <trkpt lat="50.54537" lon="5.58093">
        <ele>144.9</ele>
        <time>2013-02-17T12:44:37Z</time>
      </trkpt>
      <trkpt lat="50.54537" lon="5.58093">
        <ele>144.9</ele>
        <time>2013-02-17T12:44:43Z</time>
      </trkpt>
      <trkpt lat="50.54546" lon="5.58088">
        <ele>163.7</ele>
        <time>2013-02-17T12:44:43Z</time>
      </trkpt>
      <trkpt lat="50.54568" lon="5.58072">
        <ele>167.7</ele>
        <time>2013-02-17T12:44:57Z</time>
      </trkpt>
      <trkpt lat="50.54585" lon="5.58056">
        <ele>173.5</ele>
        <time>2013-02-17T12:45:11Z</time>
      </trkpt>
      <trkpt lat="50.54596" lon="5.5805">
        <ele>173.1</ele>
        <time>2013-02-17T12:45:19Z</time>
      </trkpt>
      <trkpt lat="50.54605" lon="5.58044">
        <ele>172.9</ele>
        <time>2013-02-17T12:45:27Z</time>
      </trkpt>
      <trkpt lat="50.54615" lon="5.58042">
        <ele>172.7</ele>
        <time>2013-02-17T12:45:35Z</time>
      </trkpt>
      <trkpt lat="50.54615" lon="5.58042">
        <ele>154.8</ele>
        <time>2013-02-17T12:45:42Z</time>
      </trkpt>
      <trkpt lat="50.54615" lon="5.58042">
        <ele>154.8</ele>
        <time>2013-02-17T12:45:51Z</time>
      </trkpt>
      <trkpt lat="50.5462" lon="5.58041">
        <ele>175.4</ele>
        <time>2013-02-17T12:45:51Z</time>
      </trkpt>
      <trkpt lat="50.54588" lon="5.58048">
        <ele>187.1</ele>
        <time>2013-02-17T12:46:24Z</time>
      </trkpt>
      <trkpt lat="50.54569" lon="5.58064">
        <ele>192.6</ele>
        <time>2013-02-17T12:46:31Z</time>
      </trkpt>
      <trkpt lat="50.5455" lon="5.5808">
        <ele>194.1</ele>
        <time>2013-02-17T12:46:39Z</time>
      </trkpt>
      <trkpt lat="50.54531" lon="5.58098">
        <ele>196.1</ele>
        <time>2013-02-17T12:46:48Z</time>
      </trkpt>
      <trkpt lat="50.54524" lon="5.58085">
        <ele>193.9</ele>
        <time>2013-02-17T12:46:57Z</time>
      </trkpt>
      <trkpt lat="50.54519" lon="5.58065">
        <ele>190.7</ele>
        <time>2013-02-17T12:47:05Z</time>
      </trkpt>
      <trkpt lat="50.54516" lon="5.58047">
        <ele>190.2</ele>
        <time>2013-02-17T12:47:12Z</time>
      </trkpt>
      <trkpt lat="50.54509" lon="5.5802">
        <ele>190.1</ele>
        <time>2013-02-17T12:47:23Z</time>
      </trkpt>
      <trkpt lat="50.54496" lon="5.57981">
        <ele>181.9</ele>
        <time>2013-02-17T12:47:36Z</time>
      </trkpt>
      <trkpt lat="50.54487" lon="5.57962">
        <ele>180.4</ele>
        <time>2013-02-17T12:47:46Z</time>
      </trkpt>
      <trkpt lat="50.54478" lon="5.57933">
        <ele>181.6</ele>
        <time>2013-02-17T12:47:57Z</time>
      </trkpt>
      <trkpt lat="50.54472" lon="5.57916">
        <ele>180.6</ele>
        <time>2013-02-17T12:48:04Z</time>
      </trkpt>
      <trkpt lat="50.54464" lon="5.57891">
        <ele>179.9</ele>
        <time>2013-02-17T12:48:12Z</time>
      </trkpt>
      <trkpt lat="50.54454" lon="5.57859">
        <ele>182.4</ele>
        <time>2013-02-17T12:48:24Z</time>
      </trkpt>
      <trkpt lat="50.54442" lon="5.57831">
        <ele>186.4</ele>
        <time>2013-02-17T12:48:37Z</time>
      </trkpt>
      <trkpt lat="50.5443" lon="5.57787">
        <ele>185.1</ele>
        <time>2013-02-17T12:48:55Z</time>
      </trkpt>
      <trkpt lat="50.54426" lon="5.57754">
        <ele>184.9</ele>
        <time>2013-02-17T12:49:05Z</time>
      </trkpt>
      <trkpt lat="50.54423" lon="5.57734">
        <ele>182.8</ele>
        <time>2013-02-17T12:49:10Z</time>
      </trkpt>
      <trkpt lat="50.54421" lon="5.57718">
        <ele>183.3</ele>
        <time>2013-02-17T12:49:14Z</time>
      </trkpt>
      <trkpt lat="50.54419" lon="5.57693">
        <ele>180.7</ele>
        <time>2013-02-17T12:49:21Z</time>
      </trkpt>
      <trkpt lat="50.5442" lon="5.57668">
        <ele>184.6</ele>
        <time>2013-02-17T12:49:31Z</time>
      </trkpt>
      <trkpt lat="50.54413" lon="5.57626">
        <ele>180.3</ele>
        <time>2013-02-17T12:49:44Z</time>
      </trkpt>
      <trkpt lat="50.54409" lon="5.57589">
        <ele>179.7</ele>
        <time>2013-02-17T12:49:53Z</time>
      </trkpt>
      <trkpt lat="50.54408" lon="5.57567">
        <ele>181.3</ele>
        <time>2013-02-17T12:49:59Z</time>
      </trkpt>
      <trkpt lat="50.54405" lon="5.57543">
        <ele>182</ele>
        <time>2013-02-17T12:50:05Z</time>
      </trkpt>
      <trkpt lat="50.54403" lon="5.5752">
        <ele>181.2</ele>
        <time>2013-02-17T12:50:11Z</time>
      </trkpt>
      <trkpt lat="50.54401" lon="5.57506">
        <ele>181.4</ele>
        <time>2013-02-17T12:50:14Z</time>
      </trkpt>
      <trkpt lat="50.54394" lon="5.57473">
        <ele>182.3</ele>
        <time>2013-02-17T12:50:21Z</time>
      </trkpt>
      <trkpt lat="50.54395" lon="5.57443">
        <ele>184.6</ele>
        <time>2013-02-17T12:50:28Z</time>
      </trkpt>
      <trkpt lat="50.54385" lon="5.57387">
        <ele>183.7</ele>
        <time>2013-02-17T12:50:36Z</time>
      </trkpt>
      <trkpt lat="50.54371" lon="5.5734">
        <ele>183.6</ele>
        <time>2013-02-17T12:50:41Z</time>
      </trkpt>
      <trkpt lat="50.54357" lon="5.5731">
        <ele>186.1</ele>
        <time>2013-02-17T12:50:45Z</time>
      </trkpt>
      <trkpt lat="50.54342" lon="5.57279">
        <ele>187.7</ele>
        <time>2013-02-17T12:50:51Z</time>
      </trkpt>
      <trkpt lat="50.5433" lon="5.57261">
        <ele>184.9</ele>
        <time>2013-02-17T12:50:56Z</time>
      </trkpt>
      <trkpt lat="50.54318" lon="5.57245">
        <ele>181.9</ele>
        <time>2013-02-17T12:51:00Z</time>
      </trkpt>
      <trkpt lat="50.54279" lon="5.57188">
        <ele>183.3</ele>
        <time>2013-02-17T12:51:06Z</time>
      </trkpt>
      <trkpt lat="50.54239" lon="5.5714">
        <ele>182.7</ele>
        <time>2013-02-17T12:51:12Z</time>
      </trkpt>
      <trkpt lat="50.54218" lon="5.57108">
        <ele>181.7</ele>
        <time>2013-02-17T12:51:18Z</time>
      </trkpt>
      <trkpt lat="50.54195" lon="5.57088">
        <ele>178</ele>
        <time>2013-02-17T12:51:23Z</time>
      </trkpt>
      <trkpt lat="50.5417" lon="5.57078">
        <ele>176.4</ele>
        <time>2013-02-17T12:51:28Z</time>
      </trkpt>
      <trkpt lat="50.54145" lon="5.57085">
        <ele>173.2</ele>
        <time>2013-02-17T12:51:33Z</time>
      </trkpt>
      <trkpt lat="50.54127" lon="5.57112">
        <ele>170.3</ele>
        <time>2013-02-17T12:51:38Z</time>
      </trkpt>
      <trkpt lat="50.54108" lon="5.57168">
        <ele>167.8</ele>
        <time>2013-02-17T12:51:44Z</time>
      </trkpt>
      <trkpt lat="50.54101" lon="5.57201">
        <ele>165.5</ele>
        <time>2013-02-17T12:51:49Z</time>
      </trkpt>
      <trkpt lat="50.54092" lon="5.57233">
        <ele>161.5</ele>
        <time>2013-02-17T12:51:53Z</time>
      </trkpt>
      <trkpt lat="50.54085" lon="5.57284">
        <ele>158.8</ele>
        <time>2013-02-17T12:51:58Z</time>
      </trkpt>
      <trkpt lat="50.54055" lon="5.57301">
        <ele>161.8</ele>
        <time>2013-02-17T12:52:05Z</time>
      </trkpt>
      <trkpt lat="50.54039" lon="5.57277">
        <ele>157.3</ele>
        <time>2013-02-17T12:52:10Z</time>
      </trkpt>
      <trkpt lat="50.54027" lon="5.57251">
        <ele>146.1</ele>
        <time>2013-02-17T12:52:14Z</time>
      </trkpt>
      <trkpt lat="50.54009" lon="5.57233">
        <ele>141.2</ele>
        <time>2013-02-17T12:52:19Z</time>
      </trkpt>
      <trkpt lat="50.54" lon="5.57294">
        <ele>138</ele>
        <time>2013-02-17T12:52:26Z</time>
      </trkpt>
      <trkpt lat="50.53991" lon="5.57319">
        <ele>137.4</ele>
        <time>2013-02-17T12:52:30Z</time>
      </trkpt>
      <trkpt lat="50.53973" lon="5.57299">
        <ele>140</ele>
        <time>2013-02-17T12:52:35Z</time>
      </trkpt>
      <trkpt lat="50.53961" lon="5.5727">
        <ele>136.8</ele>
        <time>2013-02-17T12:52:43Z</time>
      </trkpt>
      <trkpt lat="50.53962" lon="5.57201">
        <ele>125.4</ele>
        <time>2013-02-17T12:52:52Z</time>
      </trkpt>
      <trkpt lat="50.53966" lon="5.5716">
        <ele>123.5</ele>
        <time>2013-02-17T12:52:58Z</time>
      </trkpt>
      <trkpt lat="50.53973" lon="5.57122">
        <ele>120.5</ele>
        <time>2013-02-17T12:53:04Z</time>
      </trkpt>
      <trkpt lat="50.53985" lon="5.57077">
        <ele>119.8</ele>
        <time>2013-02-17T12:53:11Z</time>
      </trkpt>
      <trkpt lat="50.53998" lon="5.57047">
        <ele>120.7</ele>
        <time>2013-02-17T12:53:16Z</time>
      </trkpt>
      <trkpt lat="50.54011" lon="5.56999">
        <ele>119.8</ele>
        <time>2013-02-17T12:53:21Z</time>
      </trkpt>
      <trkpt lat="50.54034" lon="5.56958">
        <ele>118.5</ele>
        <time>2013-02-17T12:53:28Z</time>
      </trkpt>
      <trkpt lat="50.54054" lon="5.56924">
        <ele>117.9</ele>
        <time>2013-02-17T12:53:34Z</time>
      </trkpt>
      <trkpt lat="50.54074" lon="5.56908">
        <ele>117.6</ele>
        <time>2013-02-17T12:53:40Z</time>
      </trkpt>
      <trkpt lat="50.54093" lon="5.56891">
        <ele>117.3</ele>
        <time>2013-02-17T12:53:45Z</time>
      </trkpt>
      <trkpt lat="50.54116" lon="5.56868">
        <ele>118.1</ele>
        <time>2013-02-17T12:53:52Z</time>
      </trkpt>
      <trkpt lat="50.54145" lon="5.56833">
        <ele>113.2</ele>
        <time>2013-02-17T12:53:58Z</time>
      </trkpt>
      <trkpt lat="50.54164" lon="5.56819">
        <ele>114.2</ele>
        <time>2013-02-17T12:54:04Z</time>
      </trkpt>
      <trkpt lat="50.54183" lon="5.56804">
        <ele>115.1</ele>
        <time>2013-02-17T12:54:11Z</time>
      </trkpt>
      <trkpt lat="50.54217" lon="5.56808">
        <ele>117.2</ele>
        <time>2013-02-17T12:54:20Z</time>
      </trkpt>
      <trkpt lat="50.54239" lon="5.56831">
        <ele>117.1</ele>
        <time>2013-02-17T12:54:26Z</time>
      </trkpt>
      <trkpt lat="50.54248" lon="5.56849">
        <ele>116.9</ele>
        <time>2013-02-17T12:54:31Z</time>
      </trkpt>
      <trkpt lat="50.54266" lon="5.56865">
        <ele>117.2</ele>
        <time>2013-02-17T12:54:43Z</time>
      </trkpt>
      <trkpt lat="50.54266" lon="5.56865">
        <ele>117.2</ele>
        <time>2013-02-17T12:54:52Z</time>
      </trkpt>
      <trkpt lat="50.54266" lon="5.56865">
        <ele>86</ele>
        <time>2013-02-17T12:54:52Z</time>
      </trkpt>
      <trkpt lat="50.54266" lon="5.56865">
        <ele>86</ele>
        <time>2013-02-17T12:55:03Z</time>
      </trkpt>
      <trkpt lat="50.54287" lon="5.56871">
        <ele>122.4</ele>
        <time>2013-02-17T12:55:03Z</time>
      </trkpt>
      <trkpt lat="50.54309" lon="5.56844">
        <ele>126.7</ele>
        <time>2013-02-17T12:55:10Z</time>
      </trkpt>
      <trkpt lat="50.5432" lon="5.56818">
        <ele>126</ele>
        <time>2013-02-17T12:55:16Z</time>
      </trkpt>
      <trkpt lat="50.54329" lon="5.5682">
        <ele>123.6</ele>
        <time>2013-02-17T12:55:24Z</time>
      </trkpt>
      <trkpt lat="50.54358" lon="5.56882">
        <ele>116.6</ele>
        <time>2013-02-17T12:55:34Z</time>
      </trkpt>
      <trkpt lat="50.54373" lon="5.56907">
        <ele>113.4</ele>
        <time>2013-02-17T12:55:40Z</time>
      </trkpt>
      <trkpt lat="50.54393" lon="5.56928">
        <ele>114.2</ele>
        <time>2013-02-17T12:55:47Z</time>
      </trkpt>
      <trkpt lat="50.54408" lon="5.56941">
        <ele>114.3</ele>
        <time>2013-02-17T12:55:51Z</time>
      </trkpt>
      <trkpt lat="50.54433" lon="5.56953">
        <ele>114.7</ele>
        <time>2013-02-17T12:55:56Z</time>
      </trkpt>
      <trkpt lat="50.54479" lon="5.56956">
        <ele>116.1</ele>
        <time>2013-02-17T12:56:03Z</time>
      </trkpt>
      <trkpt lat="50.54512" lon="5.56951">
        <ele>117.2</ele>
        <time>2013-02-17T12:56:09Z</time>
      </trkpt>
      <trkpt lat="50.54528" lon="5.56945">
        <ele>117.4</ele>
        <time>2013-02-17T12:56:14Z</time>
      </trkpt>
      <trkpt lat="50.5456" lon="5.56931">
        <ele>117.2</ele>
        <time>2013-02-17T12:56:21Z</time>
      </trkpt>
      <trkpt lat="50.5459" lon="5.56918">
        <ele>119.1</ele>
        <time>2013-02-17T12:56:27Z</time>
      </trkpt>
      <trkpt lat="50.54611" lon="5.56906">
        <ele>117.2</ele>
        <time>2013-02-17T12:56:32Z</time>
      </trkpt>
      <trkpt lat="50.54639" lon="5.56893">
        <ele>120.2</ele>
        <time>2013-02-17T12:56:39Z</time>
      </trkpt>
      <trkpt lat="50.54657" lon="5.56886">
        <ele>122.4</ele>
        <time>2013-02-17T12:56:44Z</time>
      </trkpt>
      <trkpt lat="50.54668" lon="5.56887">
        <ele>125.2</ele>
        <time>2013-02-17T12:56:50Z</time>
      </trkpt>
      <trkpt lat="50.54668" lon="5.56887">
        <ele>125.2</ele>
        <time>2013-02-17T12:56:57Z</time>
      </trkpt>
      <trkpt lat="50.54668" lon="5.56887">
        <ele>81</ele>
        <time>2013-02-17T12:56:57Z</time>
      </trkpt>
      <trkpt lat="50.54668" lon="5.56887">
        <ele>81</ele>
        <time>2013-02-17T12:57:13Z</time>
      </trkpt>
      <trkpt lat="50.54651" lon="5.56891">
        <ele>120.7</ele>
        <time>2013-02-17T12:57:13Z</time>
      </trkpt>
      <trkpt lat="50.54637" lon="5.56882">
        <ele>123.6</ele>
        <time>2013-02-17T12:57:20Z</time>
      </trkpt>
      <trkpt lat="50.54621" lon="5.56847">
        <ele>120.2</ele>
        <time>2013-02-17T12:57:30Z</time>
      </trkpt>
      <trkpt lat="50.54607" lon="5.56815">
        <ele>121.4</ele>
        <time>2013-02-17T12:57:39Z</time>
      </trkpt>
      <trkpt lat="50.54598" lon="5.56795">
        <ele>119.9</ele>
        <time>2013-02-17T12:57:44Z</time>
      </trkpt>
      <trkpt lat="50.54588" lon="5.56768">
        <ele>124</ele>
        <time>2013-02-17T12:57:50Z</time>
      </trkpt>
      <trkpt lat="50.54576" lon="5.56733">
        <ele>125.2</ele>
        <time>2013-02-17T12:57:57Z</time>
      </trkpt>
      <trkpt lat="50.54561" lon="5.56694">
        <ele>123.9</ele>
        <time>2013-02-17T12:58:05Z</time>
      </trkpt>
      <trkpt lat="50.54545" lon="5.56654">
        <ele>124.8</ele>
        <time>2013-02-17T12:58:12Z</time>
      </trkpt>
      <trkpt lat="50.5453" lon="5.56627">
        <ele>121</ele>
        <time>2013-02-17T12:58:18Z</time>
      </trkpt>
      <trkpt lat="50.54515" lon="5.56609">
        <ele>121.4</ele>
        <time>2013-02-17T12:58:23Z</time>
      </trkpt>
      <trkpt lat="50.54497" lon="5.56595">
        <ele>121.9</ele>
        <time>2013-02-17T12:58:29Z</time>
      </trkpt>
      <trkpt lat="50.54476" lon="5.56583">
        <ele>128</ele>
        <time>2013-02-17T12:58:35Z</time>
      </trkpt>
      <trkpt lat="50.54454" lon="5.56561">
        <ele>128.4</ele>
        <time>2013-02-17T12:58:42Z</time>
      </trkpt>
      <trkpt lat="50.54435" lon="5.56532">
        <ele>118</ele>
        <time>2013-02-17T12:58:50Z</time>
      </trkpt>
      <trkpt lat="50.54417" lon="5.56512">
        <ele>118.3</ele>
        <time>2013-02-17T12:58:57Z</time>
      </trkpt>
      <trkpt lat="50.54396" lon="5.56491">
        <ele>122.3</ele>
        <time>2013-02-17T12:59:07Z</time>
      </trkpt>
      <trkpt lat="50.54383" lon="5.56477">
        <ele>123</ele>
        <time>2013-02-17T12:59:13Z</time>
      </trkpt>
      <trkpt lat="50.54372" lon="5.56464">
        <ele>126.2</ele>
        <time>2013-02-17T12:59:18Z</time>
      </trkpt>
      <trkpt lat="50.54357" lon="5.56443">
        <ele>131</ele>
        <time>2013-02-17T12:59:25Z</time>
      </trkpt>
      <trkpt lat="50.54342" lon="5.56412">
        <ele>132.3</ele>
        <time>2013-02-17T12:59:34Z</time>
      </trkpt>
      <trkpt lat="50.54331" lon="5.56388">
        <ele>134</ele>
        <time>2013-02-17T12:59:43Z</time>
      </trkpt>
      <trkpt lat="50.54325" lon="5.5637">
        <ele>134.3</ele>
        <time>2013-02-17T12:59:50Z</time>
      </trkpt>
      <trkpt lat="50.54317" lon="5.56335">
        <ele>133.4</ele>
        <time>2013-02-17T13:00:03Z</time>
      </trkpt>
      <trkpt lat="50.54309" lon="5.56313">
        <ele>140.7</ele>
        <time>2013-02-17T13:00:14Z</time>
      </trkpt>
      <trkpt lat="50.543" lon="5.5629">
        <ele>142.3</ele>
        <time>2013-02-17T13:00:28Z</time>
      </trkpt>
      <trkpt lat="50.54287" lon="5.56271">
        <ele>147.5</ele>
        <time>2013-02-17T13:00:38Z</time>
      </trkpt>
      <trkpt lat="50.54277" lon="5.56263">
        <ele>150.9</ele>
        <time>2013-02-17T13:00:43Z</time>
      </trkpt>
      <trkpt lat="50.54261" lon="5.56254">
        <ele>158.2</ele>
        <time>2013-02-17T13:00:54Z</time>
      </trkpt>
      <trkpt lat="50.54249" lon="5.56253">
        <ele>166.7</ele>
        <time>2013-02-17T13:01:05Z</time>
      </trkpt>
      <trkpt lat="50.54231" lon="5.56242">
        <ele>165.1</ele>
        <time>2013-02-17T13:01:18Z</time>
      </trkpt>
      <trkpt lat="50.54212" lon="5.56237">
        <ele>169.7</ele>
        <time>2013-02-17T13:01:30Z</time>
      </trkpt>
      <trkpt lat="50.54198" lon="5.56226">
        <ele>167.3</ele>
        <time>2013-02-17T13:01:41Z</time>
      </trkpt>
      <trkpt lat="50.54184" lon="5.56208">
        <ele>171.5</ele>
        <time>2013-02-17T13:01:57Z</time>
      </trkpt>
      <trkpt lat="50.54171" lon="5.56176">
        <ele>169.3</ele>
        <time>2013-02-17T13:02:15Z</time>
      </trkpt>
      <trkpt lat="50.54162" lon="5.56153">
        <ele>168.6</ele>
        <time>2013-02-17T13:02:29Z</time>
      </trkpt>
      <trkpt lat="50.54159" lon="5.56117">
        <ele>165.1</ele>
        <time>2013-02-17T13:02:47Z</time>
      </trkpt>
      <trkpt lat="50.54152" lon="5.56088">
        <ele>172.4</ele>
        <time>2013-02-17T13:03:01Z</time>
      </trkpt>
      <trkpt lat="50.54149" lon="5.56071">
        <ele>170.5</ele>
        <time>2013-02-17T13:03:10Z</time>
      </trkpt>
      <trkpt lat="50.54147" lon="5.56043">
        <ele>169.1</ele>
        <time>2013-02-17T13:03:24Z</time>
      </trkpt>
      <trkpt lat="50.54146" lon="5.56013">
        <ele>168.6</ele>
        <time>2013-02-17T13:03:37Z</time>
      </trkpt>
      <trkpt lat="50.54141" lon="5.55992">
        <ele>163.9</ele>
        <time>2013-02-17T13:03:50Z</time>
      </trkpt>
      <trkpt lat="50.54134" lon="5.55965">
        <ele>176.4</ele>
        <time>2013-02-17T13:04:02Z</time>
      </trkpt>
      <trkpt lat="50.54128" lon="5.5593">
        <ele>175.1</ele>
        <time>2013-02-17T13:04:16Z</time>
      </trkpt>
      <trkpt lat="50.54116" lon="5.55897">
        <ele>179.9</ele>
        <time>2013-02-17T13:04:24Z</time>
      </trkpt>
      <trkpt lat="50.54085" lon="5.55871">
        <ele>179.8</ele>
        <time>2013-02-17T13:04:32Z</time>
      </trkpt>
      <trkpt lat="50.54053" lon="5.55869">
        <ele>185.5</ele>
        <time>2013-02-17T13:04:38Z</time>
      </trkpt>
      <trkpt lat="50.5403" lon="5.55865">
        <ele>184.3</ele>
        <time>2013-02-17T13:04:45Z</time>
      </trkpt>
      <trkpt lat="50.54005" lon="5.55866">
        <ele>181.2</ele>
        <time>2013-02-17T13:04:53Z</time>
      </trkpt>
      <trkpt lat="50.5399" lon="5.55868">
        <ele>183.1</ele>
        <time>2013-02-17T13:05:03Z</time>
      </trkpt>
      <trkpt lat="50.53968" lon="5.55868">
        <ele>185.2</ele>
        <time>2013-02-17T13:05:17Z</time>
      </trkpt>
      <trkpt lat="50.53939" lon="5.55859">
        <ele>186.2</ele>
        <time>2013-02-17T13:05:34Z</time>
      </trkpt>
      <trkpt lat="50.53925" lon="5.55855">
        <ele>184.1</ele>
        <time>2013-02-17T13:05:43Z</time>
      </trkpt>
      <trkpt lat="50.53906" lon="5.55848">
        <ele>184.7</ele>
        <time>2013-02-17T13:05:56Z</time>
      </trkpt>
      <trkpt lat="50.53884" lon="5.55848">
        <ele>189.9</ele>
        <time>2013-02-17T13:06:08Z</time>
      </trkpt>
      <trkpt lat="50.53866" lon="5.55855">
        <ele>192.2</ele>
        <time>2013-02-17T13:06:20Z</time>
      </trkpt>
      <trkpt lat="50.53847" lon="5.55859">
        <ele>196.3</ele>
        <time>2013-02-17T13:06:31Z</time>
      </trkpt>
      <trkpt lat="50.53826" lon="5.55856">
        <ele>194.4</ele>
        <time>2013-02-17T13:06:43Z</time>
      </trkpt>
      <trkpt lat="50.53804" lon="5.55851">
        <ele>189.6</ele>
        <time>2013-02-17T13:06:50Z</time>
      </trkpt>
      <trkpt lat="50.53776" lon="5.55859">
        <ele>192.1</ele>
        <time>2013-02-17T13:06:57Z</time>
      </trkpt>
      <trkpt lat="50.53755" lon="5.5588">
        <ele>195.6</ele>
        <time>2013-02-17T13:07:03Z</time>
      </trkpt>
      <trkpt lat="50.5374" lon="5.55899">
        <ele>197.4</ele>
        <time>2013-02-17T13:07:09Z</time>
      </trkpt>
      <trkpt lat="50.53727" lon="5.55927">
        <ele>203.6</ele>
        <time>2013-02-17T13:07:19Z</time>
      </trkpt>
      <trkpt lat="50.53719" lon="5.5594">
        <ele>204</ele>
        <time>2013-02-17T13:07:29Z</time>
      </trkpt>
      <trkpt lat="50.53714" lon="5.55955">
        <ele>204.5</ele>
        <time>2013-02-17T13:07:39Z</time>
      </trkpt>
      <trkpt lat="50.53706" lon="5.55978">
        <ele>205.4</ele>
        <time>2013-02-17T13:07:48Z</time>
      </trkpt>
      <trkpt lat="50.537" lon="5.55991">
        <ele>207.3</ele>
        <time>2013-02-17T13:07:55Z</time>
      </trkpt>
      <trkpt lat="50.5369" lon="5.56012">
        <ele>209</ele>
        <time>2013-02-17T13:08:08Z</time>
      </trkpt>
      <trkpt lat="50.5367" lon="5.5605">
        <ele>210.3</ele>
        <time>2013-02-17T13:08:24Z</time>
      </trkpt>
      <trkpt lat="50.53665" lon="5.56062">
        <ele>213.9</ele>
        <time>2013-02-17T13:08:31Z</time>
      </trkpt>
      <trkpt lat="50.53665" lon="5.56062">
        <ele>168.8</ele>
        <time>2013-02-17T13:08:38Z</time>
      </trkpt>
      <trkpt lat="50.53665" lon="5.56062">
        <ele>168.8</ele>
        <time>2013-02-17T13:09:41Z</time>
      </trkpt>
      <trkpt lat="50.53629" lon="5.5608">
        <ele>208.9</ele>
        <time>2013-02-17T13:09:41Z</time>
      </trkpt>
      <trkpt lat="50.53617" lon="5.56091">
        <ele>208.6</ele>
        <time>2013-02-17T13:09:46Z</time>
      </trkpt>
      <trkpt lat="50.53617" lon="5.56091">
        <ele>146.7</ele>
        <time>2013-02-17T13:09:54Z</time>
      </trkpt>
      <trkpt lat="50.53617" lon="5.56091">
        <ele>146.7</ele>
        <time>2013-02-17T13:13:53Z</time>
      </trkpt>
      <trkpt lat="50.5365" lon="5.56072">
        <ele>201.3</ele>
        <time>2013-02-17T13:13:53Z</time>
      </trkpt>
      <trkpt lat="50.53662" lon="5.56058">
        <ele>201</ele>
        <time>2013-02-17T13:14:06Z</time>
      </trkpt>
      <trkpt lat="50.53663" lon="5.56092">
        <ele>201.5</ele>
        <time>2013-02-17T13:14:28Z</time>
      </trkpt>
      <trkpt lat="50.53672" lon="5.5614">
        <ele>196.7</ele>
        <time>2013-02-17T13:14:35Z</time>
      </trkpt>
      <trkpt lat="50.53679" lon="5.56214">
        <ele>193.6</ele>
        <time>2013-02-17T13:14:40Z</time>
      </trkpt>
      <trkpt lat="50.53704" lon="5.56321">
        <ele>187.6</ele>
        <time>2013-02-17T13:14:49Z</time>
      </trkpt>
      <trkpt lat="50.53715" lon="5.5637">
        <ele>188.7</ele>
        <time>2013-02-17T13:14:55Z</time>
      </trkpt>
      <trkpt lat="50.53698" lon="5.56408">
        <ele>192.5</ele>
        <time>2013-02-17T13:15:00Z</time>
      </trkpt>
      <trkpt lat="50.53698" lon="5.56408">
        <ele>151.2</ele>
        <time>2013-02-17T13:15:05Z</time>
      </trkpt>
      <trkpt lat="50.53698" lon="5.56408">
        <ele>151.2</ele>
        <time>2013-02-17T13:15:10Z</time>
      </trkpt>
      <trkpt lat="50.5369" lon="5.56381">
        <ele>187.3</ele>
        <time>2013-02-17T13:15:10Z</time>
      </trkpt>
      <trkpt lat="50.53673" lon="5.56427">
        <ele>186.1</ele>
        <time>2013-02-17T13:15:19Z</time>
      </trkpt>
      <trkpt lat="50.53664" lon="5.56497">
        <ele>184.4</ele>
        <time>2013-02-17T13:15:24Z</time>
      </trkpt>
      <trkpt lat="50.53661" lon="5.56582">
        <ele>178.5</ele>
        <time>2013-02-17T13:15:30Z</time>
      </trkpt>
      <trkpt lat="50.5366" lon="5.56626">
        <ele>176.6</ele>
        <time>2013-02-17T13:15:33Z</time>
      </trkpt>
      <trkpt lat="50.53654" lon="5.56674">
        <ele>174.8</ele>
        <time>2013-02-17T13:15:36Z</time>
      </trkpt>
      <trkpt lat="50.5365" lon="5.5676">
        <ele>173.4</ele>
        <time>2013-02-17T13:15:42Z</time>
      </trkpt>
      <trkpt lat="50.53647" lon="5.56797">
        <ele>171.5</ele>
        <time>2013-02-17T13:15:45Z</time>
      </trkpt>
      <trkpt lat="50.53644" lon="5.56833">
        <ele>171.3</ele>
        <time>2013-02-17T13:15:49Z</time>
      </trkpt>
      <trkpt lat="50.53631" lon="5.5688">
        <ele>171.2</ele>
        <time>2013-02-17T13:15:54Z</time>
      </trkpt>
      <trkpt lat="50.53605" lon="5.56837">
        <ele>166</ele>
        <time>2013-02-17T13:16:16Z</time>
      </trkpt>
      <trkpt lat="50.53595" lon="5.56784">
        <ele>164.9</ele>
        <time>2013-02-17T13:16:21Z</time>
      </trkpt>
      <trkpt lat="50.53578" lon="5.5671">
        <ele>160.4</ele>
        <time>2013-02-17T13:16:27Z</time>
      </trkpt>
      <trkpt lat="50.53554" lon="5.5665">
        <ele>159.6</ele>
        <time>2013-02-17T13:16:32Z</time>
      </trkpt>
      <trkpt lat="50.53515" lon="5.56631">
        <ele>157.3</ele>
        <time>2013-02-17T13:16:36Z</time>
      </trkpt>
      <trkpt lat="50.53432" lon="5.56575">
        <ele>156.4</ele>
        <time>2013-02-17T13:16:44Z</time>
      </trkpt>
      <trkpt lat="50.53385" lon="5.56569">
        <ele>153</ele>
        <time>2013-02-17T13:16:49Z</time>
      </trkpt>
      <trkpt lat="50.53334" lon="5.56643">
        <ele>143.9</ele>
        <time>2013-02-17T13:16:56Z</time>
      </trkpt>
      <trkpt lat="50.533" lon="5.56677">
        <ele>138.4</ele>
        <time>2013-02-17T13:17:01Z</time>
      </trkpt>
      <trkpt lat="50.5328" lon="5.56694">
        <ele>137.6</ele>
        <time>2013-02-17T13:17:07Z</time>
      </trkpt>
      <trkpt lat="50.53276" lon="5.56697">
        <ele>136.1</ele>
        <time>2013-02-17T13:17:14Z</time>
      </trkpt>
      <trkpt lat="50.53276" lon="5.56697">
        <ele>89.4</ele>
        <time>2013-02-17T13:17:20Z</time>
      </trkpt>
      <trkpt lat="50.53276" lon="5.56697">
        <ele>89.4</ele>
        <time>2013-02-17T13:17:48Z</time>
      </trkpt>
      <trkpt lat="50.53252" lon="5.56707">
        <ele>130.9</ele>
        <time>2013-02-17T13:17:48Z</time>
      </trkpt>
      <trkpt lat="50.53241" lon="5.56708">
        <ele>132</ele>
        <time>2013-02-17T13:17:52Z</time>
      </trkpt>
      <trkpt lat="50.53241" lon="5.56708">
        <ele>88</ele>
        <time>2013-02-17T13:17:59Z</time>
      </trkpt>
      <trkpt lat="50.53241" lon="5.56708">
        <ele>88</ele>
        <time>2013-02-17T13:18:08Z</time>
      </trkpt>
      <trkpt lat="50.53233" lon="5.56703">
        <ele>134.9</ele>
        <time>2013-02-17T13:18:08Z</time>
      </trkpt>
      <trkpt lat="50.5318" lon="5.56689">
        <ele>135.6</ele>
        <time>2013-02-17T13:18:25Z</time>
      </trkpt>
      <trkpt lat="50.53188" lon="5.56627">
        <ele>135.3</ele>
        <time>2013-02-17T13:18:32Z</time>
      </trkpt>
      <trkpt lat="50.53189" lon="5.5657">
        <ele>133</ele>
        <time>2013-02-17T13:18:39Z</time>
      </trkpt>
      <trkpt lat="50.53187" lon="5.56544">
        <ele>131.5</ele>
        <time>2013-02-17T13:18:45Z</time>
      </trkpt>
      <trkpt lat="50.53185" lon="5.56513">
        <ele>133.6</ele>
        <time>2013-02-17T13:18:50Z</time>
      </trkpt>
      <trkpt lat="50.53182" lon="5.56469">
        <ele>133.1</ele>
        <time>2013-02-17T13:18:57Z</time>
      </trkpt>
      <trkpt lat="50.5318" lon="5.56431">
        <ele>130.9</ele>
        <time>2013-02-17T13:19:05Z</time>
      </trkpt>
      <trkpt lat="50.53178" lon="5.56405">
        <ele>124.9</ele>
        <time>2013-02-17T13:19:10Z</time>
      </trkpt>
      <trkpt lat="50.53176" lon="5.56375">
        <ele>123.7</ele>
        <time>2013-02-17T13:19:16Z</time>
      </trkpt>
      <trkpt lat="50.53173" lon="5.5634">
        <ele>122.8</ele>
        <time>2013-02-17T13:19:23Z</time>
      </trkpt>
      <trkpt lat="50.53171" lon="5.56317">
        <ele>124.2</ele>
        <time>2013-02-17T13:19:28Z</time>
      </trkpt>
      <trkpt lat="50.53163" lon="5.56267">
        <ele>127.7</ele>
        <time>2013-02-17T13:19:36Z</time>
      </trkpt>
      <trkpt lat="50.53158" lon="5.56222">
        <ele>127.4</ele>
        <time>2013-02-17T13:19:43Z</time>
      </trkpt>
      <trkpt lat="50.53158" lon="5.56182">
        <ele>127.7</ele>
        <time>2013-02-17T13:19:50Z</time>
      </trkpt>
      <trkpt lat="50.5316" lon="5.56146">
        <ele>123.7</ele>
        <time>2013-02-17T13:19:59Z</time>
      </trkpt>
      <trkpt lat="50.53161" lon="5.56123">
        <ele>123.4</ele>
        <time>2013-02-17T13:20:05Z</time>
      </trkpt>
      <trkpt lat="50.53161" lon="5.56083">
        <ele>123.3</ele>
        <time>2013-02-17T13:20:13Z</time>
      </trkpt>
      <trkpt lat="50.53163" lon="5.56064">
        <ele>121.8</ele>
        <time>2013-02-17T13:20:17Z</time>
      </trkpt>
      <trkpt lat="50.53167" lon="5.56034">
        <ele>122.3</ele>
        <time>2013-02-17T13:20:24Z</time>
      </trkpt>
      <trkpt lat="50.53171" lon="5.56002">
        <ele>124.8</ele>
        <time>2013-02-17T13:20:32Z</time>
      </trkpt>
      <trkpt lat="50.53171" lon="5.55968">
        <ele>132.1</ele>
        <time>2013-02-17T13:20:40Z</time>
      </trkpt>
      <trkpt lat="50.53171" lon="5.55932">
        <ele>134.4</ele>
        <time>2013-02-17T13:20:48Z</time>
      </trkpt>
      <trkpt lat="50.53178" lon="5.55906">
        <ele>134.1</ele>
        <time>2013-02-17T13:20:54Z</time>
      </trkpt>
      <trkpt lat="50.53181" lon="5.55866">
        <ele>136.7</ele>
        <time>2013-02-17T13:21:02Z</time>
      </trkpt>
      <trkpt lat="50.53182" lon="5.55829">
        <ele>141</ele>
        <time>2013-02-17T13:21:08Z</time>
      </trkpt>
      <trkpt lat="50.53185" lon="5.55794">
        <ele>142.6</ele>
        <time>2013-02-17T13:21:14Z</time>
      </trkpt>
      <trkpt lat="50.53188" lon="5.55777">
        <ele>142.2</ele>
        <time>2013-02-17T13:21:17Z</time>
      </trkpt>
      <trkpt lat="50.53194" lon="5.55737">
        <ele>140.6</ele>
        <time>2013-02-17T13:21:24Z</time>
      </trkpt>
      <trkpt lat="50.53197" lon="5.5572">
        <ele>139.9</ele>
        <time>2013-02-17T13:21:27Z</time>
      </trkpt>
      <trkpt lat="50.53202" lon="5.55695">
        <ele>138.3</ele>
        <time>2013-02-17T13:21:31Z</time>
      </trkpt>
      <trkpt lat="50.53207" lon="5.55669">
        <ele>137.1</ele>
        <time>2013-02-17T13:21:35Z</time>
      </trkpt>
      <trkpt lat="50.53213" lon="5.55633">
        <ele>138.5</ele>
        <time>2013-02-17T13:21:40Z</time>
      </trkpt>
      <trkpt lat="50.53225" lon="5.55587">
        <ele>141.4</ele>
        <time>2013-02-17T13:21:46Z</time>
      </trkpt>
      <trkpt lat="50.53244" lon="5.55518">
        <ele>149.8</ele>
        <time>2013-02-17T13:21:53Z</time>
      </trkpt>
      <trkpt lat="50.53263" lon="5.55484">
        <ele>149.4</ele>
        <time>2013-02-17T13:21:58Z</time>
      </trkpt>
      <trkpt lat="50.53283" lon="5.55445">
        <ele>147.9</ele>
        <time>2013-02-17T13:22:03Z</time>
      </trkpt>
      <trkpt lat="50.53298" lon="5.55389">
        <ele>144.3</ele>
        <time>2013-02-17T13:22:09Z</time>
      </trkpt>
      <trkpt lat="50.53307" lon="5.55326">
        <ele>143.1</ele>
        <time>2013-02-17T13:22:15Z</time>
      </trkpt>
      <trkpt lat="50.53315" lon="5.55242">
        <ele>142</ele>
        <time>2013-02-17T13:22:22Z</time>
      </trkpt>
      <trkpt lat="50.53319" lon="5.55184">
        <ele>140.5</ele>
        <time>2013-02-17T13:22:28Z</time>
      </trkpt>
      <trkpt lat="50.5331" lon="5.55151">
        <ele>139.5</ele>
        <time>2013-02-17T13:22:33Z</time>
      </trkpt>
      <trkpt lat="50.53294" lon="5.55111">
        <ele>135.4</ele>
        <time>2013-02-17T13:22:39Z</time>
      </trkpt>
      <trkpt lat="50.53281" lon="5.55094">
        <ele>134.3</ele>
        <time>2013-02-17T13:22:44Z</time>
      </trkpt>
      <trkpt lat="50.53274" lon="5.55072">
        <ele>134.1</ele>
        <time>2013-02-17T13:22:49Z</time>
      </trkpt>
      <trkpt lat="50.53261" lon="5.55034">
        <ele>131</ele>
        <time>2013-02-17T13:22:56Z</time>
      </trkpt>
      <trkpt lat="50.53246" lon="5.55">
        <ele>128.7</ele>
        <time>2013-02-17T13:23:02Z</time>
      </trkpt>
      <trkpt lat="50.53227" lon="5.54944">
        <ele>130.6</ele>
        <time>2013-02-17T13:23:09Z</time>
      </trkpt>
      <trkpt lat="50.53216" lon="5.54917">
        <ele>130.5</ele>
        <time>2013-02-17T13:23:14Z</time>
      </trkpt>
      <trkpt lat="50.53201" lon="5.54882">
        <ele>129.5</ele>
        <time>2013-02-17T13:23:20Z</time>
      </trkpt>
      <trkpt lat="50.53192" lon="5.54852">
        <ele>129.1</ele>
        <time>2013-02-17T13:23:25Z</time>
      </trkpt>
      <trkpt lat="50.53184" lon="5.54814">
        <ele>127.7</ele>
        <time>2013-02-17T13:23:31Z</time>
      </trkpt>
      <trkpt lat="50.53176" lon="5.54769">
        <ele>128.6</ele>
        <time>2013-02-17T13:23:36Z</time>
      </trkpt>
      <trkpt lat="50.53164" lon="5.5473">
        <ele>127.9</ele>
        <time>2013-02-17T13:23:42Z</time>
      </trkpt>
      <trkpt lat="50.53156" lon="5.54691">
        <ele>128.3</ele>
        <time>2013-02-17T13:23:49Z</time>
      </trkpt>
      <trkpt lat="50.53146" lon="5.54656">
        <ele>130.7</ele>
        <time>2013-02-17T13:23:55Z</time>
      </trkpt>
      <trkpt lat="50.53141" lon="5.54627">
        <ele>128.2</ele>
        <time>2013-02-17T13:24:01Z</time>
      </trkpt>
      <trkpt lat="50.53128" lon="5.54588">
        <ele>128.2</ele>
        <time>2013-02-17T13:24:09Z</time>
      </trkpt>
      <trkpt lat="50.53123" lon="5.54562">
        <ele>129.4</ele>
        <time>2013-02-17T13:24:15Z</time>
      </trkpt>
      <trkpt lat="50.53118" lon="5.54534">
        <ele>128.7</ele>
        <time>2013-02-17T13:24:21Z</time>
      </trkpt>
      <trkpt lat="50.53111" lon="5.54502">
        <ele>118.5</ele>
        <time>2013-02-17T13:24:26Z</time>
      </trkpt>
      <trkpt lat="50.53104" lon="5.54471">
        <ele>118.5</ele>
        <time>2013-02-17T13:24:31Z</time>
      </trkpt>
      <trkpt lat="50.53095" lon="5.54436">
        <ele>121.1</ele>
        <time>2013-02-17T13:24:36Z</time>
      </trkpt>
      <trkpt lat="50.53084" lon="5.54397">
        <ele>124.3</ele>
        <time>2013-02-17T13:24:41Z</time>
      </trkpt>
      <trkpt lat="50.53077" lon="5.54357">
        <ele>121.4</ele>
        <time>2013-02-17T13:24:47Z</time>
      </trkpt>
      <trkpt lat="50.53076" lon="5.54325">
        <ele>123.1</ele>
        <time>2013-02-17T13:24:52Z</time>
      </trkpt>
      <trkpt lat="50.53088" lon="5.54298">
        <ele>127.3</ele>
        <time>2013-02-17T13:24:58Z</time>
      </trkpt>
      <trkpt lat="50.53108" lon="5.5429">
        <ele>128.4</ele>
        <time>2013-02-17T13:25:04Z</time>
      </trkpt>
      <trkpt lat="50.53127" lon="5.5429">
        <ele>128</ele>
        <time>2013-02-17T13:25:09Z</time>
      </trkpt>
      <trkpt lat="50.53154" lon="5.54287">
        <ele>129</ele>
        <time>2013-02-17T13:25:16Z</time>
      </trkpt>
      <trkpt lat="50.53181" lon="5.54267">
        <ele>132.4</ele>
        <time>2013-02-17T13:25:23Z</time>
      </trkpt>
      <trkpt lat="50.53203" lon="5.54236">
        <ele>134.9</ele>
        <time>2013-02-17T13:25:29Z</time>
      </trkpt>
      <trkpt lat="50.53218" lon="5.54211">
        <ele>134.9</ele>
        <time>2013-02-17T13:25:34Z</time>
      </trkpt>
      <trkpt lat="50.5322" lon="5.54172">
        <ele>134.4</ele>
        <time>2013-02-17T13:25:42Z</time>
      </trkpt>
      <trkpt lat="50.53212" lon="5.54144">
        <ele>134</ele>
        <time>2013-02-17T13:25:48Z</time>
      </trkpt>
      <trkpt lat="50.53204" lon="5.54115">
        <ele>132.1</ele>
        <time>2013-02-17T13:25:53Z</time>
      </trkpt>
      <trkpt lat="50.53189" lon="5.54054">
        <ele>129.3</ele>
        <time>2013-02-17T13:25:59Z</time>
      </trkpt>
      <trkpt lat="50.53176" lon="5.54011">
        <ele>133.4</ele>
        <time>2013-02-17T13:26:05Z</time>
      </trkpt>
      <trkpt lat="50.53169" lon="5.53968">
        <ele>132.8</ele>
        <time>2013-02-17T13:26:12Z</time>
      </trkpt>
      <trkpt lat="50.53165" lon="5.53934">
        <ele>133.6</ele>
        <time>2013-02-17T13:26:19Z</time>
      </trkpt>
      <trkpt lat="50.53159" lon="5.53901">
        <ele>131.9</ele>
        <time>2013-02-17T13:26:25Z</time>
      </trkpt>
      <trkpt lat="50.53152" lon="5.53872">
        <ele>133.1</ele>
        <time>2013-02-17T13:26:31Z</time>
      </trkpt>
      <trkpt lat="50.5314" lon="5.53834">
        <ele>134.3</ele>
        <time>2013-02-17T13:26:38Z</time>
      </trkpt>
      <trkpt lat="50.53119" lon="5.53805">
        <ele>136.8</ele>
        <time>2013-02-17T13:26:45Z</time>
      </trkpt>
      <trkpt lat="50.53094" lon="5.53786">
        <ele>139.3</ele>
        <time>2013-02-17T13:26:51Z</time>
      </trkpt>
      <trkpt lat="50.53075" lon="5.53779">
        <ele>140.5</ele>
        <time>2013-02-17T13:26:55Z</time>
      </trkpt>
      <trkpt lat="50.53048" lon="5.53768">
        <ele>141.5</ele>
        <time>2013-02-17T13:27:01Z</time>
      </trkpt>
      <trkpt lat="50.53017" lon="5.53749">
        <ele>140.3</ele>
        <time>2013-02-17T13:27:08Z</time>
      </trkpt>
      <trkpt lat="50.52995" lon="5.5373">
        <ele>141.8</ele>
        <time>2013-02-17T13:27:15Z</time>
      </trkpt>
      <trkpt lat="50.52974" lon="5.53721">
        <ele>143.4</ele>
        <time>2013-02-17T13:27:21Z</time>
      </trkpt>
      <trkpt lat="50.52945" lon="5.53702">
        <ele>145.4</ele>
        <time>2013-02-17T13:27:28Z</time>
      </trkpt>
      <trkpt lat="50.52917" lon="5.53691">
        <ele>146</ele>
        <time>2013-02-17T13:27:34Z</time>
      </trkpt>
      <trkpt lat="50.52891" lon="5.5367">
        <ele>141.7</ele>
        <time>2013-02-17T13:27:41Z</time>
      </trkpt>
      <trkpt lat="50.52877" lon="5.53636">
        <ele>135.6</ele>
        <time>2013-02-17T13:27:47Z</time>
      </trkpt>
      <trkpt lat="50.52868" lon="5.53605">
        <ele>134</ele>
        <time>2013-02-17T13:27:52Z</time>
      </trkpt>
      <trkpt lat="50.52862" lon="5.53568">
        <ele>133.5</ele>
        <time>2013-02-17T13:27:57Z</time>
      </trkpt>
      <trkpt lat="50.52857" lon="5.53538">
        <ele>133.1</ele>
        <time>2013-02-17T13:28:01Z</time>
      </trkpt>
      <trkpt lat="50.52853" lon="5.53493">
        <ele>132.1</ele>
        <time>2013-02-17T13:28:07Z</time>
      </trkpt>
      <trkpt lat="50.52851" lon="5.53466">
        <ele>132.1</ele>
        <time>2013-02-17T13:28:11Z</time>
      </trkpt>
      <trkpt lat="50.52845" lon="5.53422">
        <ele>133.1</ele>
        <time>2013-02-17T13:28:18Z</time>
      </trkpt>
      <trkpt lat="50.52839" lon="5.53385">
        <ele>131.8</ele>
        <time>2013-02-17T13:28:24Z</time>
      </trkpt>
      <trkpt lat="50.5282" lon="5.53311">
        <ele>126.7</ele>
        <time>2013-02-17T13:28:32Z</time>
      </trkpt>
      <trkpt lat="50.52813" lon="5.53273">
        <ele>128.4</ele>
        <time>2013-02-17T13:28:38Z</time>
      </trkpt>
      <trkpt lat="50.52813" lon="5.53234">
        <ele>125.8</ele>
        <time>2013-02-17T13:28:44Z</time>
      </trkpt>
      <trkpt lat="50.52816" lon="5.53193">
        <ele>124.1</ele>
        <time>2013-02-17T13:28:50Z</time>
      </trkpt>
      <trkpt lat="50.52816" lon="5.5315">
        <ele>124.1</ele>
        <time>2013-02-17T13:28:56Z</time>
      </trkpt>
      <trkpt lat="50.52812" lon="5.53113">
        <ele>124.1</ele>
        <time>2013-02-17T13:29:02Z</time>
      </trkpt>
      <trkpt lat="50.52809" lon="5.5307">
        <ele>125.8</ele>
        <time>2013-02-17T13:29:08Z</time>
      </trkpt>
      <trkpt lat="50.52802" lon="5.53046">
        <ele>131.2</ele>
        <time>2013-02-17T13:29:13Z</time>
      </trkpt>
      <trkpt lat="50.52774" lon="5.53029">
        <ele>136.2</ele>
        <time>2013-02-17T13:29:20Z</time>
      </trkpt>
      <trkpt lat="50.52747" lon="5.5299">
        <ele>144.3</ele>
        <time>2013-02-17T13:29:27Z</time>
      </trkpt>
      <trkpt lat="50.52738" lon="5.52968">
        <ele>145.3</ele>
        <time>2013-02-17T13:29:33Z</time>
      </trkpt>
      <trkpt lat="50.52734" lon="5.52938">
        <ele>147.2</ele>
        <time>2013-02-17T13:29:40Z</time>
      </trkpt>
      <trkpt lat="50.52729" lon="5.52897">
        <ele>147.8</ele>
        <time>2013-02-17T13:29:49Z</time>
      </trkpt>
      <trkpt lat="50.52722" lon="5.5287">
        <ele>149.9</ele>
        <time>2013-02-17T13:29:54Z</time>
      </trkpt>
      <trkpt lat="50.52719" lon="5.52853">
        <ele>152.7</ele>
        <time>2013-02-17T13:29:57Z</time>
      </trkpt>
      <trkpt lat="50.5271" lon="5.52807">
        <ele>152.9</ele>
        <time>2013-02-17T13:30:04Z</time>
      </trkpt>
      <trkpt lat="50.52705" lon="5.52782">
        <ele>153</ele>
        <time>2013-02-17T13:30:08Z</time>
      </trkpt>
      <trkpt lat="50.52701" lon="5.52748">
        <ele>151.8</ele>
        <time>2013-02-17T13:30:14Z</time>
      </trkpt>
      <trkpt lat="50.52699" lon="5.52725">
        <ele>152.6</ele>
        <time>2013-02-17T13:30:18Z</time>
      </trkpt>
      <trkpt lat="50.52697" lon="5.52687">
        <ele>153.3</ele>
        <time>2013-02-17T13:30:24Z</time>
      </trkpt>
      <trkpt lat="50.52698" lon="5.5265">
        <ele>152.8</ele>
        <time>2013-02-17T13:30:30Z</time>
      </trkpt>
      <trkpt lat="50.52698" lon="5.5261">
        <ele>152.1</ele>
        <time>2013-02-17T13:30:36Z</time>
      </trkpt>
      <trkpt lat="50.527" lon="5.52565">
        <ele>151.5</ele>
        <time>2013-02-17T13:30:42Z</time>
      </trkpt>
      <trkpt lat="50.527" lon="5.52526">
        <ele>150.7</ele>
        <time>2013-02-17T13:30:47Z</time>
      </trkpt>
      <trkpt lat="50.52702" lon="5.52485">
        <ele>149.9</ele>
        <time>2013-02-17T13:30:52Z</time>
      </trkpt>
      <trkpt lat="50.527" lon="5.52445">
        <ele>150.7</ele>
        <time>2013-02-17T13:30:57Z</time>
      </trkpt>
      <trkpt lat="50.52695" lon="5.52399">
        <ele>149.2</ele>
        <time>2013-02-17T13:31:04Z</time>
      </trkpt>
      <trkpt lat="50.52693" lon="5.52372">
        <ele>148.9</ele>
        <time>2013-02-17T13:31:09Z</time>
      </trkpt>
      <trkpt lat="50.52693" lon="5.52356">
        <ele>147.2</ele>
        <time>2013-02-17T13:31:12Z</time>
      </trkpt>
      <trkpt lat="50.52688" lon="5.52327">
        <ele>147.8</ele>
        <time>2013-02-17T13:31:18Z</time>
      </trkpt>
      <trkpt lat="50.52687" lon="5.52294">
        <ele>146.8</ele>
        <time>2013-02-17T13:31:24Z</time>
      </trkpt>
      <trkpt lat="50.52687" lon="5.52254">
        <ele>148.3</ele>
        <time>2013-02-17T13:31:32Z</time>
      </trkpt>
      <trkpt lat="50.5269" lon="5.52214">
        <ele>149.2</ele>
        <time>2013-02-17T13:31:39Z</time>
      </trkpt>
      <trkpt lat="50.52686" lon="5.52182">
        <ele>148.3</ele>
        <time>2013-02-17T13:31:45Z</time>
      </trkpt>
      <trkpt lat="50.52683" lon="5.52146">
        <ele>146.9</ele>
        <time>2013-02-17T13:31:51Z</time>
      </trkpt>
      <trkpt lat="50.52682" lon="5.52117">
        <ele>145.5</ele>
        <time>2013-02-17T13:31:56Z</time>
      </trkpt>
      <trkpt lat="50.52679" lon="5.52099">
        <ele>145.3</ele>
        <time>2013-02-17T13:32:00Z</time>
      </trkpt>
      <trkpt lat="50.52675" lon="5.52068">
        <ele>146.1</ele>
        <time>2013-02-17T13:32:06Z</time>
      </trkpt>
      <trkpt lat="50.52669" lon="5.52031">
        <ele>147.5</ele>
        <time>2013-02-17T13:32:11Z</time>
      </trkpt>
      <trkpt lat="50.52665" lon="5.52006">
        <ele>147</ele>
        <time>2013-02-17T13:32:14Z</time>
      </trkpt>
      <trkpt lat="50.52658" lon="5.5196">
        <ele>144.6</ele>
        <time>2013-02-17T13:32:20Z</time>
      </trkpt>
      <trkpt lat="50.5264" lon="5.51907">
        <ele>142.3</ele>
        <time>2013-02-17T13:32:26Z</time>
      </trkpt>
      <trkpt lat="50.52618" lon="5.51878">
        <ele>143.9</ele>
        <time>2013-02-17T13:32:32Z</time>
      </trkpt>
      <trkpt lat="50.526" lon="5.51854">
        <ele>143.3</ele>
        <time>2013-02-17T13:32:37Z</time>
      </trkpt>
      <trkpt lat="50.52581" lon="5.51808">
        <ele>143.4</ele>
        <time>2013-02-17T13:32:43Z</time>
      </trkpt>
      <trkpt lat="50.52569" lon="5.51782">
        <ele>141.5</ele>
        <time>2013-02-17T13:32:48Z</time>
      </trkpt>
      <trkpt lat="50.52557" lon="5.51762">
        <ele>142</ele>
        <time>2013-02-17T13:32:53Z</time>
      </trkpt>
      <trkpt lat="50.52543" lon="5.51735">
        <ele>142.8</ele>
        <time>2013-02-17T13:32:59Z</time>
      </trkpt>
      <trkpt lat="50.52527" lon="5.51695">
        <ele>142</ele>
        <time>2013-02-17T13:33:06Z</time>
      </trkpt>
      <trkpt lat="50.52515" lon="5.51663">
        <ele>141.4</ele>
        <time>2013-02-17T13:33:12Z</time>
      </trkpt>
      <trkpt lat="50.52501" lon="5.51626">
        <ele>141.4</ele>
        <time>2013-02-17T13:33:19Z</time>
      </trkpt>
      <trkpt lat="50.52485" lon="5.51582">
        <ele>145.3</ele>
        <time>2013-02-17T13:33:26Z</time>
      </trkpt>
      <trkpt lat="50.52465" lon="5.51547">
        <ele>147.8</ele>
        <time>2013-02-17T13:33:32Z</time>
      </trkpt>
      <trkpt lat="50.52449" lon="5.51509">
        <ele>147.3</ele>
        <time>2013-02-17T13:33:38Z</time>
      </trkpt>
      <trkpt lat="50.52434" lon="5.51478">
        <ele>146.9</ele>
        <time>2013-02-17T13:33:43Z</time>
      </trkpt>
      <trkpt lat="50.52416" lon="5.51448">
        <ele>149.2</ele>
        <time>2013-02-17T13:33:48Z</time>
      </trkpt>
      <trkpt lat="50.52404" lon="5.5142">
        <ele>148.7</ele>
        <time>2013-02-17T13:33:53Z</time>
      </trkpt>
      <trkpt lat="50.52396" lon="5.51391">
        <ele>150.6</ele>
        <time>2013-02-17T13:33:58Z</time>
      </trkpt>
      <trkpt lat="50.52389" lon="5.51373">
        <ele>152.7</ele>
        <time>2013-02-17T13:34:01Z</time>
      </trkpt>
      <trkpt lat="50.52374" lon="5.51332">
        <ele>158.8</ele>
        <time>2013-02-17T13:34:07Z</time>
      </trkpt>
      <trkpt lat="50.52369" lon="5.51285">
        <ele>161.9</ele>
        <time>2013-02-17T13:34:14Z</time>
      </trkpt>
      <trkpt lat="50.52376" lon="5.5125">
        <ele>163.2</ele>
        <time>2013-02-17T13:34:20Z</time>
      </trkpt>
      <trkpt lat="50.52384" lon="5.51214">
        <ele>164.4</ele>
        <time>2013-02-17T13:34:25Z</time>
      </trkpt>
      <trkpt lat="50.52392" lon="5.51191">
        <ele>162.5</ele>
        <time>2013-02-17T13:34:29Z</time>
      </trkpt>
      <trkpt lat="50.52412" lon="5.51153">
        <ele>160.5</ele>
        <time>2013-02-17T13:34:37Z</time>
      </trkpt>
      <trkpt lat="50.52426" lon="5.51129">
        <ele>159.6</ele>
        <time>2013-02-17T13:34:42Z</time>
      </trkpt>
      <trkpt lat="50.52438" lon="5.51105">
        <ele>158.9</ele>
        <time>2013-02-17T13:34:47Z</time>
      </trkpt>
      <trkpt lat="50.52442" lon="5.51072">
        <ele>159.2</ele>
        <time>2013-02-17T13:34:54Z</time>
      </trkpt>
      <trkpt lat="50.52439" lon="5.51038">
        <ele>157.9</ele>
        <time>2013-02-17T13:35:00Z</time>
      </trkpt>
      <trkpt lat="50.52423" lon="5.51002">
        <ele>160.3</ele>
        <time>2013-02-17T13:35:07Z</time>
      </trkpt>
      <trkpt lat="50.52414" lon="5.50986">
        <ele>160.3</ele>
        <time>2013-02-17T13:35:12Z</time>
      </trkpt>
      <trkpt lat="50.5241" lon="5.50975">
        <ele>159</ele>
        <time>2013-02-17T13:35:19Z</time>
      </trkpt>
      <trkpt lat="50.52387" lon="5.50938">
        <ele>155.8</ele>
        <time>2013-02-17T13:35:26Z</time>
      </trkpt>
      <trkpt lat="50.52366" lon="5.5091">
        <ele>155.3</ele>
        <time>2013-02-17T13:35:32Z</time>
      </trkpt>
      <trkpt lat="50.52349" lon="5.50891">
        <ele>155.5</ele>
        <time>2013-02-17T13:35:37Z</time>
      </trkpt>
      <trkpt lat="50.52333" lon="5.50869">
        <ele>157.1</ele>
        <time>2013-02-17T13:35:42Z</time>
      </trkpt>
      <trkpt lat="50.52318" lon="5.50833">
        <ele>157.1</ele>
        <time>2013-02-17T13:35:49Z</time>
      </trkpt>
      <trkpt lat="50.52312" lon="5.50796">
        <ele>158.6</ele>
        <time>2013-02-17T13:35:55Z</time>
      </trkpt>
      <trkpt lat="50.52306" lon="5.50765">
        <ele>161.6</ele>
        <time>2013-02-17T13:36:00Z</time>
      </trkpt>
      <trkpt lat="50.52308" lon="5.50735">
        <ele>164.2</ele>
        <time>2013-02-17T13:36:05Z</time>
      </trkpt>
      <trkpt lat="50.52317" lon="5.50699">
        <ele>165</ele>
        <time>2013-02-17T13:36:12Z</time>
      </trkpt>
      <trkpt lat="50.52326" lon="5.50662">
        <ele>165.9</ele>
        <time>2013-02-17T13:36:19Z</time>
      </trkpt>
      <trkpt lat="50.52336" lon="5.50633">
        <ele>166.4</ele>
        <time>2013-02-17T13:36:25Z</time>
      </trkpt>
      <trkpt lat="50.52345" lon="5.50606">
        <ele>166.4</ele>
        <time>2013-02-17T13:36:32Z</time>
      </trkpt>
      <trkpt lat="50.52348" lon="5.50578">
        <ele>167.4</ele>
        <time>2013-02-17T13:36:40Z</time>
      </trkpt>
      <trkpt lat="50.52352" lon="5.50545">
        <ele>169.6</ele>
        <time>2013-02-17T13:36:49Z</time>
      </trkpt>
      <trkpt lat="50.52352" lon="5.50513">
        <ele>173.6</ele>
        <time>2013-02-17T13:37:00Z</time>
      </trkpt>
      <trkpt lat="50.52348" lon="5.50472">
        <ele>177.3</ele>
        <time>2013-02-17T13:37:09Z</time>
      </trkpt>
      <trkpt lat="50.52341" lon="5.50442">
        <ele>178.6</ele>
        <time>2013-02-17T13:37:17Z</time>
      </trkpt>
      <trkpt lat="50.52339" lon="5.50433">
        <ele>178</ele>
        <time>2013-02-17T13:37:20Z</time>
      </trkpt>
      <trkpt lat="50.52328" lon="5.50404">
        <ele>179.5</ele>
        <time>2013-02-17T13:37:30Z</time>
      </trkpt>
      <trkpt lat="50.52321" lon="5.50379">
        <ele>178.2</ele>
        <time>2013-02-17T13:37:36Z</time>
      </trkpt>
      <trkpt lat="50.52313" lon="5.50357">
        <ele>176.2</ele>
        <time>2013-02-17T13:37:41Z</time>
      </trkpt>
      <trkpt lat="50.52301" lon="5.50325">
        <ele>176.1</ele>
        <time>2013-02-17T13:37:48Z</time>
      </trkpt>
      <trkpt lat="50.5229" lon="5.503">
        <ele>176.7</ele>
        <time>2013-02-17T13:37:55Z</time>
      </trkpt>
      <trkpt lat="50.52279" lon="5.50284">
        <ele>175.5</ele>
        <time>2013-02-17T13:38:00Z</time>
      </trkpt>
      <trkpt lat="50.52266" lon="5.50257">
        <ele>172.8</ele>
        <time>2013-02-17T13:38:07Z</time>
      </trkpt>
      <trkpt lat="50.5225" lon="5.50225">
        <ele>171.5</ele>
        <time>2013-02-17T13:38:15Z</time>
      </trkpt>
      <trkpt lat="50.52233" lon="5.50196">
        <ele>176.1</ele>
        <time>2013-02-17T13:38:22Z</time>
      </trkpt>
      <trkpt lat="50.5222" lon="5.50174">
        <ele>175.9</ele>
        <time>2013-02-17T13:38:28Z</time>
      </trkpt>
      <trkpt lat="50.52205" lon="5.50153">
        <ele>176.6</ele>
        <time>2013-02-17T13:38:35Z</time>
      </trkpt>
      <trkpt lat="50.52193" lon="5.50134">
        <ele>179.2</ele>
        <time>2013-02-17T13:38:40Z</time>
      </trkpt>
      <trkpt lat="50.52184" lon="5.50118">
        <ele>179.3</ele>
        <time>2013-02-17T13:38:45Z</time>
      </trkpt>
      <trkpt lat="50.5217" lon="5.50092">
        <ele>180.3</ele>
        <time>2013-02-17T13:38:54Z</time>
      </trkpt>
      <trkpt lat="50.52155" lon="5.5006">
        <ele>180.4</ele>
        <time>2013-02-17T13:39:01Z</time>
      </trkpt>
      <trkpt lat="50.52143" lon="5.50039">
        <ele>181.9</ele>
        <time>2013-02-17T13:39:07Z</time>
      </trkpt>
      <trkpt lat="50.52129" lon="5.50006">
        <ele>184</ele>
        <time>2013-02-17T13:39:15Z</time>
      </trkpt>
      <trkpt lat="50.52118" lon="5.49986">
        <ele>184.1</ele>
        <time>2013-02-17T13:39:20Z</time>
      </trkpt>
      <trkpt lat="50.52106" lon="5.49971">
        <ele>184.5</ele>
        <time>2013-02-17T13:39:26Z</time>
      </trkpt>
      <trkpt lat="50.52097" lon="5.49958">
        <ele>183.8</ele>
        <time>2013-02-17T13:39:31Z</time>
      </trkpt>
      <trkpt lat="50.52076" lon="5.49927">
        <ele>182.8</ele>
        <time>2013-02-17T13:39:40Z</time>
      </trkpt>
      <trkpt lat="50.5206" lon="5.49898">
        <ele>188.9</ele>
        <time>2013-02-17T13:39:48Z</time>
      </trkpt>
      <trkpt lat="50.52045" lon="5.49873">
        <ele>187.2</ele>
        <time>2013-02-17T13:39:54Z</time>
      </trkpt>
      <trkpt lat="50.52031" lon="5.49855">
        <ele>183.3</ele>
        <time>2013-02-17T13:40:00Z</time>
      </trkpt>
      <trkpt lat="50.52007" lon="5.49848">
        <ele>178.7</ele>
        <time>2013-02-17T13:40:08Z</time>
      </trkpt>
      <trkpt lat="50.51986" lon="5.49853">
        <ele>181.2</ele>
        <time>2013-02-17T13:40:17Z</time>
      </trkpt>
      <trkpt lat="50.51953" lon="5.49866">
        <ele>178.8</ele>
        <time>2013-02-17T13:40:27Z</time>
      </trkpt>
      <trkpt lat="50.5193" lon="5.49878">
        <ele>177.8</ele>
        <time>2013-02-17T13:40:33Z</time>
      </trkpt>
      <trkpt lat="50.519" lon="5.49879">
        <ele>178.8</ele>
        <time>2013-02-17T13:40:40Z</time>
      </trkpt>
      <trkpt lat="50.51876" lon="5.49875">
        <ele>178.1</ele>
        <time>2013-02-17T13:40:48Z</time>
      </trkpt>
      <trkpt lat="50.51852" lon="5.4987">
        <ele>176.6</ele>
        <time>2013-02-17T13:40:56Z</time>
      </trkpt>
      <trkpt lat="50.51831" lon="5.49852">
        <ele>177.6</ele>
        <time>2013-02-17T13:41:02Z</time>
      </trkpt>
      <trkpt lat="50.51818" lon="5.49828">
        <ele>180.2</ele>
        <time>2013-02-17T13:41:09Z</time>
      </trkpt>
      <trkpt lat="50.51811" lon="5.49804">
        <ele>183</ele>
        <time>2013-02-17T13:41:16Z</time>
      </trkpt>
      <trkpt lat="50.51805" lon="5.49771">
        <ele>184.6</ele>
        <time>2013-02-17T13:41:25Z</time>
      </trkpt>
      <trkpt lat="50.51795" lon="5.49734">
        <ele>185.6</ele>
        <time>2013-02-17T13:41:34Z</time>
      </trkpt>
      <trkpt lat="50.51786" lon="5.49703">
        <ele>185.1</ele>
        <time>2013-02-17T13:41:41Z</time>
      </trkpt>
      <trkpt lat="50.51774" lon="5.49663">
        <ele>182.8</ele>
        <time>2013-02-17T13:41:49Z</time>
      </trkpt>
      <trkpt lat="50.51757" lon="5.49629">
        <ele>184.4</ele>
        <time>2013-02-17T13:41:58Z</time>
      </trkpt>
      <trkpt lat="50.51747" lon="5.49607">
        <ele>187.7</ele>
        <time>2013-02-17T13:42:03Z</time>
      </trkpt>
      <trkpt lat="50.51734" lon="5.49584">
        <ele>188.7</ele>
        <time>2013-02-17T13:42:09Z</time>
      </trkpt>
      <trkpt lat="50.51715" lon="5.49554">
        <ele>187.2</ele>
        <time>2013-02-17T13:42:18Z</time>
      </trkpt>
      <trkpt lat="50.51699" lon="5.49534">
        <ele>185.9</ele>
        <time>2013-02-17T13:42:26Z</time>
      </trkpt>
      <trkpt lat="50.51687" lon="5.49512">
        <ele>185.3</ele>
        <time>2013-02-17T13:42:32Z</time>
      </trkpt>
      <trkpt lat="50.51674" lon="5.49496">
        <ele>186</ele>
        <time>2013-02-17T13:42:37Z</time>
      </trkpt>
      <trkpt lat="50.51656" lon="5.49476">
        <ele>185.7</ele>
        <time>2013-02-17T13:42:46Z</time>
      </trkpt>
      <trkpt lat="50.51638" lon="5.49447">
        <ele>187.8</ele>
        <time>2013-02-17T13:42:55Z</time>
      </trkpt>
      <trkpt lat="50.51624" lon="5.49428">
        <ele>189.9</ele>
        <time>2013-02-17T13:43:03Z</time>
      </trkpt>
      <trkpt lat="50.51607" lon="5.49395">
        <ele>193.7</ele>
        <time>2013-02-17T13:43:14Z</time>
      </trkpt>
      <trkpt lat="50.51597" lon="5.49372">
        <ele>194</ele>
        <time>2013-02-17T13:43:21Z</time>
      </trkpt>
      <trkpt lat="50.51585" lon="5.49344">
        <ele>198.5</ele>
        <time>2013-02-17T13:43:31Z</time>
      </trkpt>
      <trkpt lat="50.51578" lon="5.49325">
        <ele>198.2</ele>
        <time>2013-02-17T13:43:36Z</time>
      </trkpt>
      <trkpt lat="50.51568" lon="5.49298">
        <ele>197</ele>
        <time>2013-02-17T13:43:44Z</time>
      </trkpt>
      <trkpt lat="50.51554" lon="5.49266">
        <ele>199.7</ele>
        <time>2013-02-17T13:43:54Z</time>
      </trkpt>
      <trkpt lat="50.51541" lon="5.49242">
        <ele>201</ele>
        <time>2013-02-17T13:44:01Z</time>
      </trkpt>
      <trkpt lat="50.51533" lon="5.4923">
        <ele>198.3</ele>
        <time>2013-02-17T13:44:06Z</time>
      </trkpt>
      <trkpt lat="50.5151" lon="5.49218">
        <ele>197</ele>
        <time>2013-02-17T13:44:16Z</time>
      </trkpt>
      <trkpt lat="50.5149" lon="5.49225">
        <ele>200.2</ele>
        <time>2013-02-17T13:44:24Z</time>
      </trkpt>
      <trkpt lat="50.51469" lon="5.49239">
        <ele>202.1</ele>
        <time>2013-02-17T13:44:33Z</time>
      </trkpt>
      <trkpt lat="50.51455" lon="5.49249">
        <ele>204.9</ele>
        <time>2013-02-17T13:44:40Z</time>
      </trkpt>
      <trkpt lat="50.51442" lon="5.49257">
        <ele>206.3</ele>
        <time>2013-02-17T13:44:46Z</time>
      </trkpt>
      <trkpt lat="50.5143" lon="5.49266">
        <ele>204.1</ele>
        <time>2013-02-17T13:44:51Z</time>
      </trkpt>
      <trkpt lat="50.51411" lon="5.49275">
        <ele>205.5</ele>
        <time>2013-02-17T13:44:59Z</time>
      </trkpt>
      <trkpt lat="50.51407" lon="5.49277">
        <ele>207.4</ele>
        <time>2013-02-17T13:45:02Z</time>
      </trkpt>
      <trkpt lat="50.51407" lon="5.49277">
        <ele>172.8</ele>
        <time>2013-02-17T13:45:07Z</time>
      </trkpt>
      <trkpt lat="50.51407" lon="5.49277">
        <ele>172.8</ele>
        <time>2013-02-17T13:49:40Z</time>
      </trkpt>
      <trkpt lat="50.51383" lon="5.49265">
        <ele>217.7</ele>
        <time>2013-02-17T13:49:40Z</time>
      </trkpt>
      <trkpt lat="50.51363" lon="5.49256">
        <ele>222.2</ele>
        <time>2013-02-17T13:49:49Z</time>
      </trkpt>
      <trkpt lat="50.51344" lon="5.49237">
        <ele>222.1</ele>
        <time>2013-02-17T13:49:58Z</time>
      </trkpt>
      <trkpt lat="50.51332" lon="5.49224">
        <ele>222.4</ele>
        <time>2013-02-17T13:50:04Z</time>
      </trkpt>
      <trkpt lat="50.5132" lon="5.49207">
        <ele>224.1</ele>
        <time>2013-02-17T13:50:11Z</time>
      </trkpt>
      <trkpt lat="50.51302" lon="5.49177">
        <ele>223.2</ele>
        <time>2013-02-17T13:50:21Z</time>
      </trkpt>
      <trkpt lat="50.51294" lon="5.49159">
        <ele>221.5</ele>
        <time>2013-02-17T13:50:27Z</time>
      </trkpt>
      <trkpt lat="50.5129" lon="5.49151">
        <ele>221.1</ele>
        <time>2013-02-17T13:50:30Z</time>
      </trkpt>
      <trkpt lat="50.51283" lon="5.49138">
        <ele>221.8</ele>
        <time>2013-02-17T13:50:36Z</time>
      </trkpt>
      <trkpt lat="50.51281" lon="5.49105">
        <ele>224.6</ele>
        <time>2013-02-17T13:50:44Z</time>
      </trkpt>
      <trkpt lat="50.51282" lon="5.49083">
        <ele>224.4</ele>
        <time>2013-02-17T13:50:50Z</time>
      </trkpt>
      <trkpt lat="50.51286" lon="5.49047">
        <ele>226.8</ele>
        <time>2013-02-17T13:51:02Z</time>
      </trkpt>
      <trkpt lat="50.51284" lon="5.48991">
        <ele>228</ele>
        <time>2013-02-17T13:51:13Z</time>
      </trkpt>
      <trkpt lat="50.51282" lon="5.48963">
        <ele>236.5</ele>
        <time>2013-02-17T13:51:20Z</time>
      </trkpt>
      <trkpt lat="50.51277" lon="5.48928">
        <ele>235.9</ele>
        <time>2013-02-17T13:51:27Z</time>
      </trkpt>
      <trkpt lat="50.51265" lon="5.4889">
        <ele>231.6</ele>
        <time>2013-02-17T13:51:34Z</time>
      </trkpt>
      <trkpt lat="50.5124" lon="5.48853">
        <ele>228.9</ele>
        <time>2013-02-17T13:51:40Z</time>
      </trkpt>
      <trkpt lat="50.51214" lon="5.48819">
        <ele>226</ele>
        <time>2013-02-17T13:51:45Z</time>
      </trkpt>
      <trkpt lat="50.51197" lon="5.48796">
        <ele>225.4</ele>
        <time>2013-02-17T13:51:48Z</time>
      </trkpt>
      <trkpt lat="50.5116" lon="5.48752">
        <ele>221.7</ele>
        <time>2013-02-17T13:51:54Z</time>
      </trkpt>
      <trkpt lat="50.51133" lon="5.4872">
        <ele>219.9</ele>
        <time>2013-02-17T13:52:00Z</time>
      </trkpt>
      <trkpt lat="50.51121" lon="5.48703">
        <ele>219.2</ele>
        <time>2013-02-17T13:52:03Z</time>
      </trkpt>
      <trkpt lat="50.51087" lon="5.48661">
        <ele>218</ele>
        <time>2013-02-17T13:52:09Z</time>
      </trkpt>
      <trkpt lat="50.51052" lon="5.48604">
        <ele>218.9</ele>
        <time>2013-02-17T13:52:15Z</time>
      </trkpt>
      <trkpt lat="50.51027" lon="5.48561">
        <ele>219.2</ele>
        <time>2013-02-17T13:52:20Z</time>
      </trkpt>
      <trkpt lat="50.51004" lon="5.48506">
        <ele>218.5</ele>
        <time>2013-02-17T13:52:27Z</time>
      </trkpt>
      <trkpt lat="50.50988" lon="5.48464">
        <ele>217.1</ele>
        <time>2013-02-17T13:52:32Z</time>
      </trkpt>
      <trkpt lat="50.50959" lon="5.48396">
        <ele>214.6</ele>
        <time>2013-02-17T13:52:39Z</time>
      </trkpt>
      <trkpt lat="50.50936" lon="5.48359">
        <ele>214.3</ele>
        <time>2013-02-17T13:52:44Z</time>
      </trkpt>
      <trkpt lat="50.50921" lon="5.48319">
        <ele>214.4</ele>
        <time>2013-02-17T13:52:49Z</time>
      </trkpt>
      <trkpt lat="50.50903" lon="5.48276">
        <ele>215.1</ele>
        <time>2013-02-17T13:52:56Z</time>
      </trkpt>
      <trkpt lat="50.5089" lon="5.48244">
        <ele>213.9</ele>
        <time>2013-02-17T13:53:02Z</time>
      </trkpt>
      <trkpt lat="50.50874" lon="5.48215">
        <ele>213.3</ele>
        <time>2013-02-17T13:53:08Z</time>
      </trkpt>
      <trkpt lat="50.50863" lon="5.48194">
        <ele>214.2</ele>
        <time>2013-02-17T13:53:13Z</time>
      </trkpt>
      <trkpt lat="50.5085" lon="5.4817">
        <ele>214</ele>
        <time>2013-02-17T13:53:19Z</time>
      </trkpt>
      <trkpt lat="50.50833" lon="5.48145">
        <ele>213</ele>
        <time>2013-02-17T13:53:25Z</time>
      </trkpt>
      <trkpt lat="50.50809" lon="5.48113">
        <ele>211.8</ele>
        <time>2013-02-17T13:53:32Z</time>
      </trkpt>
      <trkpt lat="50.50789" lon="5.48083">
        <ele>212.8</ele>
        <time>2013-02-17T13:53:37Z</time>
      </trkpt>
      <trkpt lat="50.50768" lon="5.48046">
        <ele>212.9</ele>
        <time>2013-02-17T13:53:43Z</time>
      </trkpt>
      <trkpt lat="50.50747" lon="5.48012">
        <ele>212.4</ele>
        <time>2013-02-17T13:53:50Z</time>
      </trkpt>
      <trkpt lat="50.50728" lon="5.47983">
        <ele>211.1</ele>
        <time>2013-02-17T13:53:56Z</time>
      </trkpt>
      <trkpt lat="50.5071" lon="5.47956">
        <ele>212.5</ele>
        <time>2013-02-17T13:54:01Z</time>
      </trkpt>
      <trkpt lat="50.507" lon="5.47938">
        <ele>212.5</ele>
        <time>2013-02-17T13:54:04Z</time>
      </trkpt>
      <trkpt lat="50.50684" lon="5.47913">
        <ele>212.2</ele>
        <time>2013-02-17T13:54:09Z</time>
      </trkpt>
      <trkpt lat="50.50661" lon="5.47875">
        <ele>211.5</ele>
        <time>2013-02-17T13:54:15Z</time>
      </trkpt>
      <trkpt lat="50.50643" lon="5.47848">
        <ele>212.2</ele>
        <time>2013-02-17T13:54:21Z</time>
      </trkpt>
      <trkpt lat="50.50624" lon="5.47823">
        <ele>211.7</ele>
        <time>2013-02-17T13:54:27Z</time>
      </trkpt>
      <trkpt lat="50.50616" lon="5.47812">
        <ele>213</ele>
        <time>2013-02-17T13:54:30Z</time>
      </trkpt>
      <trkpt lat="50.50603" lon="5.47793">
        <ele>212.9</ele>
        <time>2013-02-17T13:54:35Z</time>
      </trkpt>
      <trkpt lat="50.50581" lon="5.47759">
        <ele>210.4</ele>
        <time>2013-02-17T13:54:40Z</time>
      </trkpt>
      <trkpt lat="50.50559" lon="5.47728">
        <ele>209.3</ele>
        <time>2013-02-17T13:54:46Z</time>
      </trkpt>
      <trkpt lat="50.50533" lon="5.47702">
        <ele>208.6</ele>
        <time>2013-02-17T13:54:54Z</time>
      </trkpt>
      <trkpt lat="50.50508" lon="5.47689">
        <ele>210.7</ele>
        <time>2013-02-17T13:55:01Z</time>
      </trkpt>
      <trkpt lat="50.50484" lon="5.47693">
        <ele>210.3</ele>
        <time>2013-02-17T13:55:08Z</time>
      </trkpt>
      <trkpt lat="50.50464" lon="5.477">
        <ele>210.8</ele>
        <time>2013-02-17T13:55:15Z</time>
      </trkpt>
      <trkpt lat="50.50446" lon="5.47709">
        <ele>210.8</ele>
        <time>2013-02-17T13:55:20Z</time>
      </trkpt>
      <trkpt lat="50.5042" lon="5.47721">
        <ele>212.8</ele>
        <time>2013-02-17T13:55:27Z</time>
      </trkpt>
      <trkpt lat="50.50397" lon="5.47733">
        <ele>212.9</ele>
        <time>2013-02-17T13:55:33Z</time>
      </trkpt>
      <trkpt lat="50.50371" lon="5.47744">
        <ele>212.1</ele>
        <time>2013-02-17T13:55:40Z</time>
      </trkpt>
      <trkpt lat="50.50345" lon="5.47748">
        <ele>213.2</ele>
        <time>2013-02-17T13:55:46Z</time>
      </trkpt>
      <trkpt lat="50.5033" lon="5.47746">
        <ele>215.7</ele>
        <time>2013-02-17T13:55:49Z</time>
      </trkpt>
      <trkpt lat="50.50308" lon="5.47741">
        <ele>215.8</ele>
        <time>2013-02-17T13:55:54Z</time>
      </trkpt>
      <trkpt lat="50.50294" lon="5.47737">
        <ele>217.2</ele>
        <time>2013-02-17T13:55:58Z</time>
      </trkpt>
      <trkpt lat="50.50269" lon="5.47735">
        <ele>218.5</ele>
        <time>2013-02-17T13:56:05Z</time>
      </trkpt>
      <trkpt lat="50.50252" lon="5.47735">
        <ele>217.6</ele>
        <time>2013-02-17T13:56:10Z</time>
      </trkpt>
      <trkpt lat="50.50236" lon="5.47738">
        <ele>216.6</ele>
        <time>2013-02-17T13:56:15Z</time>
      </trkpt>
      <trkpt lat="50.50217" lon="5.4774">
        <ele>215.6</ele>
        <time>2013-02-17T13:56:21Z</time>
      </trkpt>
      <trkpt lat="50.50194" lon="5.47753">
        <ele>216.9</ele>
        <time>2013-02-17T13:56:27Z</time>
      </trkpt>
      <trkpt lat="50.50175" lon="5.47773">
        <ele>214.1</ele>
        <time>2013-02-17T13:56:33Z</time>
      </trkpt>
      <trkpt lat="50.50162" lon="5.47793">
        <ele>213.3</ele>
        <time>2013-02-17T13:56:38Z</time>
      </trkpt>
      <trkpt lat="50.50143" lon="5.47826">
        <ele>217.2</ele>
        <time>2013-02-17T13:56:46Z</time>
      </trkpt>
      <trkpt lat="50.50133" lon="5.4782">
        <ele>214.4</ele>
        <time>2013-02-17T13:56:52Z</time>
      </trkpt>
      <trkpt lat="50.50115" lon="5.47789">
        <ele>211.5</ele>
        <time>2013-02-17T13:57:00Z</time>
      </trkpt>
      <trkpt lat="50.5009" lon="5.47775">
        <ele>215.2</ele>
        <time>2013-02-17T13:57:07Z</time>
      </trkpt>
      <trkpt lat="50.50071" lon="5.47773">
        <ele>218.1</ele>
        <time>2013-02-17T13:57:13Z</time>
      </trkpt>
      <trkpt lat="50.50054" lon="5.4778">
        <ele>220.3</ele>
        <time>2013-02-17T13:57:22Z</time>
      </trkpt>
      <trkpt lat="50.50042" lon="5.47787">
        <ele>221.2</ele>
        <time>2013-02-17T13:57:28Z</time>
      </trkpt>
      <trkpt lat="50.50017" lon="5.47795">
        <ele>219.7</ele>
        <time>2013-02-17T13:57:37Z</time>
      </trkpt>
      <trkpt lat="50.49993" lon="5.47803">
        <ele>218.7</ele>
        <time>2013-02-17T13:57:45Z</time>
      </trkpt>
      <trkpt lat="50.49985" lon="5.47805">
        <ele>218.3</ele>
        <time>2013-02-17T13:57:48Z</time>
      </trkpt>
      <trkpt lat="50.49968" lon="5.47807">
        <ele>221.2</ele>
        <time>2013-02-17T13:57:54Z</time>
      </trkpt>
      <trkpt lat="50.49948" lon="5.47799">
        <ele>225.3</ele>
        <time>2013-02-17T13:58:03Z</time>
      </trkpt>
      <trkpt lat="50.49928" lon="5.47778">
        <ele>225.5</ele>
        <time>2013-02-17T13:58:13Z</time>
      </trkpt>
      <trkpt lat="50.49915" lon="5.47766">
        <ele>227</ele>
        <time>2013-02-17T13:58:20Z</time>
      </trkpt>
      <trkpt lat="50.499" lon="5.4775">
        <ele>230.2</ele>
        <time>2013-02-17T13:58:29Z</time>
      </trkpt>
      <trkpt lat="50.49887" lon="5.47735">
        <ele>229.9</ele>
        <time>2013-02-17T13:58:36Z</time>
      </trkpt>
      <trkpt lat="50.49868" lon="5.47715">
        <ele>234.3</ele>
        <time>2013-02-17T13:58:45Z</time>
      </trkpt>
      <trkpt lat="50.49852" lon="5.47696">
        <ele>233.9</ele>
        <time>2013-02-17T13:58:52Z</time>
      </trkpt>
      <trkpt lat="50.49837" lon="5.47676">
        <ele>233.4</ele>
        <time>2013-02-17T13:59:00Z</time>
      </trkpt>
      <trkpt lat="50.49822" lon="5.47656">
        <ele>232.6</ele>
        <time>2013-02-17T13:59:09Z</time>
      </trkpt>
      <trkpt lat="50.49803" lon="5.47629">
        <ele>234.1</ele>
        <time>2013-02-17T13:59:19Z</time>
      </trkpt>
      <trkpt lat="50.49795" lon="5.4761">
        <ele>233.7</ele>
        <time>2013-02-17T13:59:24Z</time>
      </trkpt>
      <trkpt lat="50.49787" lon="5.47581">
        <ele>236.7</ele>
        <time>2013-02-17T13:59:30Z</time>
      </trkpt>
      <trkpt lat="50.49777" lon="5.47554">
        <ele>240.6</ele>
        <time>2013-02-17T13:59:37Z</time>
      </trkpt>
      <trkpt lat="50.49766" lon="5.47537">
        <ele>241.5</ele>
        <time>2013-02-17T13:59:43Z</time>
      </trkpt>
      <trkpt lat="50.4976" lon="5.47516">
        <ele>243.2</ele>
        <time>2013-02-17T13:59:51Z</time>
      </trkpt>
      <trkpt lat="50.4976" lon="5.47516">
        <ele>196.9</ele>
        <time>2013-02-17T13:59:56Z</time>
      </trkpt>
      <trkpt lat="50.4976" lon="5.47516">
        <ele>196.9</ele>
        <time>2013-02-17T14:00:01Z</time>
      </trkpt>
      <trkpt lat="50.49753" lon="5.47498">
        <ele>243.9</ele>
        <time>2013-02-17T14:00:01Z</time>
      </trkpt>
      <trkpt lat="50.49737" lon="5.47455">
        <ele>242</ele>
        <time>2013-02-17T14:00:09Z</time>
      </trkpt>
      <trkpt lat="50.49729" lon="5.47427">
        <ele>242.7</ele>
        <time>2013-02-17T14:00:15Z</time>
      </trkpt>
      <trkpt lat="50.49717" lon="5.47403">
        <ele>241.9</ele>
        <time>2013-02-17T14:00:21Z</time>
      </trkpt>
      <trkpt lat="50.49712" lon="5.47381">
        <ele>241.4</ele>
        <time>2013-02-17T14:00:26Z</time>
      </trkpt>
      <trkpt lat="50.49723" lon="5.47352">
        <ele>243.3</ele>
        <time>2013-02-17T14:00:34Z</time>
      </trkpt>
      <trkpt lat="50.49729" lon="5.47343">
        <ele>244.5</ele>
        <time>2013-02-17T14:00:37Z</time>
      </trkpt>
      <trkpt lat="50.49742" lon="5.47325">
        <ele>243.7</ele>
        <time>2013-02-17T14:00:44Z</time>
      </trkpt>
      <trkpt lat="50.49742" lon="5.47297">
        <ele>244.9</ele>
        <time>2013-02-17T14:00:53Z</time>
      </trkpt>
      <trkpt lat="50.49729" lon="5.47261">
        <ele>243.9</ele>
        <time>2013-02-17T14:01:02Z</time>
      </trkpt>
      <trkpt lat="50.49711" lon="5.47223">
        <ele>248</ele>
        <time>2013-02-17T14:01:08Z</time>
      </trkpt>
      <trkpt lat="50.49691" lon="5.47178">
        <ele>249.3</ele>
        <time>2013-02-17T14:01:14Z</time>
      </trkpt>
      <trkpt lat="50.49672" lon="5.47136">
        <ele>247.5</ele>
        <time>2013-02-17T14:01:20Z</time>
      </trkpt>
      <trkpt lat="50.49634" lon="5.47089">
        <ele>251</ele>
        <time>2013-02-17T14:01:26Z</time>
      </trkpt>
      <trkpt lat="50.49607" lon="5.47053">
        <ele>250.2</ele>
        <time>2013-02-17T14:01:31Z</time>
      </trkpt>
      <trkpt lat="50.49589" lon="5.47024">
        <ele>251.2</ele>
        <time>2013-02-17T14:01:37Z</time>
      </trkpt>
      <trkpt lat="50.49559" lon="5.46996">
        <ele>253.1</ele>
        <time>2013-02-17T14:01:45Z</time>
      </trkpt>
      <trkpt lat="50.4954" lon="5.46974">
        <ele>253.2</ele>
        <time>2013-02-17T14:01:53Z</time>
      </trkpt>
      <trkpt lat="50.49526" lon="5.46959">
        <ele>253.7</ele>
        <time>2013-02-17T14:01:59Z</time>
      </trkpt>
      <trkpt lat="50.49511" lon="5.46948">
        <ele>253.1</ele>
        <time>2013-02-17T14:02:04Z</time>
      </trkpt>
      <trkpt lat="50.49493" lon="5.46934">
        <ele>254.4</ele>
        <time>2013-02-17T14:02:11Z</time>
      </trkpt>
      <trkpt lat="50.49483" lon="5.46927">
        <ele>253.1</ele>
        <time>2013-02-17T14:02:15Z</time>
      </trkpt>
      <trkpt lat="50.49473" lon="5.46917">
        <ele>250.4</ele>
        <time>2013-02-17T14:02:20Z</time>
      </trkpt>
      <trkpt lat="50.49457" lon="5.469">
        <ele>249.7</ele>
        <time>2013-02-17T14:02:30Z</time>
      </trkpt>
      <trkpt lat="50.49437" lon="5.46863">
        <ele>251.8</ele>
        <time>2013-02-17T14:02:40Z</time>
      </trkpt>
      <trkpt lat="50.49428" lon="5.46837">
        <ele>253.8</ele>
        <time>2013-02-17T14:02:47Z</time>
      </trkpt>
      <trkpt lat="50.49416" lon="5.46816">
        <ele>253.9</ele>
        <time>2013-02-17T14:02:54Z</time>
      </trkpt>
      <trkpt lat="50.49398" lon="5.46786">
        <ele>253.9</ele>
        <time>2013-02-17T14:03:05Z</time>
      </trkpt>
      <trkpt lat="50.49385" lon="5.46769">
        <ele>255</ele>
        <time>2013-02-17T14:03:12Z</time>
      </trkpt>
      <trkpt lat="50.49373" lon="5.46745">
        <ele>255.3</ele>
        <time>2013-02-17T14:03:20Z</time>
      </trkpt>
      <trkpt lat="50.49357" lon="5.46722">
        <ele>256.3</ele>
        <time>2013-02-17T14:03:29Z</time>
      </trkpt>
      <trkpt lat="50.49342" lon="5.46699">
        <ele>258</ele>
        <time>2013-02-17T14:03:36Z</time>
      </trkpt>
      <trkpt lat="50.4933" lon="5.46684">
        <ele>261</ele>
        <time>2013-02-17T14:03:44Z</time>
      </trkpt>
      <trkpt lat="50.4932" lon="5.46656">
        <ele>261.6</ele>
        <time>2013-02-17T14:03:54Z</time>
      </trkpt>
      <trkpt lat="50.4931" lon="5.46625">
        <ele>263.6</ele>
        <time>2013-02-17T14:04:04Z</time>
      </trkpt>
      <trkpt lat="50.49303" lon="5.46595">
        <ele>263.4</ele>
        <time>2013-02-17T14:04:12Z</time>
      </trkpt>
      <trkpt lat="50.49303" lon="5.46565">
        <ele>263.6</ele>
        <time>2013-02-17T14:04:20Z</time>
      </trkpt>
      <trkpt lat="50.49295" lon="5.46537">
        <ele>264.6</ele>
        <time>2013-02-17T14:04:28Z</time>
      </trkpt>
      <trkpt lat="50.49288" lon="5.46511">
        <ele>263.9</ele>
        <time>2013-02-17T14:04:36Z</time>
      </trkpt>
      <trkpt lat="50.49279" lon="5.46479">
        <ele>264.1</ele>
        <time>2013-02-17T14:04:45Z</time>
      </trkpt>
      <trkpt lat="50.49272" lon="5.4646">
        <ele>263.8</ele>
        <time>2013-02-17T14:04:50Z</time>
      </trkpt>
      <trkpt lat="50.49258" lon="5.46426">
        <ele>267.9</ele>
        <time>2013-02-17T14:04:59Z</time>
      </trkpt>
      <trkpt lat="50.49252" lon="5.46408">
        <ele>267.2</ele>
        <time>2013-02-17T14:05:05Z</time>
      </trkpt>
      <trkpt lat="50.49239" lon="5.46373">
        <ele>266.3</ele>
        <time>2013-02-17T14:05:15Z</time>
      </trkpt>
      <trkpt lat="50.49232" lon="5.46349">
        <ele>267.9</ele>
        <time>2013-02-17T14:05:20Z</time>
      </trkpt>
      <trkpt lat="50.4922" lon="5.46307">
        <ele>266.7</ele>
        <time>2013-02-17T14:05:28Z</time>
      </trkpt>
      <trkpt lat="50.49211" lon="5.4628">
        <ele>264.9</ele>
        <time>2013-02-17T14:05:33Z</time>
      </trkpt>
      <trkpt lat="50.49193" lon="5.4623">
        <ele>263.3</ele>
        <time>2013-02-17T14:05:40Z</time>
      </trkpt>
      <trkpt lat="50.49203" lon="5.46165">
        <ele>263.6</ele>
        <time>2013-02-17T14:05:46Z</time>
      </trkpt>
      <trkpt lat="50.49218" lon="5.46105">
        <ele>260.6</ele>
        <time>2013-02-17T14:05:51Z</time>
      </trkpt>
      <trkpt lat="50.49219" lon="5.46039">
        <ele>261.4</ele>
        <time>2013-02-17T14:05:57Z</time>
      </trkpt>
      <trkpt lat="50.49217" lon="5.46">
        <ele>260.6</ele>
        <time>2013-02-17T14:06:02Z</time>
      </trkpt>
      <trkpt lat="50.49212" lon="5.4596">
        <ele>259.5</ele>
        <time>2013-02-17T14:06:08Z</time>
      </trkpt>
      <trkpt lat="50.49214" lon="5.45933">
        <ele>259.4</ele>
        <time>2013-02-17T14:06:13Z</time>
      </trkpt>
      <trkpt lat="50.4921" lon="5.45899">
        <ele>261.8</ele>
        <time>2013-02-17T14:06:20Z</time>
      </trkpt>
      <trkpt lat="50.49208" lon="5.45869">
        <ele>263.9</ele>
        <time>2013-02-17T14:06:26Z</time>
      </trkpt>
      <trkpt lat="50.49207" lon="5.45844">
        <ele>261.9</ele>
        <time>2013-02-17T14:06:35Z</time>
      </trkpt>
      <trkpt lat="50.49208" lon="5.45804">
        <ele>263.4</ele>
        <time>2013-02-17T14:06:50Z</time>
      </trkpt>
      <trkpt lat="50.49203" lon="5.45763">
        <ele>266.7</ele>
        <time>2013-02-17T14:07:06Z</time>
      </trkpt>
      <trkpt lat="50.49199" lon="5.45734">
        <ele>269</ele>
        <time>2013-02-17T14:07:16Z</time>
      </trkpt>
      <trkpt lat="50.49191" lon="5.45703">
        <ele>276.6</ele>
        <time>2013-02-17T14:07:28Z</time>
      </trkpt>
      <trkpt lat="50.49191" lon="5.45669">
        <ele>270.8</ele>
        <time>2013-02-17T14:07:40Z</time>
      </trkpt>
      <trkpt lat="50.4919" lon="5.45644">
        <ele>275.5</ele>
        <time>2013-02-17T14:07:50Z</time>
      </trkpt>
      <trkpt lat="50.49187" lon="5.45617">
        <ele>267.1</ele>
        <time>2013-02-17T14:08:03Z</time>
      </trkpt>
      <trkpt lat="50.49184" lon="5.45595">
        <ele>272</ele>
        <time>2013-02-17T14:08:10Z</time>
      </trkpt>
      <trkpt lat="50.49179" lon="5.45572">
        <ele>278.1</ele>
        <time>2013-02-17T14:08:20Z</time>
      </trkpt>
      <trkpt lat="50.49176" lon="5.45536">
        <ele>281.9</ele>
        <time>2013-02-17T14:08:32Z</time>
      </trkpt>
      <trkpt lat="50.49174" lon="5.45511">
        <ele>285.3</ele>
        <time>2013-02-17T14:08:43Z</time>
      </trkpt>
      <trkpt lat="50.49169" lon="5.45497">
        <ele>285.6</ele>
        <time>2013-02-17T14:08:51Z</time>
      </trkpt>
      <trkpt lat="50.4916" lon="5.4546">
        <ele>292.8</ele>
        <time>2013-02-17T14:09:04Z</time>
      </trkpt>
      <trkpt lat="50.49154" lon="5.45439">
        <ele>293</ele>
        <time>2013-02-17T14:09:11Z</time>
      </trkpt>
      <trkpt lat="50.49145" lon="5.45408">
        <ele>294.1</ele>
        <time>2013-02-17T14:09:22Z</time>
      </trkpt>
      <trkpt lat="50.49138" lon="5.45385">
        <ele>294.3</ele>
        <time>2013-02-17T14:09:32Z</time>
      </trkpt>
      <trkpt lat="50.49124" lon="5.45353">
        <ele>296.7</ele>
        <time>2013-02-17T14:09:46Z</time>
      </trkpt>
      <trkpt lat="50.49115" lon="5.45323">
        <ele>298.5</ele>
        <time>2013-02-17T14:09:54Z</time>
      </trkpt>
      <trkpt lat="50.4911" lon="5.45299">
        <ele>298.5</ele>
        <time>2013-02-17T14:10:01Z</time>
      </trkpt>
      <trkpt lat="50.49107" lon="5.45272">
        <ele>298.9</ele>
        <time>2013-02-17T14:10:11Z</time>
      </trkpt>
      <trkpt lat="50.49107" lon="5.45272">
        <ele>298.9</ele>
        <time>2013-02-17T14:10:19Z</time>
      </trkpt>
      <trkpt lat="50.49107" lon="5.45272">
        <ele>251.9</ele>
        <time>2013-02-17T14:10:19Z</time>
      </trkpt>
      <trkpt lat="50.49107" lon="5.45272">
        <ele>251.9</ele>
        <time>2013-02-17T14:10:27Z</time>
      </trkpt>
      <trkpt lat="50.49114" lon="5.4526">
        <ele>298.9</ele>
        <time>2013-02-17T14:10:27Z</time>
      </trkpt>
      <trkpt lat="50.49154" lon="5.45224">
        <ele>296.9</ele>
        <time>2013-02-17T14:10:44Z</time>
      </trkpt>
      <trkpt lat="50.49166" lon="5.45217">
        <ele>295.3</ele>
        <time>2013-02-17T14:10:50Z</time>
      </trkpt>
      <trkpt lat="50.49189" lon="5.45198">
        <ele>295.4</ele>
        <time>2013-02-17T14:11:02Z</time>
      </trkpt>
      <trkpt lat="50.49195" lon="5.45178">
        <ele>298.6</ele>
        <time>2013-02-17T14:11:08Z</time>
      </trkpt>
      <trkpt lat="50.49189" lon="5.4515">
        <ele>296.1</ele>
        <time>2013-02-17T14:11:16Z</time>
      </trkpt>
      <trkpt lat="50.4917" lon="5.45126">
        <ele>296.4</ele>
        <time>2013-02-17T14:11:25Z</time>
      </trkpt>
      <trkpt lat="50.49158" lon="5.45104">
        <ele>295.1</ele>
        <time>2013-02-17T14:11:31Z</time>
      </trkpt>
      <trkpt lat="50.49143" lon="5.45069">
        <ele>298.6</ele>
        <time>2013-02-17T14:11:37Z</time>
      </trkpt>
      <trkpt lat="50.49133" lon="5.45045">
        <ele>297.5</ele>
        <time>2013-02-17T14:11:43Z</time>
      </trkpt>
      <trkpt lat="50.49123" lon="5.45022">
        <ele>296</ele>
        <time>2013-02-17T14:11:48Z</time>
      </trkpt>
      <trkpt lat="50.49107" lon="5.44984">
        <ele>296.6</ele>
        <time>2013-02-17T14:11:55Z</time>
      </trkpt>
      <trkpt lat="50.49093" lon="5.44954">
        <ele>297.2</ele>
        <time>2013-02-17T14:12:01Z</time>
      </trkpt>
      <trkpt lat="50.49081" lon="5.44929">
        <ele>297.1</ele>
        <time>2013-02-17T14:12:07Z</time>
      </trkpt>
      <trkpt lat="50.49067" lon="5.44896">
        <ele>293.9</ele>
        <time>2013-02-17T14:12:17Z</time>
      </trkpt>
      <trkpt lat="50.49053" lon="5.44861">
        <ele>292.8</ele>
        <time>2013-02-17T14:12:23Z</time>
      </trkpt>
      <trkpt lat="50.49039" lon="5.44828">
        <ele>291.7</ele>
        <time>2013-02-17T14:12:29Z</time>
      </trkpt>
      <trkpt lat="50.49026" lon="5.44797">
        <ele>288.9</ele>
        <time>2013-02-17T14:12:34Z</time>
      </trkpt>
      <trkpt lat="50.49012" lon="5.44762">
        <ele>290.7</ele>
        <time>2013-02-17T14:12:40Z</time>
      </trkpt>
      <trkpt lat="50.48997" lon="5.44733">
        <ele>293</ele>
        <time>2013-02-17T14:12:45Z</time>
      </trkpt>
      <trkpt lat="50.48977" lon="5.44692">
        <ele>295</ele>
        <time>2013-02-17T14:12:51Z</time>
      </trkpt>
      <trkpt lat="50.48952" lon="5.44627">
        <ele>295.6</ele>
        <time>2013-02-17T14:13:00Z</time>
      </trkpt>
      <trkpt lat="50.48931" lon="5.44587">
        <ele>295.6</ele>
        <time>2013-02-17T14:13:07Z</time>
      </trkpt>
      <trkpt lat="50.48915" lon="5.44553">
        <ele>297</ele>
        <time>2013-02-17T14:13:12Z</time>
      </trkpt>
      <trkpt lat="50.48897" lon="5.44508">
        <ele>297.6</ele>
        <time>2013-02-17T14:13:18Z</time>
      </trkpt>
      <trkpt lat="50.48889" lon="5.44486">
        <ele>298</ele>
        <time>2013-02-17T14:13:21Z</time>
      </trkpt>
      <trkpt lat="50.4887" lon="5.44446">
        <ele>300.4</ele>
        <time>2013-02-17T14:13:27Z</time>
      </trkpt>
      <trkpt lat="50.48858" lon="5.4443">
        <ele>300.8</ele>
        <time>2013-02-17T14:13:30Z</time>
      </trkpt>
      <trkpt lat="50.48838" lon="5.4439">
        <ele>301</ele>
        <time>2013-02-17T14:13:36Z</time>
      </trkpt>
      <trkpt lat="50.48816" lon="5.44338">
        <ele>302.6</ele>
        <time>2013-02-17T14:13:44Z</time>
      </trkpt>
      <trkpt lat="50.48802" lon="5.44302">
        <ele>303.4</ele>
        <time>2013-02-17T14:13:50Z</time>
      </trkpt>
      <trkpt lat="50.48784" lon="5.44264">
        <ele>304.8</ele>
        <time>2013-02-17T14:13:57Z</time>
      </trkpt>
      <trkpt lat="50.48771" lon="5.44237">
        <ele>305.5</ele>
        <time>2013-02-17T14:14:02Z</time>
      </trkpt>
      <trkpt lat="50.48757" lon="5.44201">
        <ele>306.5</ele>
        <time>2013-02-17T14:14:08Z</time>
      </trkpt>
      <trkpt lat="50.48745" lon="5.44171">
        <ele>306.7</ele>
        <time>2013-02-17T14:14:13Z</time>
      </trkpt>
      <trkpt lat="50.48729" lon="5.44137">
        <ele>307.2</ele>
        <time>2013-02-17T14:14:19Z</time>
      </trkpt>
      <trkpt lat="50.48719" lon="5.44109">
        <ele>306.7</ele>
        <time>2013-02-17T14:14:24Z</time>
      </trkpt>
      <trkpt lat="50.48707" lon="5.44083">
        <ele>307</ele>
        <time>2013-02-17T14:14:29Z</time>
      </trkpt>
      <trkpt lat="50.48693" lon="5.4405">
        <ele>307.9</ele>
        <time>2013-02-17T14:14:35Z</time>
      </trkpt>
      <trkpt lat="50.48685" lon="5.44032">
        <ele>307.9</ele>
        <time>2013-02-17T14:14:38Z</time>
      </trkpt>
      <trkpt lat="50.48672" lon="5.44002">
        <ele>308.7</ele>
        <time>2013-02-17T14:14:43Z</time>
      </trkpt>
      <trkpt lat="50.48659" lon="5.43975">
        <ele>306.9</ele>
        <time>2013-02-17T14:14:48Z</time>
      </trkpt>
      <trkpt lat="50.48646" lon="5.43947">
        <ele>306.8</ele>
        <time>2013-02-17T14:14:53Z</time>
      </trkpt>
      <trkpt lat="50.48634" lon="5.43917">
        <ele>307.3</ele>
        <time>2013-02-17T14:14:58Z</time>
      </trkpt>
      <trkpt lat="50.48625" lon="5.43894">
        <ele>306.3</ele>
        <time>2013-02-17T14:15:02Z</time>
      </trkpt>
      <trkpt lat="50.48615" lon="5.43866">
        <ele>306.7</ele>
        <time>2013-02-17T14:15:07Z</time>
      </trkpt>
      <trkpt lat="50.48622" lon="5.43829">
        <ele>312.2</ele>
        <time>2013-02-17T14:15:15Z</time>
      </trkpt>
      <trkpt lat="50.48627" lon="5.43799">
        <ele>310.8</ele>
        <time>2013-02-17T14:15:24Z</time>
      </trkpt>
      <trkpt lat="50.48617" lon="5.4377">
        <ele>310</ele>
        <time>2013-02-17T14:15:34Z</time>
      </trkpt>
      <trkpt lat="50.48606" lon="5.43743">
        <ele>309.3</ele>
        <time>2013-02-17T14:15:40Z</time>
      </trkpt>
      <trkpt lat="50.48593" lon="5.4371">
        <ele>309.8</ele>
        <time>2013-02-17T14:15:47Z</time>
      </trkpt>
      <trkpt lat="50.48581" lon="5.43682">
        <ele>311.3</ele>
        <time>2013-02-17T14:15:54Z</time>
      </trkpt>
      <trkpt lat="50.48574" lon="5.43657">
        <ele>309.6</ele>
        <time>2013-02-17T14:15:59Z</time>
      </trkpt>
      <trkpt lat="50.48566" lon="5.43637">
        <ele>308.8</ele>
        <time>2013-02-17T14:16:03Z</time>
      </trkpt>
      <trkpt lat="50.4855" lon="5.43608">
        <ele>306.3</ele>
        <time>2013-02-17T14:16:10Z</time>
      </trkpt>
      <trkpt lat="50.4853" lon="5.43571">
        <ele>312.2</ele>
        <time>2013-02-17T14:16:16Z</time>
      </trkpt>
      <trkpt lat="50.48515" lon="5.43541">
        <ele>311.9</ele>
        <time>2013-02-17T14:16:22Z</time>
      </trkpt>
      <trkpt lat="50.48508" lon="5.43516">
        <ele>313.3</ele>
        <time>2013-02-17T14:16:27Z</time>
      </trkpt>
      <trkpt lat="50.48505" lon="5.43485">
        <ele>313.1</ele>
        <time>2013-02-17T14:16:33Z</time>
      </trkpt>
      <trkpt lat="50.485" lon="5.43439">
        <ele>315.4</ele>
        <time>2013-02-17T14:16:40Z</time>
      </trkpt>
      <trkpt lat="50.48497" lon="5.43396">
        <ele>317.1</ele>
        <time>2013-02-17T14:16:47Z</time>
      </trkpt>
      <trkpt lat="50.48493" lon="5.43356">
        <ele>316.7</ele>
        <time>2013-02-17T14:16:55Z</time>
      </trkpt>
      <trkpt lat="50.48491" lon="5.43332">
        <ele>313.8</ele>
        <time>2013-02-17T14:17:02Z</time>
      </trkpt>
      <trkpt lat="50.48485" lon="5.43286">
        <ele>316.1</ele>
        <time>2013-02-17T14:17:12Z</time>
      </trkpt>
      <trkpt lat="50.48475" lon="5.43257">
        <ele>317.3</ele>
        <time>2013-02-17T14:17:18Z</time>
      </trkpt>
      <trkpt lat="50.48463" lon="5.43227">
        <ele>317.7</ele>
        <time>2013-02-17T14:17:26Z</time>
      </trkpt>
      <trkpt lat="50.48456" lon="5.43208">
        <ele>319.5</ele>
        <time>2013-02-17T14:17:31Z</time>
      </trkpt>
      <trkpt lat="50.4845" lon="5.43192">
        <ele>322.3</ele>
        <time>2013-02-17T14:17:35Z</time>
      </trkpt>
      <trkpt lat="50.48439" lon="5.43162">
        <ele>323.1</ele>
        <time>2013-02-17T14:17:41Z</time>
      </trkpt>
      <trkpt lat="50.48431" lon="5.43142">
        <ele>323</ele>
        <time>2013-02-17T14:17:46Z</time>
      </trkpt>
      <trkpt lat="50.48423" lon="5.43124">
        <ele>325.3</ele>
        <time>2013-02-17T14:17:51Z</time>
      </trkpt>
      <trkpt lat="50.48417" lon="5.43109">
        <ele>325.9</ele>
        <time>2013-02-17T14:17:55Z</time>
      </trkpt>
      <trkpt lat="50.48408" lon="5.43084">
        <ele>324.3</ele>
        <time>2013-02-17T14:18:02Z</time>
      </trkpt>
      <trkpt lat="50.48396" lon="5.43049">
        <ele>325.1</ele>
        <time>2013-02-17T14:18:10Z</time>
      </trkpt>
      <trkpt lat="50.48392" lon="5.43035">
        <ele>324.6</ele>
        <time>2013-02-17T14:18:13Z</time>
      </trkpt>
      <trkpt lat="50.48387" lon="5.43012">
        <ele>324.6</ele>
        <time>2013-02-17T14:18:20Z</time>
      </trkpt>
      <trkpt lat="50.48382" lon="5.42973">
        <ele>326.5</ele>
        <time>2013-02-17T14:18:30Z</time>
      </trkpt>
      <trkpt lat="50.48378" lon="5.4295">
        <ele>327.5</ele>
        <time>2013-02-17T14:18:35Z</time>
      </trkpt>
      <trkpt lat="50.48374" lon="5.42919">
        <ele>329.3</ele>
        <time>2013-02-17T14:18:43Z</time>
      </trkpt>
      <trkpt lat="50.48366" lon="5.42888">
        <ele>330.2</ele>
        <time>2013-02-17T14:18:51Z</time>
      </trkpt>
      <trkpt lat="50.48362" lon="5.42855">
        <ele>328</ele>
        <time>2013-02-17T14:18:58Z</time>
      </trkpt>
      <trkpt lat="50.4836" lon="5.42827">
        <ele>327</ele>
        <time>2013-02-17T14:19:04Z</time>
      </trkpt>
      <trkpt lat="50.48355" lon="5.42792">
        <ele>326.6</ele>
        <time>2013-02-17T14:19:12Z</time>
      </trkpt>
      <trkpt lat="50.48349" lon="5.42762">
        <ele>322.1</ele>
        <time>2013-02-17T14:19:20Z</time>
      </trkpt>
      <trkpt lat="50.4835" lon="5.42726">
        <ele>325.5</ele>
        <time>2013-02-17T14:19:28Z</time>
      </trkpt>
      <trkpt lat="50.4835" lon="5.42693">
        <ele>326.8</ele>
        <time>2013-02-17T14:19:35Z</time>
      </trkpt>
      <trkpt lat="50.48349" lon="5.42671">
        <ele>327.7</ele>
        <time>2013-02-17T14:19:39Z</time>
      </trkpt>
      <trkpt lat="50.48346" lon="5.42637">
        <ele>329.4</ele>
        <time>2013-02-17T14:19:46Z</time>
      </trkpt>
      <trkpt lat="50.48349" lon="5.42604">
        <ele>330.7</ele>
        <time>2013-02-17T14:19:54Z</time>
      </trkpt>
      <trkpt lat="50.48351" lon="5.42591">
        <ele>331.6</ele>
        <time>2013-02-17T14:19:57Z</time>
      </trkpt>
      <trkpt lat="50.48347" lon="5.42553">
        <ele>333.5</ele>
        <time>2013-02-17T14:20:05Z</time>
      </trkpt>
      <trkpt lat="50.4834" lon="5.42532">
        <ele>333</ele>
        <time>2013-02-17T14:20:11Z</time>
      </trkpt>
      <trkpt lat="50.48335" lon="5.42525">
        <ele>331.7</ele>
        <time>2013-02-17T14:20:23Z</time>
      </trkpt>
      <trkpt lat="50.48335" lon="5.42525">
        <ele>331.7</ele>
        <time>2013-02-17T14:23:58Z</time>
      </trkpt>
      <trkpt lat="50.48321" lon="5.42505">
        <ele>330.3</ele>
        <time>2013-02-17T14:24:13Z</time>
      </trkpt>
      <trkpt lat="50.48306" lon="5.42451">
        <ele>327.8</ele>
        <time>2013-02-17T14:24:26Z</time>
      </trkpt>
      <trkpt lat="50.483" lon="5.42428">
        <ele>328.1</ele>
        <time>2013-02-17T14:24:31Z</time>
      </trkpt>
      <trkpt lat="50.48293" lon="5.42403">
        <ele>328</ele>
        <time>2013-02-17T14:24:36Z</time>
      </trkpt>
      <trkpt lat="50.48284" lon="5.42366">
        <ele>327.5</ele>
        <time>2013-02-17T14:24:43Z</time>
      </trkpt>
      <trkpt lat="50.48275" lon="5.42343">
        <ele>328.4</ele>
        <time>2013-02-17T14:24:47Z</time>
      </trkpt>
      <trkpt lat="50.48262" lon="5.42315">
        <ele>330.3</ele>
        <time>2013-02-17T14:24:51Z</time>
      </trkpt>
      <trkpt lat="50.48237" lon="5.42275">
        <ele>330.2</ele>
        <time>2013-02-17T14:24:56Z</time>
      </trkpt>
      <trkpt lat="50.48221" lon="5.42253">
        <ele>328.3</ele>
        <time>2013-02-17T14:25:00Z</time>
      </trkpt>
      <trkpt lat="50.48212" lon="5.42234">
        <ele>328.4</ele>
        <time>2013-02-17T14:25:03Z</time>
      </trkpt>
      <trkpt lat="50.48203" lon="5.42216">
        <ele>327.7</ele>
        <time>2013-02-17T14:25:06Z</time>
      </trkpt>
      <trkpt lat="50.4819" lon="5.42198">
        <ele>327</ele>
        <time>2013-02-17T14:25:09Z</time>
      </trkpt>
      <trkpt lat="50.48175" lon="5.42157">
        <ele>332.2</ele>
        <time>2013-02-17T14:25:15Z</time>
      </trkpt>
      <trkpt lat="50.48161" lon="5.42121">
        <ele>335.9</ele>
        <time>2013-02-17T14:25:21Z</time>
      </trkpt>
      <trkpt lat="50.48146" lon="5.42087">
        <ele>334.9</ele>
        <time>2013-02-17T14:25:27Z</time>
      </trkpt>
      <trkpt lat="50.48136" lon="5.42057">
        <ele>332.8</ele>
        <time>2013-02-17T14:25:32Z</time>
      </trkpt>
      <trkpt lat="50.48125" lon="5.4202">
        <ele>332.1</ele>
        <time>2013-02-17T14:25:38Z</time>
      </trkpt>
      <trkpt lat="50.48114" lon="5.41989">
        <ele>330.2</ele>
        <time>2013-02-17T14:25:43Z</time>
      </trkpt>
      <trkpt lat="50.48105" lon="5.4195">
        <ele>331</ele>
        <time>2013-02-17T14:25:48Z</time>
      </trkpt>
      <trkpt lat="50.48088" lon="5.41906">
        <ele>329.6</ele>
        <time>2013-02-17T14:25:54Z</time>
      </trkpt>
      <trkpt lat="50.48077" lon="5.41871">
        <ele>329.4</ele>
        <time>2013-02-17T14:26:00Z</time>
      </trkpt>
      <trkpt lat="50.48072" lon="5.41844">
        <ele>330.8</ele>
        <time>2013-02-17T14:26:05Z</time>
      </trkpt>
      <trkpt lat="50.48063" lon="5.41797">
        <ele>331.5</ele>
        <time>2013-02-17T14:26:13Z</time>
      </trkpt>
      <trkpt lat="50.48037" lon="5.41771">
        <ele>333.4</ele>
        <time>2013-02-17T14:26:23Z</time>
      </trkpt>
      <trkpt lat="50.47992" lon="5.41811">
        <ele>332.6</ele>
        <time>2013-02-17T14:26:30Z</time>
      </trkpt>
      <trkpt lat="50.47964" lon="5.41835">
        <ele>332.3</ele>
        <time>2013-02-17T14:26:36Z</time>
      </trkpt>
      <trkpt lat="50.47918" lon="5.41874">
        <ele>332.7</ele>
        <time>2013-02-17T14:26:42Z</time>
      </trkpt>
      <trkpt lat="50.47893" lon="5.41898">
        <ele>330.8</ele>
        <time>2013-02-17T14:26:46Z</time>
      </trkpt>
      <trkpt lat="50.47842" lon="5.41927">
        <ele>330.1</ele>
        <time>2013-02-17T14:26:52Z</time>
      </trkpt>
      <trkpt lat="50.47814" lon="5.41897">
        <ele>326.3</ele>
        <time>2013-02-17T14:26:57Z</time>
      </trkpt>
      <trkpt lat="50.47784" lon="5.41856">
        <ele>325.6</ele>
        <time>2013-02-17T14:27:03Z</time>
      </trkpt>
      <trkpt lat="50.47766" lon="5.41833">
        <ele>323.9</ele>
        <time>2013-02-17T14:27:06Z</time>
      </trkpt>
      <trkpt lat="50.47741" lon="5.41796">
        <ele>322.9</ele>
        <time>2013-02-17T14:27:11Z</time>
      </trkpt>
      <trkpt lat="50.4773" lon="5.41774">
        <ele>322.5</ele>
        <time>2013-02-17T14:27:14Z</time>
      </trkpt>
      <trkpt lat="50.47714" lon="5.41746">
        <ele>321.4</ele>
        <time>2013-02-17T14:27:18Z</time>
      </trkpt>
      <trkpt lat="50.47701" lon="5.4171">
        <ele>321.2</ele>
        <time>2013-02-17T14:27:23Z</time>
      </trkpt>
      <trkpt lat="50.47709" lon="5.41667">
        <ele>321</ele>
        <time>2013-02-17T14:27:29Z</time>
      </trkpt>
      <trkpt lat="50.47708" lon="5.41636">
        <ele>320.3</ele>
        <time>2013-02-17T14:27:34Z</time>
      </trkpt>
      <trkpt lat="50.47705" lon="5.41622">
        <ele>319.1</ele>
        <time>2013-02-17T14:27:40Z</time>
      </trkpt>
      <trkpt lat="50.47669" lon="5.41553">
        <ele>318.1</ele>
        <time>2013-02-17T14:27:53Z</time>
      </trkpt>
      <trkpt lat="50.47656" lon="5.41525">
        <ele>320.2</ele>
        <time>2013-02-17T14:27:58Z</time>
      </trkpt>
      <trkpt lat="50.47643" lon="5.41495">
        <ele>321.8</ele>
        <time>2013-02-17T14:28:04Z</time>
      </trkpt>
      <trkpt lat="50.47629" lon="5.41471">
        <ele>321.7</ele>
        <time>2013-02-17T14:28:09Z</time>
      </trkpt>
      <trkpt lat="50.47615" lon="5.41454">
        <ele>322</ele>
        <time>2013-02-17T14:28:12Z</time>
      </trkpt>
      <trkpt lat="50.47598" lon="5.41422">
        <ele>321.5</ele>
        <time>2013-02-17T14:28:21Z</time>
      </trkpt>
      <trkpt lat="50.47573" lon="5.41388">
        <ele>325.5</ele>
        <time>2013-02-17T14:28:27Z</time>
      </trkpt>
      <trkpt lat="50.47558" lon="5.41364">
        <ele>326.2</ele>
        <time>2013-02-17T14:28:32Z</time>
      </trkpt>
      <trkpt lat="50.47544" lon="5.41322">
        <ele>326.9</ele>
        <time>2013-02-17T14:28:39Z</time>
      </trkpt>
      <trkpt lat="50.47536" lon="5.41293">
        <ele>327</ele>
        <time>2013-02-17T14:28:45Z</time>
      </trkpt>
      <trkpt lat="50.47534" lon="5.41281">
        <ele>326.9</ele>
        <time>2013-02-17T14:28:48Z</time>
      </trkpt>
      <trkpt lat="50.47534" lon="5.41245">
        <ele>323.2</ele>
        <time>2013-02-17T14:28:58Z</time>
      </trkpt>
      <trkpt lat="50.47532" lon="5.41225">
        <ele>321.1</ele>
        <time>2013-02-17T14:29:04Z</time>
      </trkpt>
      <trkpt lat="50.47522" lon="5.41192">
        <ele>320.6</ele>
        <time>2013-02-17T14:29:13Z</time>
      </trkpt>
      <trkpt lat="50.47517" lon="5.41166">
        <ele>318.2</ele>
        <time>2013-02-17T14:29:19Z</time>
      </trkpt>
      <trkpt lat="50.47506" lon="5.41133">
        <ele>320.4</ele>
        <time>2013-02-17T14:29:27Z</time>
      </trkpt>
      <trkpt lat="50.47496" lon="5.4111">
        <ele>317</ele>
        <time>2013-02-17T14:29:33Z</time>
      </trkpt>
      <trkpt lat="50.4748" lon="5.41074">
        <ele>321.1</ele>
        <time>2013-02-17T14:29:42Z</time>
      </trkpt>
      <trkpt lat="50.47475" lon="5.4105">
        <ele>324.9</ele>
        <time>2013-02-17T14:29:47Z</time>
      </trkpt>
      <trkpt lat="50.47466" lon="5.41017">
        <ele>327.9</ele>
        <time>2013-02-17T14:29:55Z</time>
      </trkpt>
      <trkpt lat="50.47459" lon="5.40982">
        <ele>328.7</ele>
        <time>2013-02-17T14:30:06Z</time>
      </trkpt>
      <trkpt lat="50.47447" lon="5.40925">
        <ele>330.9</ele>
        <time>2013-02-17T14:30:23Z</time>
      </trkpt>
      <trkpt lat="50.47437" lon="5.409">
        <ele>329.3</ele>
        <time>2013-02-17T14:30:30Z</time>
      </trkpt>
      <trkpt lat="50.4743" lon="5.40863">
        <ele>331.2</ele>
        <time>2013-02-17T14:30:39Z</time>
      </trkpt>
      <trkpt lat="50.47424" lon="5.40829">
        <ele>332.5</ele>
        <time>2013-02-17T14:30:46Z</time>
      </trkpt>
      <trkpt lat="50.47416" lon="5.40793">
        <ele>329.1</ele>
        <time>2013-02-17T14:30:53Z</time>
      </trkpt>
      <trkpt lat="50.47412" lon="5.40769">
        <ele>329.5</ele>
        <time>2013-02-17T14:30:58Z</time>
      </trkpt>
      <trkpt lat="50.47408" lon="5.40743">
        <ele>330</ele>
        <time>2013-02-17T14:31:03Z</time>
      </trkpt>
      <trkpt lat="50.47405" lon="5.40726">
        <ele>329.8</ele>
        <time>2013-02-17T14:31:06Z</time>
      </trkpt>
      <trkpt lat="50.47399" lon="5.40683">
        <ele>329.5</ele>
        <time>2013-02-17T14:31:13Z</time>
      </trkpt>
      <trkpt lat="50.47388" lon="5.40644">
        <ele>328.6</ele>
        <time>2013-02-17T14:31:19Z</time>
      </trkpt>
      <trkpt lat="50.4738" lon="5.40613">
        <ele>329</ele>
        <time>2013-02-17T14:31:24Z</time>
      </trkpt>
      <trkpt lat="50.47371" lon="5.40577">
        <ele>329.5</ele>
        <time>2013-02-17T14:31:33Z</time>
      </trkpt>
      <trkpt lat="50.47363" lon="5.40544">
        <ele>330.4</ele>
        <time>2013-02-17T14:31:40Z</time>
      </trkpt>
      <trkpt lat="50.47356" lon="5.40511">
        <ele>329.1</ele>
        <time>2013-02-17T14:31:46Z</time>
      </trkpt>
      <trkpt lat="50.4734" lon="5.40476">
        <ele>327</ele>
        <time>2013-02-17T14:31:53Z</time>
      </trkpt>
      <trkpt lat="50.47326" lon="5.4046">
        <ele>324.5</ele>
        <time>2013-02-17T14:31:58Z</time>
      </trkpt>
      <trkpt lat="50.47317" lon="5.40447">
        <ele>325.8</ele>
        <time>2013-02-17T14:32:02Z</time>
      </trkpt>
      <trkpt lat="50.47295" lon="5.40414">
        <ele>323.5</ele>
        <time>2013-02-17T14:32:10Z</time>
      </trkpt>
      <trkpt lat="50.47296" lon="5.40407">
        <ele>325</ele>
        <time>2013-02-17T14:32:13Z</time>
      </trkpt>
      <trkpt lat="50.47296" lon="5.40407">
        <ele>282.6</ele>
        <time>2013-02-17T14:32:19Z</time>
      </trkpt>
      <trkpt lat="50.47296" lon="5.40407">
        <ele>282.6</ele>
        <time>2013-02-17T14:32:24Z</time>
      </trkpt>
      <trkpt lat="50.47291" lon="5.40393">
        <ele>330</ele>
        <time>2013-02-17T14:32:24Z</time>
      </trkpt>
      <trkpt lat="50.47287" lon="5.40381">
        <ele>331</ele>
        <time>2013-02-17T14:32:32Z</time>
      </trkpt>
      <trkpt lat="50.47277" lon="5.40363">
        <ele>328.3</ele>
        <time>2013-02-17T14:32:39Z</time>
      </trkpt>
      <trkpt lat="50.47264" lon="5.40324">
        <ele>326.5</ele>
        <time>2013-02-17T14:32:47Z</time>
      </trkpt>
      <trkpt lat="50.47258" lon="5.40304">
        <ele>326.8</ele>
        <time>2013-02-17T14:32:50Z</time>
      </trkpt>
      <trkpt lat="50.47251" lon="5.40273">
        <ele>325.2</ele>
        <time>2013-02-17T14:32:55Z</time>
      </trkpt>
      <trkpt lat="50.47241" lon="5.40239">
        <ele>326.2</ele>
        <time>2013-02-17T14:33:00Z</time>
      </trkpt>
      <trkpt lat="50.47229" lon="5.40206">
        <ele>325.6</ele>
        <time>2013-02-17T14:33:07Z</time>
      </trkpt>
      <trkpt lat="50.47218" lon="5.4017">
        <ele>324.9</ele>
        <time>2013-02-17T14:33:14Z</time>
      </trkpt>
      <trkpt lat="50.47206" lon="5.40131">
        <ele>323.5</ele>
        <time>2013-02-17T14:33:21Z</time>
      </trkpt>
      <trkpt lat="50.47193" lon="5.40099">
        <ele>323.6</ele>
        <time>2013-02-17T14:33:27Z</time>
      </trkpt>
      <trkpt lat="50.47181" lon="5.40064">
        <ele>323.8</ele>
        <time>2013-02-17T14:33:33Z</time>
      </trkpt>
      <trkpt lat="50.47167" lon="5.40022">
        <ele>324.3</ele>
        <time>2013-02-17T14:33:38Z</time>
      </trkpt>
      <trkpt lat="50.47159" lon="5.40003">
        <ele>324.5</ele>
        <time>2013-02-17T14:33:41Z</time>
      </trkpt>
      <trkpt lat="50.47153" lon="5.39979">
        <ele>325.1</ele>
        <time>2013-02-17T14:33:44Z</time>
      </trkpt>
      <trkpt lat="50.47137" lon="5.39934">
        <ele>323.5</ele>
        <time>2013-02-17T14:33:50Z</time>
      </trkpt>
      <trkpt lat="50.47125" lon="5.39903">
        <ele>323.3</ele>
        <time>2013-02-17T14:33:55Z</time>
      </trkpt>
      <trkpt lat="50.47113" lon="5.3987">
        <ele>315.4</ele>
        <time>2013-02-17T14:34:01Z</time>
      </trkpt>
      <trkpt lat="50.47099" lon="5.39828">
        <ele>315.2</ele>
        <time>2013-02-17T14:34:08Z</time>
      </trkpt>
      <trkpt lat="50.47085" lon="5.39782">
        <ele>316.3</ele>
        <time>2013-02-17T14:34:14Z</time>
      </trkpt>
      <trkpt lat="50.47055" lon="5.39729">
        <ele>317.8</ele>
        <time>2013-02-17T14:34:20Z</time>
      </trkpt>
      <trkpt lat="50.47038" lon="5.39683">
        <ele>319.9</ele>
        <time>2013-02-17T14:34:25Z</time>
      </trkpt>
      <trkpt lat="50.47019" lon="5.39634">
        <ele>323.5</ele>
        <time>2013-02-17T14:34:30Z</time>
      </trkpt>
      <trkpt lat="50.47003" lon="5.39586">
        <ele>322.9</ele>
        <time>2013-02-17T14:34:35Z</time>
      </trkpt>
      <trkpt lat="50.46991" lon="5.39546">
        <ele>323.6</ele>
        <time>2013-02-17T14:34:40Z</time>
      </trkpt>
      <trkpt lat="50.46977" lon="5.39503">
        <ele>324</ele>
        <time>2013-02-17T14:34:47Z</time>
      </trkpt>
      <trkpt lat="50.46969" lon="5.39469">
        <ele>322.9</ele>
        <time>2013-02-17T14:34:53Z</time>
      </trkpt>
      <trkpt lat="50.4696" lon="5.39437">
        <ele>322.6</ele>
        <time>2013-02-17T14:34:59Z</time>
      </trkpt>
      <trkpt lat="50.46954" lon="5.3942">
        <ele>322.8</ele>
        <time>2013-02-17T14:35:02Z</time>
      </trkpt>
      <trkpt lat="50.46933" lon="5.39373">
        <ele>322.5</ele>
        <time>2013-02-17T14:35:08Z</time>
      </trkpt>
      <trkpt lat="50.46914" lon="5.39328">
        <ele>321.1</ele>
        <time>2013-02-17T14:35:14Z</time>
      </trkpt>
      <trkpt lat="50.46892" lon="5.39279">
        <ele>315.8</ele>
        <time>2013-02-17T14:35:20Z</time>
      </trkpt>
      <trkpt lat="50.46873" lon="5.39234">
        <ele>316.7</ele>
        <time>2013-02-17T14:35:26Z</time>
      </trkpt>
      <trkpt lat="50.46855" lon="5.39188">
        <ele>316.4</ele>
        <time>2013-02-17T14:35:32Z</time>
      </trkpt>
      <trkpt lat="50.46835" lon="5.39141">
        <ele>316.4</ele>
        <time>2013-02-17T14:35:38Z</time>
      </trkpt>
      <trkpt lat="50.46822" lon="5.39115">
        <ele>317.1</ele>
        <time>2013-02-17T14:35:42Z</time>
      </trkpt>
      <trkpt lat="50.46811" lon="5.39083">
        <ele>318</ele>
        <time>2013-02-17T14:35:49Z</time>
      </trkpt>
      <trkpt lat="50.46801" lon="5.39072">
        <ele>316.1</ele>
        <time>2013-02-17T14:35:55Z</time>
      </trkpt>
      <trkpt lat="50.46792" lon="5.39058">
        <ele>315.3</ele>
        <time>2013-02-17T14:35:59Z</time>
      </trkpt>
      <trkpt lat="50.46773" lon="5.39032">
        <ele>315.2</ele>
        <time>2013-02-17T14:36:05Z</time>
      </trkpt>
      <trkpt lat="50.46752" lon="5.39003">
        <ele>312.5</ele>
        <time>2013-02-17T14:36:10Z</time>
      </trkpt>
      <trkpt lat="50.46728" lon="5.38968">
        <ele>311.7</ele>
        <time>2013-02-17T14:36:16Z</time>
      </trkpt>
      <trkpt lat="50.46705" lon="5.38932">
        <ele>313.5</ele>
        <time>2013-02-17T14:36:21Z</time>
      </trkpt>
      <trkpt lat="50.46685" lon="5.38905">
        <ele>313.2</ele>
        <time>2013-02-17T14:36:25Z</time>
      </trkpt>
      <trkpt lat="50.46667" lon="5.38875">
        <ele>313.8</ele>
        <time>2013-02-17T14:36:29Z</time>
      </trkpt>
      <trkpt lat="50.4664" lon="5.38835">
        <ele>312.7</ele>
        <time>2013-02-17T14:36:35Z</time>
      </trkpt>
      <trkpt lat="50.46619" lon="5.38801">
        <ele>312.6</ele>
        <time>2013-02-17T14:36:40Z</time>
      </trkpt>
      <trkpt lat="50.466" lon="5.38772">
        <ele>312.2</ele>
        <time>2013-02-17T14:36:45Z</time>
      </trkpt>
      <trkpt lat="50.4658" lon="5.38742">
        <ele>312.6</ele>
        <time>2013-02-17T14:36:52Z</time>
      </trkpt>
      <trkpt lat="50.46565" lon="5.38721">
        <ele>311.9</ele>
        <time>2013-02-17T14:36:58Z</time>
      </trkpt>
      <trkpt lat="50.4655" lon="5.38694">
        <ele>312.6</ele>
        <time>2013-02-17T14:37:05Z</time>
      </trkpt>
      <trkpt lat="50.46533" lon="5.38666">
        <ele>312</ele>
        <time>2013-02-17T14:37:11Z</time>
      </trkpt>
      <trkpt lat="50.46519" lon="5.38634">
        <ele>311</ele>
        <time>2013-02-17T14:37:16Z</time>
      </trkpt>
      <trkpt lat="50.46496" lon="5.38597">
        <ele>310.5</ele>
        <time>2013-02-17T14:37:22Z</time>
      </trkpt>
      <trkpt lat="50.4648" lon="5.38576">
        <ele>311</ele>
        <time>2013-02-17T14:37:26Z</time>
      </trkpt>
      <trkpt lat="50.46465" lon="5.38551">
        <ele>312.2</ele>
        <time>2013-02-17T14:37:30Z</time>
      </trkpt>
      <trkpt lat="50.46446" lon="5.3852">
        <ele>312.7</ele>
        <time>2013-02-17T14:37:36Z</time>
      </trkpt>
      <trkpt lat="50.46429" lon="5.38487">
        <ele>313</ele>
        <time>2013-02-17T14:37:42Z</time>
      </trkpt>
      <trkpt lat="50.46407" lon="5.38453">
        <ele>313.4</ele>
        <time>2013-02-17T14:37:48Z</time>
      </trkpt>
      <trkpt lat="50.46387" lon="5.38419">
        <ele>312.5</ele>
        <time>2013-02-17T14:37:54Z</time>
      </trkpt>
      <trkpt lat="50.46367" lon="5.38381">
        <ele>311.3</ele>
        <time>2013-02-17T14:38:00Z</time>
      </trkpt>
      <trkpt lat="50.46346" lon="5.38344">
        <ele>309.8</ele>
        <time>2013-02-17T14:38:06Z</time>
      </trkpt>
      <trkpt lat="50.4633" lon="5.38309">
        <ele>308.8</ele>
        <time>2013-02-17T14:38:11Z</time>
      </trkpt>
      <trkpt lat="50.46306" lon="5.38274">
        <ele>310.5</ele>
        <time>2013-02-17T14:38:16Z</time>
      </trkpt>
      <trkpt lat="50.46283" lon="5.38224">
        <ele>310.4</ele>
        <time>2013-02-17T14:38:22Z</time>
      </trkpt>
      <trkpt lat="50.46264" lon="5.38182">
        <ele>309.1</ele>
        <time>2013-02-17T14:38:27Z</time>
      </trkpt>
      <trkpt lat="50.46237" lon="5.3813">
        <ele>308.8</ele>
        <time>2013-02-17T14:38:34Z</time>
      </trkpt>
      <trkpt lat="50.46219" lon="5.38089">
        <ele>309.9</ele>
        <time>2013-02-17T14:38:39Z</time>
      </trkpt>
      <trkpt lat="50.46194" lon="5.38048">
        <ele>308.3</ele>
        <time>2013-02-17T14:38:45Z</time>
      </trkpt>
      <trkpt lat="50.46182" lon="5.38024">
        <ele>308.1</ele>
        <time>2013-02-17T14:38:48Z</time>
      </trkpt>
      <trkpt lat="50.46161" lon="5.37981">
        <ele>307.3</ele>
        <time>2013-02-17T14:38:54Z</time>
      </trkpt>
      <trkpt lat="50.46147" lon="5.3795">
        <ele>307.9</ele>
        <time>2013-02-17T14:38:58Z</time>
      </trkpt>
      <trkpt lat="50.46125" lon="5.37915">
        <ele>309.6</ele>
        <time>2013-02-17T14:39:03Z</time>
      </trkpt>
      <trkpt lat="50.46102" lon="5.37874">
        <ele>310.2</ele>
        <time>2013-02-17T14:39:09Z</time>
      </trkpt>
      <trkpt lat="50.46086" lon="5.37848">
        <ele>310.8</ele>
        <time>2013-02-17T14:39:13Z</time>
      </trkpt>
      <trkpt lat="50.46069" lon="5.37817">
        <ele>311.3</ele>
        <time>2013-02-17T14:39:18Z</time>
      </trkpt>
      <trkpt lat="50.46047" lon="5.37772">
        <ele>308.2</ele>
        <time>2013-02-17T14:39:25Z</time>
      </trkpt>
      <trkpt lat="50.46026" lon="5.37726">
        <ele>307</ele>
        <time>2013-02-17T14:39:32Z</time>
      </trkpt>
      <trkpt lat="50.46011" lon="5.37694">
        <ele>307.8</ele>
        <time>2013-02-17T14:39:37Z</time>
      </trkpt>
      <trkpt lat="50.45996" lon="5.37654">
        <ele>307.6</ele>
        <time>2013-02-17T14:39:43Z</time>
      </trkpt>
      <trkpt lat="50.45983" lon="5.37619">
        <ele>308.5</ele>
        <time>2013-02-17T14:39:48Z</time>
      </trkpt>
      <trkpt lat="50.45967" lon="5.37575">
        <ele>307.2</ele>
        <time>2013-02-17T14:39:55Z</time>
      </trkpt>
      <trkpt lat="50.45955" lon="5.37545">
        <ele>307.4</ele>
        <time>2013-02-17T14:40:01Z</time>
      </trkpt>
      <trkpt lat="50.45945" lon="5.37523">
        <ele>305.9</ele>
        <time>2013-02-17T14:40:06Z</time>
      </trkpt>
      <trkpt lat="50.45927" lon="5.37473">
        <ele>303.7</ele>
        <time>2013-02-17T14:40:14Z</time>
      </trkpt>
      <trkpt lat="50.45913" lon="5.37441">
        <ele>303.9</ele>
        <time>2013-02-17T14:40:19Z</time>
      </trkpt>
      <trkpt lat="50.45899" lon="5.37408">
        <ele>302.1</ele>
        <time>2013-02-17T14:40:24Z</time>
      </trkpt>
      <trkpt lat="50.45883" lon="5.37379">
        <ele>303.1</ele>
        <time>2013-02-17T14:40:29Z</time>
      </trkpt>
      <trkpt lat="50.45867" lon="5.37344">
        <ele>304.2</ele>
        <time>2013-02-17T14:40:35Z</time>
      </trkpt>
      <trkpt lat="50.4585" lon="5.37309">
        <ele>305.4</ele>
        <time>2013-02-17T14:40:41Z</time>
      </trkpt>
      <trkpt lat="50.4583" lon="5.37274">
        <ele>306.1</ele>
        <time>2013-02-17T14:40:47Z</time>
      </trkpt>
      <trkpt lat="50.4581" lon="5.37238">
        <ele>306.7</ele>
        <time>2013-02-17T14:40:53Z</time>
      </trkpt>
      <trkpt lat="50.45796" lon="5.37206">
        <ele>308.1</ele>
        <time>2013-02-17T14:40:58Z</time>
      </trkpt>
      <trkpt lat="50.45771" lon="5.37155">
        <ele>306.2</ele>
        <time>2013-02-17T14:41:06Z</time>
      </trkpt>
      <trkpt lat="50.45754" lon="5.37123">
        <ele>307.2</ele>
        <time>2013-02-17T14:41:12Z</time>
      </trkpt>
      <trkpt lat="50.45737" lon="5.37083">
        <ele>307.5</ele>
        <time>2013-02-17T14:41:18Z</time>
      </trkpt>
      <trkpt lat="50.45719" lon="5.37049">
        <ele>307.7</ele>
        <time>2013-02-17T14:41:24Z</time>
      </trkpt>
      <trkpt lat="50.45705" lon="5.37021">
        <ele>306.5</ele>
        <time>2013-02-17T14:41:29Z</time>
      </trkpt>
      <trkpt lat="50.45696" lon="5.36994">
        <ele>306.4</ele>
        <time>2013-02-17T14:41:34Z</time>
      </trkpt>
      <trkpt lat="50.45683" lon="5.36968">
        <ele>307.1</ele>
        <time>2013-02-17T14:41:39Z</time>
      </trkpt>
      <trkpt lat="50.45671" lon="5.36943">
        <ele>306.2</ele>
        <time>2013-02-17T14:41:44Z</time>
      </trkpt>
      <trkpt lat="50.45661" lon="5.36921">
        <ele>308.3</ele>
        <time>2013-02-17T14:41:48Z</time>
      </trkpt>
      <trkpt lat="50.45651" lon="5.36901">
        <ele>309.2</ele>
        <time>2013-02-17T14:41:52Z</time>
      </trkpt>
      <trkpt lat="50.45634" lon="5.3687">
        <ele>308.4</ele>
        <time>2013-02-17T14:41:57Z</time>
      </trkpt>
      <trkpt lat="50.45615" lon="5.36836">
        <ele>308</ele>
        <time>2013-02-17T14:42:03Z</time>
      </trkpt>
      <trkpt lat="50.45597" lon="5.36811">
        <ele>308.7</ele>
        <time>2013-02-17T14:42:08Z</time>
      </trkpt>
      <trkpt lat="50.45578" lon="5.36785">
        <ele>307.3</ele>
        <time>2013-02-17T14:42:13Z</time>
      </trkpt>
      <trkpt lat="50.45563" lon="5.36764">
        <ele>305.5</ele>
        <time>2013-02-17T14:42:17Z</time>
      </trkpt>
      <trkpt lat="50.45537" lon="5.36736">
        <ele>309.4</ele>
        <time>2013-02-17T14:42:23Z</time>
      </trkpt>
      <trkpt lat="50.45515" lon="5.36706">
        <ele>307.3</ele>
        <time>2013-02-17T14:42:29Z</time>
      </trkpt>
      <trkpt lat="50.45491" lon="5.36674">
        <ele>307.3</ele>
        <time>2013-02-17T14:42:35Z</time>
      </trkpt>
      <trkpt lat="50.45472" lon="5.36648">
        <ele>304.3</ele>
        <time>2013-02-17T14:42:40Z</time>
      </trkpt>
      <trkpt lat="50.45459" lon="5.36625">
        <ele>304.1</ele>
        <time>2013-02-17T14:42:46Z</time>
      </trkpt>
      <trkpt lat="50.45459" lon="5.36625">
        <ele>304.1</ele>
        <time>2013-02-17T14:42:52Z</time>
      </trkpt>
      <trkpt lat="50.45459" lon="5.36625">
        <ele>261.5</ele>
        <time>2013-02-17T14:42:52Z</time>
      </trkpt>
      <trkpt lat="50.45459" lon="5.36625">
        <ele>261.5</ele>
        <time>2013-02-17T14:43:04Z</time>
      </trkpt>
      <trkpt lat="50.4545" lon="5.36613">
        <ele>302.9</ele>
        <time>2013-02-17T14:43:04Z</time>
      </trkpt>
      <trkpt lat="50.45442" lon="5.36602">
        <ele>301.8</ele>
        <time>2013-02-17T14:43:08Z</time>
      </trkpt>
      <trkpt lat="50.45426" lon="5.36581">
        <ele>301</ele>
        <time>2013-02-17T14:43:14Z</time>
      </trkpt>
      <trkpt lat="50.45407" lon="5.36553">
        <ele>300.2</ele>
        <time>2013-02-17T14:43:20Z</time>
      </trkpt>
      <trkpt lat="50.45388" lon="5.3653">
        <ele>301.5</ele>
        <time>2013-02-17T14:43:25Z</time>
      </trkpt>
      <trkpt lat="50.45367" lon="5.36508">
        <ele>299.9</ele>
        <time>2013-02-17T14:43:31Z</time>
      </trkpt>
      <trkpt lat="50.45352" lon="5.36488">
        <ele>298.5</ele>
        <time>2013-02-17T14:43:36Z</time>
      </trkpt>
      <trkpt lat="50.45338" lon="5.3647">
        <ele>298.9</ele>
        <time>2013-02-17T14:43:41Z</time>
      </trkpt>
      <trkpt lat="50.45336" lon="5.36463">
        <ele>299.6</ele>
        <time>2013-02-17T14:43:45Z</time>
      </trkpt>
      <trkpt lat="50.45336" lon="5.36463">
        <ele>258</ele>
        <time>2013-02-17T14:43:50Z</time>
      </trkpt>
      <trkpt lat="50.45336" lon="5.36463">
        <ele>258</ele>
        <time>2013-02-17T14:44:09Z</time>
      </trkpt>
      <trkpt lat="50.45322" lon="5.3644">
        <ele>301.4</ele>
        <time>2013-02-17T14:44:09Z</time>
      </trkpt>
      <trkpt lat="50.45305" lon="5.36404">
        <ele>299.9</ele>
        <time>2013-02-17T14:44:15Z</time>
      </trkpt>
      <trkpt lat="50.45291" lon="5.36376">
        <ele>299.3</ele>
        <time>2013-02-17T14:44:20Z</time>
      </trkpt>
      <trkpt lat="50.45277" lon="5.36348">
        <ele>299.7</ele>
        <time>2013-02-17T14:44:25Z</time>
      </trkpt>
      <trkpt lat="50.4526" lon="5.36316">
        <ele>299.4</ele>
        <time>2013-02-17T14:44:30Z</time>
      </trkpt>
      <trkpt lat="50.45245" lon="5.36287">
        <ele>298.9</ele>
        <time>2013-02-17T14:44:35Z</time>
      </trkpt>
      <trkpt lat="50.45232" lon="5.36251">
        <ele>299.1</ele>
        <time>2013-02-17T14:44:41Z</time>
      </trkpt>
      <trkpt lat="50.45223" lon="5.36231">
        <ele>298.6</ele>
        <time>2013-02-17T14:44:44Z</time>
      </trkpt>
      <trkpt lat="50.45209" lon="5.36196">
        <ele>298.2</ele>
        <time>2013-02-17T14:44:50Z</time>
      </trkpt>
      <trkpt lat="50.452" lon="5.36176">
        <ele>298.1</ele>
        <time>2013-02-17T14:44:53Z</time>
      </trkpt>
      <trkpt lat="50.45189" lon="5.36154">
        <ele>296.9</ele>
        <time>2013-02-17T14:44:57Z</time>
      </trkpt>
      <trkpt lat="50.45176" lon="5.3613">
        <ele>297.5</ele>
        <time>2013-02-17T14:45:02Z</time>
      </trkpt>
      <trkpt lat="50.45164" lon="5.3611">
        <ele>295.8</ele>
        <time>2013-02-17T14:45:06Z</time>
      </trkpt>
      <trkpt lat="50.45145" lon="5.36072">
        <ele>295.2</ele>
        <time>2013-02-17T14:45:13Z</time>
      </trkpt>
      <trkpt lat="50.4513" lon="5.36039">
        <ele>295</ele>
        <time>2013-02-17T14:45:18Z</time>
      </trkpt>
      <trkpt lat="50.4512" lon="5.36017">
        <ele>295.2</ele>
        <time>2013-02-17T14:45:22Z</time>
      </trkpt>
      <trkpt lat="50.45108" lon="5.35986">
        <ele>295.3</ele>
        <time>2013-02-17T14:45:27Z</time>
      </trkpt>
      <trkpt lat="50.4509" lon="5.35954">
        <ele>294.6</ele>
        <time>2013-02-17T14:45:33Z</time>
      </trkpt>
      <trkpt lat="50.45071" lon="5.35918">
        <ele>290.8</ele>
        <time>2013-02-17T14:45:39Z</time>
      </trkpt>
      <trkpt lat="50.45051" lon="5.35894">
        <ele>291.1</ele>
        <time>2013-02-17T14:45:45Z</time>
      </trkpt>
      <trkpt lat="50.4503" lon="5.35871">
        <ele>289.5</ele>
        <time>2013-02-17T14:45:50Z</time>
      </trkpt>
      <trkpt lat="50.45" lon="5.35877">
        <ele>288</ele>
        <time>2013-02-17T14:45:57Z</time>
      </trkpt>
      <trkpt lat="50.44968" lon="5.35912">
        <ele>287.9</ele>
        <time>2013-02-17T14:46:06Z</time>
      </trkpt>
      <trkpt lat="50.44946" lon="5.35933">
        <ele>289.4</ele>
        <time>2013-02-17T14:46:12Z</time>
      </trkpt>
      <trkpt lat="50.44927" lon="5.35956">
        <ele>291</ele>
        <time>2013-02-17T14:46:18Z</time>
      </trkpt>
      <trkpt lat="50.44907" lon="5.3598">
        <ele>291.8</ele>
        <time>2013-02-17T14:46:24Z</time>
      </trkpt>
      <trkpt lat="50.4489" lon="5.36003">
        <ele>290.4</ele>
        <time>2013-02-17T14:46:29Z</time>
      </trkpt>
      <trkpt lat="50.44868" lon="5.36023">
        <ele>288.6</ele>
        <time>2013-02-17T14:46:34Z</time>
      </trkpt>
      <trkpt lat="50.4484" lon="5.36046">
        <ele>288.4</ele>
        <time>2013-02-17T14:46:40Z</time>
      </trkpt>
      <trkpt lat="50.44808" lon="5.36073">
        <ele>287.3</ele>
        <time>2013-02-17T14:46:46Z</time>
      </trkpt>
      <trkpt lat="50.4477" lon="5.36106">
        <ele>286.8</ele>
        <time>2013-02-17T14:46:53Z</time>
      </trkpt>
      <trkpt lat="50.44742" lon="5.36138">
        <ele>286.9</ele>
        <time>2013-02-17T14:46:59Z</time>
      </trkpt>
      <trkpt lat="50.4471" lon="5.36142">
        <ele>285.6</ele>
        <time>2013-02-17T14:47:04Z</time>
      </trkpt>
      <trkpt lat="50.44661" lon="5.36088">
        <ele>283.9</ele>
        <time>2013-02-17T14:47:11Z</time>
      </trkpt>
      <trkpt lat="50.44634" lon="5.36061">
        <ele>282.1</ele>
        <time>2013-02-17T14:47:16Z</time>
      </trkpt>
      <trkpt lat="50.44621" lon="5.36028">
        <ele>281.2</ele>
        <time>2013-02-17T14:47:22Z</time>
      </trkpt>
      <trkpt lat="50.44613" lon="5.35995">
        <ele>279.9</ele>
        <time>2013-02-17T14:47:27Z</time>
      </trkpt>
      <trkpt lat="50.44611" lon="5.35956">
        <ele>279.2</ele>
        <time>2013-02-17T14:47:32Z</time>
      </trkpt>
      <trkpt lat="50.44608" lon="5.35921">
        <ele>277.4</ele>
        <time>2013-02-17T14:47:37Z</time>
      </trkpt>
      <trkpt lat="50.44608" lon="5.35891">
        <ele>276</ele>
        <time>2013-02-17T14:47:42Z</time>
      </trkpt>
      <trkpt lat="50.446" lon="5.35847">
        <ele>275.7</ele>
        <time>2013-02-17T14:47:48Z</time>
      </trkpt>
      <trkpt lat="50.44594" lon="5.35796">
        <ele>273.6</ele>
        <time>2013-02-17T14:47:55Z</time>
      </trkpt>
      <trkpt lat="50.44579" lon="5.35744">
        <ele>271.4</ele>
        <time>2013-02-17T14:48:01Z</time>
      </trkpt>
      <trkpt lat="50.44565" lon="5.35704">
        <ele>270.7</ele>
        <time>2013-02-17T14:48:07Z</time>
      </trkpt>
      <trkpt lat="50.44554" lon="5.35671">
        <ele>270.5</ele>
        <time>2013-02-17T14:48:12Z</time>
      </trkpt>
      <trkpt lat="50.44543" lon="5.35634">
        <ele>270.6</ele>
        <time>2013-02-17T14:48:18Z</time>
      </trkpt>
      <trkpt lat="50.44538" lon="5.35584">
        <ele>271</ele>
        <time>2013-02-17T14:48:24Z</time>
      </trkpt>
      <trkpt lat="50.44545" lon="5.3556">
        <ele>270.2</ele>
        <time>2013-02-17T14:48:29Z</time>
      </trkpt>
      <trkpt lat="50.44557" lon="5.35539">
        <ele>270.3</ele>
        <time>2013-02-17T14:48:35Z</time>
      </trkpt>
      <trkpt lat="50.44571" lon="5.35526">
        <ele>270.7</ele>
        <time>2013-02-17T14:48:40Z</time>
      </trkpt>
      <trkpt lat="50.44597" lon="5.35511">
        <ele>271.7</ele>
        <time>2013-02-17T14:48:49Z</time>
      </trkpt>
      <trkpt lat="50.4462" lon="5.35503">
        <ele>272.9</ele>
        <time>2013-02-17T14:48:56Z</time>
      </trkpt>
      <trkpt lat="50.44636" lon="5.35495">
        <ele>273.2</ele>
        <time>2013-02-17T14:49:01Z</time>
      </trkpt>
      <trkpt lat="50.44653" lon="5.35472">
        <ele>275.1</ele>
        <time>2013-02-17T14:49:08Z</time>
      </trkpt>
      <trkpt lat="50.44648" lon="5.35441">
        <ele>273.7</ele>
        <time>2013-02-17T14:49:14Z</time>
      </trkpt>
      <trkpt lat="50.44644" lon="5.35416">
        <ele>273.8</ele>
        <time>2013-02-17T14:49:20Z</time>
      </trkpt>
      <trkpt lat="50.44637" lon="5.35388">
        <ele>274</ele>
        <time>2013-02-17T14:49:28Z</time>
      </trkpt>
      <trkpt lat="50.44624" lon="5.35357">
        <ele>282.7</ele>
        <time>2013-02-17T14:49:39Z</time>
      </trkpt>
      <trkpt lat="50.4462" lon="5.35346">
        <ele>281.8</ele>
        <time>2013-02-17T14:49:44Z</time>
      </trkpt>
      <trkpt lat="50.44606" lon="5.35308">
        <ele>281.4</ele>
        <time>2013-02-17T14:49:59Z</time>
      </trkpt>
      <trkpt lat="50.44599" lon="5.35277">
        <ele>282.3</ele>
        <time>2013-02-17T14:50:10Z</time>
      </trkpt>
      <trkpt lat="50.44595" lon="5.35268">
        <ele>282.5</ele>
        <time>2013-02-17T14:50:13Z</time>
      </trkpt>
      <trkpt lat="50.44585" lon="5.35244">
        <ele>282.7</ele>
        <time>2013-02-17T14:50:23Z</time>
      </trkpt>
      <trkpt lat="50.44572" lon="5.35208">
        <ele>283.8</ele>
        <time>2013-02-17T14:50:37Z</time>
      </trkpt>
      <trkpt lat="50.44572" lon="5.35208">
        <ele>283.8</ele>
        <time>2013-02-17T14:50:44Z</time>
      </trkpt>
      <trkpt lat="50.44572" lon="5.35208">
        <ele>243.7</ele>
        <time>2013-02-17T14:50:44Z</time>
      </trkpt>
      <trkpt lat="50.44572" lon="5.35208">
        <ele>243.7</ele>
        <time>2013-02-17T14:50:53Z</time>
      </trkpt>
      <trkpt lat="50.44589" lon="5.352">
        <ele>285.9</ele>
        <time>2013-02-17T14:50:53Z</time>
      </trkpt>
      <trkpt lat="50.4461" lon="5.352">
        <ele>287.3</ele>
        <time>2013-02-17T14:51:00Z</time>
      </trkpt>
      <trkpt lat="50.44614" lon="5.35201">
        <ele>285.8</ele>
        <time>2013-02-17T14:51:02Z</time>
      </trkpt>
      <trkpt lat="50.44614" lon="5.35201">
        <ele>245.2</ele>
        <time>2013-02-17T14:51:08Z</time>
      </trkpt>
      <trkpt lat="50.44614" lon="5.35201">
        <ele>245.2</ele>
        <time>2013-02-17T14:51:44Z</time>
      </trkpt>
      <trkpt lat="50.44627" lon="5.35212">
        <ele>285</ele>
        <time>2013-02-17T14:51:44Z</time>
      </trkpt>
      <trkpt lat="50.44635" lon="5.35217">
        <ele>285.2</ele>
        <time>2013-02-17T14:51:47Z</time>
      </trkpt>
      <trkpt lat="50.44646" lon="5.35223">
        <ele>287.8</ele>
        <time>2013-02-17T14:51:51Z</time>
      </trkpt>
      <trkpt lat="50.44664" lon="5.35238">
        <ele>288.2</ele>
        <time>2013-02-17T14:51:59Z</time>
      </trkpt>
      <trkpt lat="50.44686" lon="5.35252">
        <ele>286.5</ele>
        <time>2013-02-17T14:52:08Z</time>
      </trkpt>
      <trkpt lat="50.44705" lon="5.35265">
        <ele>286</ele>
        <time>2013-02-17T14:52:15Z</time>
      </trkpt>
      <trkpt lat="50.44725" lon="5.35281">
        <ele>286.4</ele>
        <time>2013-02-17T14:52:23Z</time>
      </trkpt>
      <trkpt lat="50.44743" lon="5.35287">
        <ele>288</ele>
        <time>2013-02-17T14:52:28Z</time>
      </trkpt>
      <trkpt lat="50.44774" lon="5.35289">
        <ele>288.6</ele>
        <time>2013-02-17T14:52:35Z</time>
      </trkpt>
      <trkpt lat="50.44788" lon="5.35287">
        <ele>288.7</ele>
        <time>2013-02-17T14:52:38Z</time>
      </trkpt>
      <trkpt lat="50.44807" lon="5.35274">
        <ele>289.9</ele>
        <time>2013-02-17T14:52:43Z</time>
      </trkpt>
      <trkpt lat="50.4483" lon="5.35258">
        <ele>288.2</ele>
        <time>2013-02-17T14:52:49Z</time>
      </trkpt>
      <trkpt lat="50.44853" lon="5.35248">
        <ele>288</ele>
        <time>2013-02-17T14:52:55Z</time>
      </trkpt>
      <trkpt lat="50.44868" lon="5.3524">
        <ele>288.4</ele>
        <time>2013-02-17T14:53:01Z</time>
      </trkpt>
      <trkpt lat="50.44885" lon="5.35231">
        <ele>288.9</ele>
        <time>2013-02-17T14:53:09Z</time>
      </trkpt>
      <trkpt lat="50.44894" lon="5.35206">
        <ele>288.9</ele>
        <time>2013-02-17T14:53:21Z</time>
      </trkpt>
      <trkpt lat="50.44867" lon="5.35179">
        <ele>289.4</ele>
        <time>2013-02-17T14:53:31Z</time>
      </trkpt>
      <trkpt lat="50.44856" lon="5.3517">
        <ele>289.8</ele>
        <time>2013-02-17T14:53:34Z</time>
      </trkpt>
      <trkpt lat="50.44836" lon="5.35155">
        <ele>289.4</ele>
        <time>2013-02-17T14:53:40Z</time>
      </trkpt>
      <trkpt lat="50.44818" lon="5.35139">
        <ele>289.5</ele>
        <time>2013-02-17T14:53:47Z</time>
      </trkpt>
      <trkpt lat="50.44805" lon="5.35128">
        <ele>285.7</ele>
        <time>2013-02-17T14:53:52Z</time>
      </trkpt>
      <trkpt lat="50.44784" lon="5.3511">
        <ele>287.1</ele>
        <time>2013-02-17T14:54:00Z</time>
      </trkpt>
      <trkpt lat="50.44768" lon="5.35095">
        <ele>288</ele>
        <time>2013-02-17T14:54:06Z</time>
      </trkpt>
      <trkpt lat="50.44746" lon="5.35078">
        <ele>289.7</ele>
        <time>2013-02-17T14:54:14Z</time>
      </trkpt>
      <trkpt lat="50.44728" lon="5.35059">
        <ele>291.1</ele>
        <time>2013-02-17T14:54:20Z</time>
      </trkpt>
      <trkpt lat="50.44707" lon="5.35035">
        <ele>291.2</ele>
        <time>2013-02-17T14:54:27Z</time>
      </trkpt>
      <trkpt lat="50.44699" lon="5.35026">
        <ele>291.5</ele>
        <time>2013-02-17T14:54:30Z</time>
      </trkpt>
      <trkpt lat="50.44674" lon="5.35003">
        <ele>291.5</ele>
        <time>2013-02-17T14:54:37Z</time>
      </trkpt>
      <trkpt lat="50.44662" lon="5.34994">
        <ele>291.9</ele>
        <time>2013-02-17T14:54:40Z</time>
      </trkpt>
      <trkpt lat="50.4465" lon="5.34984">
        <ele>292.3</ele>
        <time>2013-02-17T14:54:43Z</time>
      </trkpt>
      <trkpt lat="50.4463" lon="5.34965">
        <ele>291.7</ele>
        <time>2013-02-17T14:54:47Z</time>
      </trkpt>
      <trkpt lat="50.44603" lon="5.34943">
        <ele>291.5</ele>
        <time>2013-02-17T14:54:53Z</time>
      </trkpt>
      <trkpt lat="50.44578" lon="5.34921">
        <ele>287.2</ele>
        <time>2013-02-17T14:54:59Z</time>
      </trkpt>
      <trkpt lat="50.44552" lon="5.34898">
        <ele>287.3</ele>
        <time>2013-02-17T14:55:04Z</time>
      </trkpt>
      <trkpt lat="50.44524" lon="5.34874">
        <ele>288.6</ele>
        <time>2013-02-17T14:55:11Z</time>
      </trkpt>
      <trkpt lat="50.44508" lon="5.34857">
        <ele>287.2</ele>
        <time>2013-02-17T14:55:16Z</time>
      </trkpt>
      <trkpt lat="50.44507" lon="5.34835">
        <ele>286.5</ele>
        <time>2013-02-17T14:55:22Z</time>
      </trkpt>
      <trkpt lat="50.44541" lon="5.34824">
        <ele>289.7</ele>
        <time>2013-02-17T14:55:33Z</time>
      </trkpt>
      <trkpt lat="50.44563" lon="5.34813">
        <ele>290.7</ele>
        <time>2013-02-17T14:55:40Z</time>
      </trkpt>
      <trkpt lat="50.44588" lon="5.34802">
        <ele>293.5</ele>
        <time>2013-02-17T14:55:48Z</time>
      </trkpt>
      <trkpt lat="50.44613" lon="5.34793">
        <ele>295.3</ele>
        <time>2013-02-17T14:55:55Z</time>
      </trkpt>
      <trkpt lat="50.44636" lon="5.34784">
        <ele>299.1</ele>
        <time>2013-02-17T14:56:02Z</time>
      </trkpt>
      <trkpt lat="50.44653" lon="5.34774">
        <ele>300.2</ele>
        <time>2013-02-17T14:56:08Z</time>
      </trkpt>
      <trkpt lat="50.44667" lon="5.34781">
        <ele>300.1</ele>
        <time>2013-02-17T14:56:18Z</time>
      </trkpt>
      <trkpt lat="50.44667" lon="5.34788">
        <ele>301.3</ele>
        <time>2013-02-17T14:56:23Z</time>
      </trkpt>
      <trkpt lat="50.44667" lon="5.34788">
        <ele>253</ele>
        <time>2013-02-17T14:56:30Z</time>
      </trkpt>
      <trkpt lat="50.44667" lon="5.34788">
        <ele>253</ele>
        <time>2013-02-17T14:57:58Z</time>
      </trkpt>
      <trkpt lat="50.44667" lon="5.34788">
        <ele>253</ele>
        <time>2013-02-17T14:58:41Z</time>
      </trkpt>
      <trkpt lat="50.44667" lon="5.34788">
        <ele>253</ele>
        <time>2013-02-17T14:58:43Z</time>
      </trkpt>
    </trkseg>
  </trk>
</gpx>